<?xml version='1.0' encoding='UTF-8'?><gpx version="1.1" creator="JPX - https://github.com/jenetics/jpx" xmlns="http://www.topografix.com/GPX/1/1"><trk><trkseg><trkpt lat="44.4276142" lon="10.9243596"><ele>166.0</ele><time>2026-05-02T07:55:47.995Z</time></trkpt><trkpt lat="44.42754" lon="10.9243831"><ele>166.0</ele><time>2026-05-02T07:56:53.995Z</time></trkpt><trkpt lat="44.4275023" lon="10.9244836"><ele>166.0</ele><time>2026-05-02T07:56:57.996Z</time></trkpt><trkpt lat="44.4275566" lon="10.9245624"><ele>166.0</ele><time>2026-05-02T07:56:59.996Z</time></trkpt><trkpt lat="44.4276198" lon="10.9245842"><ele>166.0</ele><time>2026-05-02T07:57:00.996Z</time></trkpt><trkpt lat="44.4277078" lon="10.9246071"><ele>166.0</ele><time>2026-05-02T07:57:01.995Z</time></trkpt><trkpt lat="44.427793" lon="10.9246273"><ele>166.0</ele><time>2026-05-02T07:57:02.993Z</time></trkpt><trkpt lat="44.4278673" lon="10.9246416"><ele>166.0</ele><time>2026-05-02T07:57:03.995Z</time></trkpt><trkpt lat="44.4279854" lon="10.9246633"><ele>166.0</ele><time>2026-05-02T07:57:05.994Z</time></trkpt><trkpt lat="44.4281033" lon="10.9246913"><ele>166.0</ele><time>2026-05-02T07:57:07.994Z</time></trkpt><trkpt lat="44.4282196" lon="10.9247228"><ele>166.0</ele><time>2026-05-02T07:57:09.994Z</time></trkpt><trkpt lat="44.4283017" lon="10.9247427"><ele>166.33333333333334</ele><time>2026-05-02T07:57:10.994Z</time></trkpt><trkpt lat="44.4283884" lon="10.9247677"><ele>166.66666666666669</ele><time>2026-05-02T07:57:11.996Z</time></trkpt><trkpt lat="44.428473" lon="10.92479"><ele>167.0</ele><time>2026-05-02T07:57:12.994Z</time></trkpt><trkpt lat="44.4285613" lon="10.9248084"><ele>167.33333333333334</ele><time>2026-05-02T07:57:13.995Z</time></trkpt><trkpt lat="44.428647" lon="10.9248311"><ele>167.66666666666666</ele><time>2026-05-02T07:57:14.994Z</time></trkpt><trkpt lat="44.4287286" lon="10.9248608"><ele>168.0</ele><time>2026-05-02T07:57:15.994Z</time></trkpt><trkpt lat="44.4288126" lon="10.9248986"><ele>168.0</ele><time>2026-05-02T07:57:16.993Z</time></trkpt><trkpt lat="44.4289026" lon="10.924947"><ele>168.0</ele><time>2026-05-02T07:57:17.994Z</time></trkpt><trkpt lat="44.4290004" lon="10.92501"><ele>168.0</ele><time>2026-05-02T07:57:18.996Z</time></trkpt><trkpt lat="44.4290989" lon="10.9250957"><ele>168.0</ele><time>2026-05-02T07:57:19.996Z</time></trkpt><trkpt lat="44.4291977" lon="10.9252101"><ele>168.0</ele><time>2026-05-02T07:57:20.996Z</time></trkpt><trkpt lat="44.4292917" lon="10.9253494"><ele>168.0</ele><time>2026-05-02T07:57:21.995Z</time></trkpt><trkpt lat="44.4293697" lon="10.9255039"><ele>168.0</ele><time>2026-05-02T07:57:22.995Z</time></trkpt><trkpt lat="44.4294328" lon="10.9256598"><ele>168.0</ele><time>2026-05-02T07:57:23.999Z</time></trkpt><trkpt lat="44.4294918" lon="10.9258185"><ele>168.0</ele><time>2026-05-02T07:57:24.996Z</time></trkpt><trkpt lat="44.4295551" lon="10.9259841"><ele>167.75</ele><time>2026-05-02T07:57:25.995Z</time></trkpt><trkpt lat="44.4296161" lon="10.9261433"><ele>167.5</ele><time>2026-05-02T07:57:26.997Z</time></trkpt><trkpt lat="44.4296788" lon="10.926306"><ele>167.25</ele><time>2026-05-02T07:57:27.997Z</time></trkpt><trkpt lat="44.4297421" lon="10.9264759"><ele>167.0</ele><time>2026-05-02T07:57:28.997Z</time></trkpt><trkpt lat="44.4298096" lon="10.9266497"><ele>167.25</ele><time>2026-05-02T07:57:29.996Z</time></trkpt><trkpt lat="44.4298831" lon="10.9268278"><ele>167.5</ele><time>2026-05-02T07:57:30.996Z</time></trkpt><trkpt lat="44.4299538" lon="10.9270051"><ele>167.75</ele><time>2026-05-02T07:57:31.997Z</time></trkpt><trkpt lat="44.4300273" lon="10.9271834"><ele>168.0</ele><time>2026-05-02T07:57:32.997Z</time></trkpt><trkpt lat="44.4301112" lon="10.927354"><ele>168.0</ele><time>2026-05-02T07:57:33.994Z</time></trkpt><trkpt lat="44.4302049" lon="10.9275102"><ele>168.0</ele><time>2026-05-02T07:57:34.996Z</time></trkpt><trkpt lat="44.4303048" lon="10.9276506"><ele>168.0</ele><time>2026-05-02T07:57:35.997Z</time></trkpt><trkpt lat="44.4304204" lon="10.927784"><ele>168.0</ele><time>2026-05-02T07:57:36.995Z</time></trkpt><trkpt lat="44.4305472" lon="10.9279088"><ele>168.0</ele><time>2026-05-02T07:57:37.996Z</time></trkpt><trkpt lat="44.4306782" lon="10.9280276"><ele>168.0</ele><time>2026-05-02T07:57:38.996Z</time></trkpt><trkpt lat="44.4308045" lon="10.9281315"><ele>168.0</ele><time>2026-05-02T07:57:39.997Z</time></trkpt><trkpt lat="44.4309271" lon="10.9282241"><ele>168.0</ele><time>2026-05-02T07:57:40.997Z</time></trkpt><trkpt lat="44.4310472" lon="10.9283082"><ele>168.0</ele><time>2026-05-02T07:57:41.996Z</time></trkpt><trkpt lat="44.4311712" lon="10.9283806"><ele>168.0</ele><time>2026-05-02T07:57:42.996Z</time></trkpt><trkpt lat="44.4312997" lon="10.928449"><ele>168.0</ele><time>2026-05-02T07:57:43.996Z</time></trkpt><trkpt lat="44.4314204" lon="10.9285055"><ele>168.0</ele><time>2026-05-02T07:57:44.996Z</time></trkpt><trkpt lat="44.4315403" lon="10.9285643"><ele>167.25</ele><time>2026-05-02T07:57:45.996Z</time></trkpt><trkpt lat="44.4316665" lon="10.9286277"><ele>166.5</ele><time>2026-05-02T07:57:46.997Z</time></trkpt><trkpt lat="44.4317977" lon="10.928691"><ele>165.75</ele><time>2026-05-02T07:57:47.997Z</time></trkpt><trkpt lat="44.4319319" lon="10.9287552"><ele>165.0</ele><time>2026-05-02T07:57:48.995Z</time></trkpt><trkpt lat="44.4320626" lon="10.9288153"><ele>166.0</ele><time>2026-05-02T07:57:49.998Z</time></trkpt><trkpt lat="44.43219" lon="10.9288719"><ele>167.0</ele><time>2026-05-02T07:57:50.996Z</time></trkpt><trkpt lat="44.4323198" lon="10.928931"><ele>168.0</ele><time>2026-05-02T07:57:51.996Z</time></trkpt><trkpt lat="44.4324521" lon="10.9289973"><ele>169.0</ele><time>2026-05-02T07:57:52.997Z</time></trkpt><trkpt lat="44.4325897" lon="10.9290689"><ele>169.0</ele><time>2026-05-02T07:57:53.996Z</time></trkpt><trkpt lat="44.4327257" lon="10.9291366"><ele>169.0</ele><time>2026-05-02T07:57:54.996Z</time></trkpt><trkpt lat="44.4328601" lon="10.9292067"><ele>169.0</ele><time>2026-05-02T07:57:55.997Z</time></trkpt><trkpt lat="44.4329986" lon="10.9292854"><ele>169.0</ele><time>2026-05-02T07:57:56.995Z</time></trkpt><trkpt lat="44.4331386" lon="10.9293693"><ele>167.0</ele><time>2026-05-02T07:57:57.997Z</time></trkpt><trkpt lat="44.433283" lon="10.9294535"><ele>165.0</ele><time>2026-05-02T07:57:58.996Z</time></trkpt><trkpt lat="44.4334315" lon="10.9295429"><ele>163.0</ele><time>2026-05-02T07:57:59.996Z</time></trkpt><trkpt lat="44.4335774" lon="10.9296422"><ele>163.0</ele><time>2026-05-02T07:58:00.996Z</time></trkpt><trkpt lat="44.4337222" lon="10.9297475"><ele>163.0</ele><time>2026-05-02T07:58:01.999Z</time></trkpt><trkpt lat="44.4338654" lon="10.9298529"><ele>163.0</ele><time>2026-05-02T07:58:02.995Z</time></trkpt><trkpt lat="44.4340055" lon="10.9299564"><ele>160.66666666666669</ele><time>2026-05-02T07:58:03.995Z</time></trkpt><trkpt lat="44.4341407" lon="10.9300627"><ele>158.33333333333334</ele><time>2026-05-02T07:58:04.996Z</time></trkpt><trkpt lat="44.4342738" lon="10.9301732"><ele>156.0</ele><time>2026-05-02T07:58:05.995Z</time></trkpt><trkpt lat="44.4344055" lon="10.9302831"><ele>156.0</ele><time>2026-05-02T07:58:06.996Z</time></trkpt><trkpt lat="44.4345384" lon="10.9303901"><ele>156.0</ele><time>2026-05-02T07:58:07.996Z</time></trkpt><trkpt lat="44.43467" lon="10.9304967"><ele>156.0</ele><time>2026-05-02T07:58:08.995Z</time></trkpt><trkpt lat="44.4348029" lon="10.9306094"><ele>156.0</ele><time>2026-05-02T07:58:09.996Z</time></trkpt><trkpt lat="44.43494" lon="10.9307249"><ele>156.0</ele><time>2026-05-02T07:58:10.995Z</time></trkpt><trkpt lat="44.4350783" lon="10.9308395"><ele>156.0</ele><time>2026-05-02T07:58:11.995Z</time></trkpt><trkpt lat="44.4352152" lon="10.9309537"><ele>156.0</ele><time>2026-05-02T07:58:12.996Z</time></trkpt><trkpt lat="44.4353472" lon="10.9310604"><ele>156.0</ele><time>2026-05-02T07:58:13.995Z</time></trkpt><trkpt lat="44.4354753" lon="10.9311636"><ele>156.0</ele><time>2026-05-02T07:58:14.996Z</time></trkpt><trkpt lat="44.4356032" lon="10.9312667"><ele>156.0</ele><time>2026-05-02T07:58:15.996Z</time></trkpt><trkpt lat="44.4357347" lon="10.9313717"><ele>159.33333333333334</ele><time>2026-05-02T07:58:16.993Z</time></trkpt><trkpt lat="44.4358681" lon="10.9314798"><ele>162.66666666666669</ele><time>2026-05-02T07:58:17.997Z</time></trkpt><trkpt lat="44.4359999" lon="10.9315865"><ele>166.0</ele><time>2026-05-02T07:58:18.996Z</time></trkpt><trkpt lat="44.4361348" lon="10.9316992"><ele>164.66666666666669</ele><time>2026-05-02T07:58:19.997Z</time></trkpt><trkpt lat="44.4362763" lon="10.9318145"><ele>163.33333333333334</ele><time>2026-05-02T07:58:20.996Z</time></trkpt><trkpt lat="44.4364186" lon="10.9319329"><ele>162.0</ele><time>2026-05-02T07:58:21.997Z</time></trkpt><trkpt lat="44.4365601" lon="10.9320532"><ele>162.0</ele><time>2026-05-02T07:58:22.995Z</time></trkpt><trkpt lat="44.4367037" lon="10.9321701"><ele>162.0</ele><time>2026-05-02T07:58:23.995Z</time></trkpt><trkpt lat="44.4368467" lon="10.9322893"><ele>162.0</ele><time>2026-05-02T07:58:24.995Z</time></trkpt><trkpt lat="44.4369918" lon="10.9324046"><ele>162.0</ele><time>2026-05-02T07:58:25.997Z</time></trkpt><trkpt lat="44.4371344" lon="10.9325123"><ele>162.0</ele><time>2026-05-02T07:58:26.995Z</time></trkpt><trkpt lat="44.4372734" lon="10.9326152"><ele>162.0</ele><time>2026-05-02T07:58:27.995Z</time></trkpt><trkpt lat="44.4374088" lon="10.9327176"><ele>161.33333333333334</ele><time>2026-05-02T07:58:28.994Z</time></trkpt><trkpt lat="44.4375422" lon="10.9328241"><ele>160.66666666666669</ele><time>2026-05-02T07:58:29.995Z</time></trkpt><trkpt lat="44.4376734" lon="10.9329315"><ele>160.0</ele><time>2026-05-02T07:58:30.998Z</time></trkpt><trkpt lat="44.4377987" lon="10.933044"><ele>160.0</ele><time>2026-05-02T07:58:31.996Z</time></trkpt><trkpt lat="44.4379151" lon="10.9331619"><ele>160.0</ele><time>2026-05-02T07:58:32.995Z</time></trkpt><trkpt lat="44.4380106" lon="10.9332703"><ele>160.0</ele><time>2026-05-02T07:58:33.996Z</time></trkpt><trkpt lat="44.4380949" lon="10.933376"><ele>160.0</ele><time>2026-05-02T07:58:34.995Z</time></trkpt><trkpt lat="44.4381731" lon="10.9334925"><ele>161.0</ele><time>2026-05-02T07:58:35.996Z</time></trkpt><trkpt lat="44.4382476" lon="10.9336109"><ele>162.0</ele><time>2026-05-02T07:58:36.997Z</time></trkpt><trkpt lat="44.4383156" lon="10.93373"><ele>163.0</ele><time>2026-05-02T07:58:37.996Z</time></trkpt><trkpt lat="44.4383854" lon="10.9338521"><ele>164.0</ele><time>2026-05-02T07:58:38.996Z</time></trkpt><trkpt lat="44.4384569" lon="10.933981"><ele>164.0</ele><time>2026-05-02T07:58:39.996Z</time></trkpt><trkpt lat="44.4385347" lon="10.9341216"><ele>164.0</ele><time>2026-05-02T07:58:40.996Z</time></trkpt><trkpt lat="44.4386123" lon="10.934263"><ele>164.0</ele><time>2026-05-02T07:58:41.998Z</time></trkpt><trkpt lat="44.4386885" lon="10.9344002"><ele>164.0</ele><time>2026-05-02T07:58:42.995Z</time></trkpt><trkpt lat="44.4387654" lon="10.9345381"><ele>163.0</ele><time>2026-05-02T07:58:43.996Z</time></trkpt><trkpt lat="44.4388416" lon="10.9346762"><ele>162.0</ele><time>2026-05-02T07:58:44.996Z</time></trkpt><trkpt lat="44.4389245" lon="10.9348206"><ele>161.0</ele><time>2026-05-02T07:58:45.996Z</time></trkpt><trkpt lat="44.4390134" lon="10.9349742"><ele>160.0</ele><time>2026-05-02T07:58:46.996Z</time></trkpt><trkpt lat="44.4391184" lon="10.9351314"><ele>160.0</ele><time>2026-05-02T07:58:47.993Z</time></trkpt><trkpt lat="44.4392401" lon="10.9352871"><ele>160.0</ele><time>2026-05-02T07:58:48.995Z</time></trkpt><trkpt lat="44.4393721" lon="10.9354358"><ele>160.0</ele><time>2026-05-02T07:58:49.993Z</time></trkpt><trkpt lat="44.4395062" lon="10.9355643"><ele>158.66666666666669</ele><time>2026-05-02T07:58:50.994Z</time></trkpt><trkpt lat="44.4396413" lon="10.9356793"><ele>157.33333333333334</ele><time>2026-05-02T07:58:51.996Z</time></trkpt><trkpt lat="44.4397766" lon="10.9357898"><ele>156.0</ele><time>2026-05-02T07:58:52.994Z</time></trkpt><trkpt lat="44.4399178" lon="10.9359017"><ele>156.0</ele><time>2026-05-02T07:58:53.995Z</time></trkpt><trkpt lat="44.4400585" lon="10.9360103"><ele>156.0</ele><time>2026-05-02T07:58:54.996Z</time></trkpt><trkpt lat="44.440191" lon="10.9361161"><ele>156.0</ele><time>2026-05-02T07:58:55.996Z</time></trkpt><trkpt lat="44.4403177" lon="10.9362101"><ele>156.0</ele><time>2026-05-02T07:58:56.997Z</time></trkpt><trkpt lat="44.4404406" lon="10.9363014"><ele>156.0</ele><time>2026-05-02T07:58:57.996Z</time></trkpt><trkpt lat="44.4405595" lon="10.9363949"><ele>156.0</ele><time>2026-05-02T07:58:58.996Z</time></trkpt><trkpt lat="44.4406735" lon="10.9364821"><ele>156.0</ele><time>2026-05-02T07:58:59.996Z</time></trkpt><trkpt lat="44.4407871" lon="10.9365655"><ele>155.0</ele><time>2026-05-02T07:59:00.995Z</time></trkpt><trkpt lat="44.4409004" lon="10.9366539"><ele>154.0</ele><time>2026-05-02T07:59:01.995Z</time></trkpt><trkpt lat="44.4410115" lon="10.9367351"><ele>153.0</ele><time>2026-05-02T07:59:02.995Z</time></trkpt><trkpt lat="44.4411293" lon="10.9368214"><ele>152.0</ele><time>2026-05-02T07:59:03.996Z</time></trkpt><trkpt lat="44.4412471" lon="10.9369104"><ele>155.25</ele><time>2026-05-02T07:59:04.996Z</time></trkpt><trkpt lat="44.4413619" lon="10.9370028"><ele>158.5</ele><time>2026-05-02T07:59:05.996Z</time></trkpt><trkpt lat="44.4414783" lon="10.9370942"><ele>161.75</ele><time>2026-05-02T07:59:06.996Z</time></trkpt><trkpt lat="44.4415966" lon="10.937186"><ele>165.0</ele><time>2026-05-02T07:59:07.997Z</time></trkpt><trkpt lat="44.4417184" lon="10.9372795"><ele>165.0</ele><time>2026-05-02T07:59:08.996Z</time></trkpt><trkpt lat="44.4418476" lon="10.9373865"><ele>165.0</ele><time>2026-05-02T07:59:09.995Z</time></trkpt><trkpt lat="44.4419751" lon="10.9375068"><ele>165.0</ele><time>2026-05-02T07:59:10.996Z</time></trkpt><trkpt lat="44.4420971" lon="10.9376432"><ele>165.0</ele><time>2026-05-02T07:59:11.995Z</time></trkpt><trkpt lat="44.442213" lon="10.9377938"><ele>165.0</ele><time>2026-05-02T07:59:12.996Z</time></trkpt><trkpt lat="44.4423206" lon="10.9379406"><ele>165.0</ele><time>2026-05-02T07:59:13.996Z</time></trkpt><trkpt lat="44.4424179" lon="10.938081"><ele>165.0</ele><time>2026-05-02T07:59:14.997Z</time></trkpt><trkpt lat="44.4425072" lon="10.9382128"><ele>165.0</ele><time>2026-05-02T07:59:15.995Z</time></trkpt><trkpt lat="44.4425888" lon="10.93834"><ele>165.0</ele><time>2026-05-02T07:59:16.996Z</time></trkpt><trkpt lat="44.4426657" lon="10.93847"><ele>165.0</ele><time>2026-05-02T07:59:17.994Z</time></trkpt><trkpt lat="44.4427433" lon="10.9385984"><ele>165.0</ele><time>2026-05-02T07:59:18.994Z</time></trkpt><trkpt lat="44.4428293" lon="10.9387329"><ele>165.5</ele><time>2026-05-02T07:59:19.995Z</time></trkpt><trkpt lat="44.4429199" lon="10.9388761"><ele>166.0</ele><time>2026-05-02T07:59:20.993Z</time></trkpt><trkpt lat="44.443015" lon="10.9390248"><ele>166.5</ele><time>2026-05-02T07:59:21.995Z</time></trkpt><trkpt lat="44.4431148" lon="10.9391762"><ele>167.0</ele><time>2026-05-02T07:59:22.993Z</time></trkpt><trkpt lat="44.4432169" lon="10.9393266"><ele>164.0</ele><time>2026-05-02T07:59:23.993Z</time></trkpt><trkpt lat="44.4433265" lon="10.9394705"><ele>161.0</ele><time>2026-05-02T07:59:24.997Z</time></trkpt><trkpt lat="44.4434461" lon="10.9396145"><ele>158.0</ele><time>2026-05-02T07:59:25.995Z</time></trkpt><trkpt lat="44.4435715" lon="10.9397565"><ele>158.0</ele><time>2026-05-02T07:59:26.998Z</time></trkpt><trkpt lat="44.4436905" lon="10.9398893"><ele>158.0</ele><time>2026-05-02T07:59:27.997Z</time></trkpt><trkpt lat="44.44381" lon="10.94002"><ele>158.0</ele><time>2026-05-02T07:59:28.996Z</time></trkpt><trkpt lat="44.4439331" lon="10.940152"><ele>157.33333333333331</ele><time>2026-05-02T07:59:29.997Z</time></trkpt><trkpt lat="44.4440592" lon="10.9402893"><ele>156.66666666666666</ele><time>2026-05-02T07:59:30.997Z</time></trkpt><trkpt lat="44.444182" lon="10.9404201"><ele>156.0</ele><time>2026-05-02T07:59:31.995Z</time></trkpt><trkpt lat="44.444293" lon="10.9405422"><ele>156.0</ele><time>2026-05-02T07:59:32.996Z</time></trkpt><trkpt lat="44.4443941" lon="10.9406596"><ele>156.0</ele><time>2026-05-02T07:59:33.996Z</time></trkpt><trkpt lat="44.4444983" lon="10.940772"><ele>156.0</ele><time>2026-05-02T07:59:34.997Z</time></trkpt><trkpt lat="44.4446018" lon="10.9408899"><ele>156.0</ele><time>2026-05-02T07:59:35.996Z</time></trkpt><trkpt lat="44.4447069" lon="10.9410143"><ele>156.5</ele><time>2026-05-02T07:59:36.995Z</time></trkpt><trkpt lat="44.4448117" lon="10.9411431"><ele>157.0</ele><time>2026-05-02T07:59:37.996Z</time></trkpt><trkpt lat="44.4449123" lon="10.9412734"><ele>157.5</ele><time>2026-05-02T07:59:38.997Z</time></trkpt><trkpt lat="44.4450101" lon="10.9414031"><ele>158.0</ele><time>2026-05-02T07:59:39.995Z</time></trkpt><trkpt lat="44.4451023" lon="10.9415361"><ele>158.0</ele><time>2026-05-02T07:59:40.995Z</time></trkpt><trkpt lat="44.4451889" lon="10.9416701"><ele>158.0</ele><time>2026-05-02T07:59:41.998Z</time></trkpt><trkpt lat="44.4452644" lon="10.9418002"><ele>158.0</ele><time>2026-05-02T07:59:42.996Z</time></trkpt><trkpt lat="44.4453416" lon="10.9419262"><ele>158.0</ele><time>2026-05-02T07:59:43.997Z</time></trkpt><trkpt lat="44.4454196" lon="10.9420588"><ele>157.5</ele><time>2026-05-02T07:59:44.996Z</time></trkpt><trkpt lat="44.4454982" lon="10.9421949"><ele>157.0</ele><time>2026-05-02T07:59:45.996Z</time></trkpt><trkpt lat="44.4455702" lon="10.9423308"><ele>156.5</ele><time>2026-05-02T07:59:46.996Z</time></trkpt><trkpt lat="44.4456416" lon="10.9424731"><ele>156.0</ele><time>2026-05-02T07:59:47.997Z</time></trkpt><trkpt lat="44.4457176" lon="10.9426247"><ele>156.0</ele><time>2026-05-02T07:59:48.995Z</time></trkpt><trkpt lat="44.4457937" lon="10.9427845"><ele>156.0</ele><time>2026-05-02T07:59:49.996Z</time></trkpt><trkpt lat="44.4458642" lon="10.9429524"><ele>156.0</ele><time>2026-05-02T07:59:50.996Z</time></trkpt><trkpt lat="44.445934" lon="10.943129"><ele>156.0</ele><time>2026-05-02T07:59:51.996Z</time></trkpt><trkpt lat="44.4460022" lon="10.943307"><ele>155.0</ele><time>2026-05-02T07:59:52.995Z</time></trkpt><trkpt lat="44.4460674" lon="10.9434912"><ele>154.0</ele><time>2026-05-02T07:59:53.997Z</time></trkpt><trkpt lat="44.446129" lon="10.9436756"><ele>153.0</ele><time>2026-05-02T07:59:54.995Z</time></trkpt><trkpt lat="44.4461883" lon="10.9438519"><ele>152.0</ele><time>2026-05-02T07:59:55.996Z</time></trkpt><trkpt lat="44.446248" lon="10.9440279"><ele>154.25</ele><time>2026-05-02T07:59:56.996Z</time></trkpt><trkpt lat="44.44631" lon="10.9442123"><ele>156.5</ele><time>2026-05-02T07:59:57.995Z</time></trkpt><trkpt lat="44.4463717" lon="10.9443981"><ele>158.75</ele><time>2026-05-02T07:59:58.993Z</time></trkpt><trkpt lat="44.446432" lon="10.9445862"><ele>161.0</ele><time>2026-05-02T07:59:59.994Z</time></trkpt><trkpt lat="44.446495" lon="10.9447766"><ele>161.0</ele><time>2026-05-02T08:00:00.994Z</time></trkpt><trkpt lat="44.446558" lon="10.9449602"><ele>161.0</ele><time>2026-05-02T08:00:01.994Z</time></trkpt><trkpt lat="44.4466274" lon="10.9451465"><ele>161.0</ele><time>2026-05-02T08:00:02.994Z</time></trkpt><trkpt lat="44.446703" lon="10.9453262"><ele>161.0</ele><time>2026-05-02T08:00:03.997Z</time></trkpt><trkpt lat="44.4467917" lon="10.945494"><ele>159.33333333333331</ele><time>2026-05-02T08:00:04.993Z</time></trkpt><trkpt lat="44.4468949" lon="10.9456466"><ele>157.66666666666666</ele><time>2026-05-02T08:00:05.994Z</time></trkpt><trkpt lat="44.447013" lon="10.9457832"><ele>156.0</ele><time>2026-05-02T08:00:06.995Z</time></trkpt><trkpt lat="44.4471434" lon="10.9458976"><ele>156.0</ele><time>2026-05-02T08:00:07.994Z</time></trkpt><trkpt lat="44.4472729" lon="10.9459889"><ele>156.0</ele><time>2026-05-02T08:00:08.996Z</time></trkpt><trkpt lat="44.4474086" lon="10.9460759"><ele>156.0</ele><time>2026-05-02T08:00:09.993Z</time></trkpt><trkpt lat="44.4475384" lon="10.9461656"><ele>156.0</ele><time>2026-05-02T08:00:10.994Z</time></trkpt><trkpt lat="44.4476681" lon="10.9462638"><ele>156.0</ele><time>2026-05-02T08:00:11.997Z</time></trkpt><trkpt lat="44.4477969" lon="10.946372"><ele>156.0</ele><time>2026-05-02T08:00:12.997Z</time></trkpt><trkpt lat="44.4479231" lon="10.9464781"><ele>156.0</ele><time>2026-05-02T08:00:13.996Z</time></trkpt><trkpt lat="44.4480533" lon="10.9465869"><ele>156.0</ele><time>2026-05-02T08:00:14.995Z</time></trkpt><trkpt lat="44.448191" lon="10.946702"><ele>154.33333333333334</ele><time>2026-05-02T08:00:15.998Z</time></trkpt><trkpt lat="44.4483384" lon="10.9468146"><ele>152.66666666666669</ele><time>2026-05-02T08:00:16.996Z</time></trkpt><trkpt lat="44.4484868" lon="10.9469236"><ele>151.0</ele><time>2026-05-02T08:00:17.995Z</time></trkpt><trkpt lat="44.4486413" lon="10.9470353"><ele>151.66666666666669</ele><time>2026-05-02T08:00:18.996Z</time></trkpt><trkpt lat="44.4487968" lon="10.9471467"><ele>152.33333333333334</ele><time>2026-05-02T08:00:19.997Z</time></trkpt><trkpt lat="44.4489538" lon="10.9472596"><ele>153.0</ele><time>2026-05-02T08:00:20.996Z</time></trkpt><trkpt lat="44.449112" lon="10.9473738"><ele>153.0</ele><time>2026-05-02T08:00:21.996Z</time></trkpt><trkpt lat="44.4492632" lon="10.9474847"><ele>153.0</ele><time>2026-05-02T08:00:22.995Z</time></trkpt><trkpt lat="44.4494072" lon="10.9475957"><ele>153.0</ele><time>2026-05-02T08:00:23.995Z</time></trkpt><trkpt lat="44.449547" lon="10.9477106"><ele>152.33333333333334</ele><time>2026-05-02T08:00:24.995Z</time></trkpt><trkpt lat="44.4496806" lon="10.9478333"><ele>151.66666666666669</ele><time>2026-05-02T08:00:25.996Z</time></trkpt><trkpt lat="44.4498078" lon="10.9479663"><ele>151.0</ele><time>2026-05-02T08:00:26.999Z</time></trkpt><trkpt lat="44.4499316" lon="10.9481108"><ele>151.0</ele><time>2026-05-02T08:00:27.996Z</time></trkpt><trkpt lat="44.4500486" lon="10.9482688"><ele>151.0</ele><time>2026-05-02T08:00:28.994Z</time></trkpt><trkpt lat="44.4501587" lon="10.9484471"><ele>151.0</ele><time>2026-05-02T08:00:29.996Z</time></trkpt><trkpt lat="44.4502565" lon="10.9486439"><ele>149.33333333333334</ele><time>2026-05-02T08:00:30.995Z</time></trkpt><trkpt lat="44.4503421" lon="10.9488471"><ele>147.66666666666666</ele><time>2026-05-02T08:00:31.994Z</time></trkpt><trkpt lat="44.450421" lon="10.9490516"><ele>146.0</ele><time>2026-05-02T08:00:32.996Z</time></trkpt><trkpt lat="44.4504945" lon="10.9492499"><ele>145.75</ele><time>2026-05-02T08:00:33.995Z</time></trkpt><trkpt lat="44.4505695" lon="10.949437"><ele>145.5</ele><time>2026-05-02T08:00:34.994Z</time></trkpt><trkpt lat="44.4506439" lon="10.949613"><ele>145.25</ele><time>2026-05-02T08:00:35.995Z</time></trkpt><trkpt lat="44.4507131" lon="10.9497843"><ele>145.0</ele><time>2026-05-02T08:00:36.996Z</time></trkpt><trkpt lat="44.4507819" lon="10.9499481"><ele>145.0</ele><time>2026-05-02T08:00:37.994Z</time></trkpt><trkpt lat="44.4508436" lon="10.9501064"><ele>145.0</ele><time>2026-05-02T08:00:38.994Z</time></trkpt><trkpt lat="44.4509033" lon="10.950261"><ele>145.0</ele><time>2026-05-02T08:00:39.994Z</time></trkpt><trkpt lat="44.4509653" lon="10.9504134"><ele>145.0</ele><time>2026-05-02T08:00:40.997Z</time></trkpt><trkpt lat="44.4510293" lon="10.9505668"><ele>145.0</ele><time>2026-05-02T08:00:41.995Z</time></trkpt><trkpt lat="44.4510966" lon="10.9507289"><ele>145.0</ele><time>2026-05-02T08:00:42.995Z</time></trkpt><trkpt lat="44.4511686" lon="10.9509064"><ele>145.0</ele><time>2026-05-02T08:00:43.997Z</time></trkpt><trkpt lat="44.451244" lon="10.951093"><ele>145.0</ele><time>2026-05-02T08:00:44.996Z</time></trkpt><trkpt lat="44.4513211" lon="10.9512811"><ele>145.33333333333334</ele><time>2026-05-02T08:00:45.996Z</time></trkpt><trkpt lat="44.4513944" lon="10.9514712"><ele>145.66666666666666</ele><time>2026-05-02T08:00:46.996Z</time></trkpt><trkpt lat="44.4514681" lon="10.9516619"><ele>146.0</ele><time>2026-05-02T08:00:47.996Z</time></trkpt><trkpt lat="44.4515442" lon="10.951854"><ele>146.0</ele><time>2026-05-02T08:00:48.997Z</time></trkpt><trkpt lat="44.451618" lon="10.9520403"><ele>146.0</ele><time>2026-05-02T08:00:49.996Z</time></trkpt><trkpt lat="44.4516883" lon="10.9522217"><ele>146.0</ele><time>2026-05-02T08:00:50.996Z</time></trkpt><trkpt lat="44.4517617" lon="10.9524"><ele>146.0</ele><time>2026-05-02T08:00:51.996Z</time></trkpt><trkpt lat="44.4518333" lon="10.95258"><ele>146.25</ele><time>2026-05-02T08:00:52.997Z</time></trkpt><trkpt lat="44.4519033" lon="10.9527617"><ele>146.5</ele><time>2026-05-02T08:00:53.997Z</time></trkpt><trkpt lat="44.4519767" lon="10.9529467"><ele>146.75</ele><time>2026-05-02T08:00:54.995Z</time></trkpt><trkpt lat="44.4520517" lon="10.95313"><ele>147.0</ele><time>2026-05-02T08:00:55.996Z</time></trkpt><trkpt lat="44.4521283" lon="10.9533167"><ele>146.33333333333334</ele><time>2026-05-02T08:00:56.996Z</time></trkpt><trkpt lat="44.4522033" lon="10.9535067"><ele>145.66666666666669</ele><time>2026-05-02T08:00:57.998Z</time></trkpt><trkpt lat="44.4522817" lon="10.9537"><ele>145.0</ele><time>2026-05-02T08:00:58.995Z</time></trkpt><trkpt lat="44.4523617" lon="10.9539"><ele>145.0</ele><time>2026-05-02T08:00:59.996Z</time></trkpt><trkpt lat="44.4524467" lon="10.9541017"><ele>145.0</ele><time>2026-05-02T08:01:00.995Z</time></trkpt><trkpt lat="44.452525" lon="10.954305"><ele>145.0</ele><time>2026-05-02T08:01:01.996Z</time></trkpt><trkpt lat="44.4526017" lon="10.9545067"><ele>144.33333333333334</ele><time>2026-05-02T08:01:02.995Z</time></trkpt><trkpt lat="44.45267" lon="10.9547117"><ele>143.66666666666666</ele><time>2026-05-02T08:01:03.995Z</time></trkpt><trkpt lat="44.4527317" lon="10.9549183"><ele>143.0</ele><time>2026-05-02T08:01:04.994Z</time></trkpt><trkpt lat="44.4527833" lon="10.9551267"><ele>142.33333333333331</ele><time>2026-05-02T08:01:05.994Z</time></trkpt><trkpt lat="44.4528283" lon="10.9553367"><ele>141.66666666666666</ele><time>2026-05-02T08:01:06.994Z</time></trkpt><trkpt lat="44.452865" lon="10.9555517"><ele>141.0</ele><time>2026-05-02T08:01:07.995Z</time></trkpt><trkpt lat="44.4528967" lon="10.955765"><ele>141.33333333333334</ele><time>2026-05-02T08:01:08.995Z</time></trkpt><trkpt lat="44.4529183" lon="10.9559783"><ele>141.66666666666669</ele><time>2026-05-02T08:01:09.994Z</time></trkpt><trkpt lat="44.4529383" lon="10.956185"><ele>142.0</ele><time>2026-05-02T08:01:10.994Z</time></trkpt><trkpt lat="44.4529567" lon="10.9563967"><ele>145.66666666666669</ele><time>2026-05-02T08:01:11.997Z</time></trkpt><trkpt lat="44.4529733" lon="10.95661"><ele>149.33333333333334</ele><time>2026-05-02T08:01:12.998Z</time></trkpt><trkpt lat="44.4529883" lon="10.95682"><ele>153.0</ele><time>2026-05-02T08:01:13.996Z</time></trkpt><trkpt lat="44.4530017" lon="10.9570367"><ele>153.33333333333334</ele><time>2026-05-02T08:01:14.996Z</time></trkpt><trkpt lat="44.453025" lon="10.9572583"><ele>153.66666666666669</ele><time>2026-05-02T08:01:15.996Z</time></trkpt><trkpt lat="44.4530467" lon="10.95748"><ele>154.0</ele><time>2026-05-02T08:01:16.997Z</time></trkpt><trkpt lat="44.4530733" lon="10.957705"><ele>154.0</ele><time>2026-05-02T08:01:17.995Z</time></trkpt><trkpt lat="44.4530967" lon="10.9579333"><ele>154.0</ele><time>2026-05-02T08:01:18.995Z</time></trkpt><trkpt lat="44.4531183" lon="10.9581633"><ele>154.0</ele><time>2026-05-02T08:01:19.994Z</time></trkpt><trkpt lat="44.4531433" lon="10.95839"><ele>153.5</ele><time>2026-05-02T08:01:20.994Z</time></trkpt><trkpt lat="44.4531617" lon="10.958605"><ele>153.0</ele><time>2026-05-02T08:01:21.995Z</time></trkpt><trkpt lat="44.45318" lon="10.95881"><ele>152.5</ele><time>2026-05-02T08:01:22.993Z</time></trkpt><trkpt lat="44.4531917" lon="10.9590017"><ele>152.0</ele><time>2026-05-02T08:01:23.993Z</time></trkpt><trkpt lat="44.4532" lon="10.9591833"><ele>151.0</ele><time>2026-05-02T08:01:24.996Z</time></trkpt><trkpt lat="44.4532017" lon="10.9593617"><ele>150.0</ele><time>2026-05-02T08:01:25.996Z</time></trkpt><trkpt lat="44.45319" lon="10.9595483"><ele>149.0</ele><time>2026-05-02T08:01:26.997Z</time></trkpt><trkpt lat="44.4531767" lon="10.9597517"><ele>148.0</ele><time>2026-05-02T08:01:27.995Z</time></trkpt><trkpt lat="44.4531617" lon="10.9599567"><ele>148.25</ele><time>2026-05-02T08:01:28.994Z</time></trkpt><trkpt lat="44.453145" lon="10.96016"><ele>148.5</ele><time>2026-05-02T08:01:29.994Z</time></trkpt><trkpt lat="44.4531183" lon="10.9603717"><ele>148.75</ele><time>2026-05-02T08:01:30.995Z</time></trkpt><trkpt lat="44.4530933" lon="10.960575"><ele>149.0</ele><time>2026-05-02T08:01:31.995Z</time></trkpt><trkpt lat="44.4530633" lon="10.96078"><ele>149.33333333333331</ele><time>2026-05-02T08:01:32.993Z</time></trkpt><trkpt lat="44.4530383" lon="10.96099"><ele>149.66666666666666</ele><time>2026-05-02T08:01:33.994Z</time></trkpt><trkpt lat="44.45301" lon="10.9612033"><ele>150.0</ele><time>2026-05-02T08:01:34.996Z</time></trkpt><trkpt lat="44.452995" lon="10.9614117"><ele>150.0</ele><time>2026-05-02T08:01:35.994Z</time></trkpt><trkpt lat="44.4529883" lon="10.9616183"><ele>150.0</ele><time>2026-05-02T08:01:36.995Z</time></trkpt><trkpt lat="44.4529933" lon="10.9618233"><ele>150.0</ele><time>2026-05-02T08:01:37.995Z</time></trkpt><trkpt lat="44.4530133" lon="10.9620383"><ele>150.0</ele><time>2026-05-02T08:01:38.996Z</time></trkpt><trkpt lat="44.4530467" lon="10.9622483"><ele>149.0</ele><time>2026-05-02T08:01:39.996Z</time></trkpt><trkpt lat="44.4530967" lon="10.9624417"><ele>148.0</ele><time>2026-05-02T08:01:40.996Z</time></trkpt><trkpt lat="44.4531517" lon="10.96261"><ele>147.0</ele><time>2026-05-02T08:01:41.996Z</time></trkpt><trkpt lat="44.4532067" lon="10.9627633"><ele>146.0</ele><time>2026-05-02T08:01:42.995Z</time></trkpt><trkpt lat="44.4532667" lon="10.96291"><ele>145.0</ele><time>2026-05-02T08:01:43.995Z</time></trkpt><trkpt lat="44.45333" lon="10.9630467"><ele>144.0</ele><time>2026-05-02T08:01:44.996Z</time></trkpt><trkpt lat="44.4533833" lon="10.9631817"><ele>143.0</ele><time>2026-05-02T08:01:45.996Z</time></trkpt><trkpt lat="44.4534333" lon="10.963315"><ele>142.0</ele><time>2026-05-02T08:01:46.997Z</time></trkpt><trkpt lat="44.453485" lon="10.963445"><ele>141.0</ele><time>2026-05-02T08:01:47.997Z</time></trkpt><trkpt lat="44.4535367" lon="10.9635717"><ele>140.6</ele><time>2026-05-02T08:01:48.996Z</time></trkpt><trkpt lat="44.4535817" lon="10.9636917"><ele>140.2</ele><time>2026-05-02T08:01:49.996Z</time></trkpt><trkpt lat="44.453625" lon="10.9638133"><ele>139.8</ele><time>2026-05-02T08:01:50.996Z</time></trkpt><trkpt lat="44.45366" lon="10.963945"><ele>139.4</ele><time>2026-05-02T08:01:51.997Z</time></trkpt><trkpt lat="44.4536983" lon="10.96409"><ele>139.0</ele><time>2026-05-02T08:01:52.996Z</time></trkpt><trkpt lat="44.45373" lon="10.96425"><ele>139.0</ele><time>2026-05-02T08:01:53.997Z</time></trkpt><trkpt lat="44.4537517" lon="10.964425"><ele>139.0</ele><time>2026-05-02T08:01:54.996Z</time></trkpt><trkpt lat="44.4537583" lon="10.9646133"><ele>139.0</ele><time>2026-05-02T08:01:55.996Z</time></trkpt><trkpt lat="44.4537617" lon="10.964825"><ele>139.0</ele><time>2026-05-02T08:01:56.997Z</time></trkpt><trkpt lat="44.4537633" lon="10.9650467"><ele>138.0</ele><time>2026-05-02T08:01:57.996Z</time></trkpt><trkpt lat="44.453755" lon="10.9652783"><ele>137.0</ele><time>2026-05-02T08:01:58.994Z</time></trkpt><trkpt lat="44.4537483" lon="10.96551"><ele>136.0</ele><time>2026-05-02T08:01:59.993Z</time></trkpt><trkpt lat="44.45375" lon="10.9657433"><ele>135.66666666666669</ele><time>2026-05-02T08:02:00.995Z</time></trkpt><trkpt lat="44.4537683" lon="10.96598"><ele>135.33333333333334</ele><time>2026-05-02T08:02:01.994Z</time></trkpt><trkpt lat="44.4538" lon="10.9662167"><ele>135.0</ele><time>2026-05-02T08:02:02.993Z</time></trkpt><trkpt lat="44.45384" lon="10.9664533"><ele>136.0</ele><time>2026-05-02T08:02:03.994Z</time></trkpt><trkpt lat="44.453885" lon="10.966685"><ele>137.0</ele><time>2026-05-02T08:02:04.995Z</time></trkpt><trkpt lat="44.4539283" lon="10.9669017"><ele>138.0</ele><time>2026-05-02T08:02:05.994Z</time></trkpt><trkpt lat="44.4539817" lon="10.9671117"><ele>138.0</ele><time>2026-05-02T08:02:06.994Z</time></trkpt><trkpt lat="44.4540317" lon="10.9673283"><ele>138.0</ele><time>2026-05-02T08:02:07.994Z</time></trkpt><trkpt lat="44.4540783" lon="10.9675467"><ele>138.0</ele><time>2026-05-02T08:02:08.994Z</time></trkpt><trkpt lat="44.4541317" lon="10.9677683"><ele>138.0</ele><time>2026-05-02T08:02:09.997Z</time></trkpt><trkpt lat="44.45417" lon="10.9679967"><ele>138.0</ele><time>2026-05-02T08:02:10.994Z</time></trkpt><trkpt lat="44.4542" lon="10.9682267"><ele>138.0</ele><time>2026-05-02T08:02:11.997Z</time></trkpt><trkpt lat="44.454225" lon="10.9684533"><ele>138.0</ele><time>2026-05-02T08:02:12.996Z</time></trkpt><trkpt lat="44.4542433" lon="10.9686683"><ele>138.0</ele><time>2026-05-02T08:02:13.997Z</time></trkpt><trkpt lat="44.4542583" lon="10.9688783"><ele>138.0</ele><time>2026-05-02T08:02:14.996Z</time></trkpt><trkpt lat="44.45427" lon="10.96908"><ele>137.75</ele><time>2026-05-02T08:02:15.997Z</time></trkpt><trkpt lat="44.4542833" lon="10.96928"><ele>137.5</ele><time>2026-05-02T08:02:16.997Z</time></trkpt><trkpt lat="44.45429" lon="10.9694733"><ele>137.25</ele><time>2026-05-02T08:02:17.996Z</time></trkpt><trkpt lat="44.4543033" lon="10.9696633"><ele>137.0</ele><time>2026-05-02T08:02:18.998Z</time></trkpt><trkpt lat="44.45431" lon="10.9698583"><ele>137.25</ele><time>2026-05-02T08:02:19.995Z</time></trkpt><trkpt lat="44.454325" lon="10.9700583"><ele>137.5</ele><time>2026-05-02T08:02:20.995Z</time></trkpt><trkpt lat="44.4543417" lon="10.9702533"><ele>137.75</ele><time>2026-05-02T08:02:21.995Z</time></trkpt><trkpt lat="44.454355" lon="10.9704383"><ele>138.0</ele><time>2026-05-02T08:02:22.995Z</time></trkpt><trkpt lat="44.454365" lon="10.97062"><ele>138.0</ele><time>2026-05-02T08:02:23.997Z</time></trkpt><trkpt lat="44.4543783" lon="10.9707983"><ele>138.0</ele><time>2026-05-02T08:02:24.995Z</time></trkpt><trkpt lat="44.4543833" lon="10.9709717"><ele>138.0</ele><time>2026-05-02T08:02:25.996Z</time></trkpt><trkpt lat="44.454385" lon="10.971135"><ele>138.0</ele><time>2026-05-02T08:02:26.995Z</time></trkpt><trkpt lat="44.4543817" lon="10.97129"><ele>137.20000000000002</ele><time>2026-05-02T08:02:27.996Z</time></trkpt><trkpt lat="44.454375" lon="10.97144"><ele>136.4</ele><time>2026-05-02T08:02:28.997Z</time></trkpt><trkpt lat="44.4543683" lon="10.9715833"><ele>135.60000000000002</ele><time>2026-05-02T08:02:29.993Z</time></trkpt><trkpt lat="44.4543533" lon="10.9717167"><ele>134.8</ele><time>2026-05-02T08:02:30.995Z</time></trkpt><trkpt lat="44.454325" lon="10.9718417"><ele>134.0</ele><time>2026-05-02T08:02:31.995Z</time></trkpt><trkpt lat="44.4542833" lon="10.971955"><ele>133.8</ele><time>2026-05-02T08:02:32.994Z</time></trkpt><trkpt lat="44.4542217" lon="10.9720517"><ele>133.60000000000002</ele><time>2026-05-02T08:02:33.995Z</time></trkpt><trkpt lat="44.45414" lon="10.97213"><ele>133.4</ele><time>2026-05-02T08:02:34.995Z</time></trkpt><trkpt lat="44.4540333" lon="10.9721883"><ele>133.20000000000002</ele><time>2026-05-02T08:02:35.994Z</time></trkpt><trkpt lat="44.4539083" lon="10.9722433"><ele>133.0</ele><time>2026-05-02T08:02:36.994Z</time></trkpt><trkpt lat="44.4537733" lon="10.9722783"><ele>133.0</ele><time>2026-05-02T08:02:37.995Z</time></trkpt><trkpt lat="44.4536367" lon="10.972305"><ele>133.0</ele><time>2026-05-02T08:02:38.993Z</time></trkpt><trkpt lat="44.4535033" lon="10.9723133"><ele>133.0</ele><time>2026-05-02T08:02:39.996Z</time></trkpt><trkpt lat="44.4533783" lon="10.97231"><ele>133.0</ele><time>2026-05-02T08:02:40.995Z</time></trkpt><trkpt lat="44.4532683" lon="10.9722967"><ele>133.0</ele><time>2026-05-02T08:02:41.996Z</time></trkpt><trkpt lat="44.4531683" lon="10.9722717"><ele>133.0</ele><time>2026-05-02T08:02:42.996Z</time></trkpt><trkpt lat="44.4530767" lon="10.97224"><ele>133.0</ele><time>2026-05-02T08:02:43.995Z</time></trkpt><trkpt lat="44.452995" lon="10.9721917"><ele>133.0</ele><time>2026-05-02T08:02:44.997Z</time></trkpt><trkpt lat="44.4529133" lon="10.9721233"><ele>133.0</ele><time>2026-05-02T08:02:45.997Z</time></trkpt><trkpt lat="44.4528483" lon="10.9720117"><ele>135.5</ele><time>2026-05-02T08:02:46.995Z</time></trkpt><trkpt lat="44.4527783" lon="10.9718583"><ele>138.0</ele><time>2026-05-02T08:02:47.998Z</time></trkpt><trkpt lat="44.4527017" lon="10.9716867"><ele>140.5</ele><time>2026-05-02T08:02:48.995Z</time></trkpt><trkpt lat="44.4526133" lon="10.9715133"><ele>143.0</ele><time>2026-05-02T08:02:49.997Z</time></trkpt><trkpt lat="44.4525217" lon="10.9713483"><ele>143.0</ele><time>2026-05-02T08:02:50.996Z</time></trkpt><trkpt lat="44.4524317" lon="10.9712033"><ele>143.0</ele><time>2026-05-02T08:02:51.996Z</time></trkpt><trkpt lat="44.45235" lon="10.97108"><ele>143.0</ele><time>2026-05-02T08:02:52.995Z</time></trkpt><trkpt lat="44.4522667" lon="10.9709717"><ele>143.0</ele><time>2026-05-02T08:02:53.996Z</time></trkpt><trkpt lat="44.4521867" lon="10.97088"><ele>143.25</ele><time>2026-05-02T08:02:54.995Z</time></trkpt><trkpt lat="44.4520967" lon="10.9708033"><ele>143.5</ele><time>2026-05-02T08:02:55.994Z</time></trkpt><trkpt lat="44.4519983" lon="10.9707283"><ele>143.75</ele><time>2026-05-02T08:02:56.996Z</time></trkpt><trkpt lat="44.4518883" lon="10.9706783"><ele>144.0</ele><time>2026-05-02T08:02:57.995Z</time></trkpt><trkpt lat="44.4517633" lon="10.9706417"><ele>144.0</ele><time>2026-05-02T08:02:58.994Z</time></trkpt><trkpt lat="44.45164" lon="10.97062"><ele>144.0</ele><time>2026-05-02T08:02:59.995Z</time></trkpt><trkpt lat="44.4515167" lon="10.9706133"><ele>144.0</ele><time>2026-05-02T08:03:00.993Z</time></trkpt><trkpt lat="44.451395" lon="10.9706233"><ele>144.0</ele><time>2026-05-02T08:03:01.995Z</time></trkpt><trkpt lat="44.4512733" lon="10.9706617"><ele>144.0</ele><time>2026-05-02T08:03:02.996Z</time></trkpt><trkpt lat="44.4511533" lon="10.970715"><ele>144.0</ele><time>2026-05-02T08:03:03.993Z</time></trkpt><trkpt lat="44.4510367" lon="10.9707833"><ele>144.0</ele><time>2026-05-02T08:03:04.997Z</time></trkpt><trkpt lat="44.4509317" lon="10.9708633"><ele>144.0</ele><time>2026-05-02T08:03:05.995Z</time></trkpt><trkpt lat="44.4508333" lon="10.9709633"><ele>145.25</ele><time>2026-05-02T08:03:06.993Z</time></trkpt><trkpt lat="44.4507467" lon="10.9710817"><ele>146.5</ele><time>2026-05-02T08:03:07.995Z</time></trkpt><trkpt lat="44.4506733" lon="10.9712233"><ele>147.75</ele><time>2026-05-02T08:03:08.993Z</time></trkpt><trkpt lat="44.4506083" lon="10.97138"><ele>149.0</ele><time>2026-05-02T08:03:09.995Z</time></trkpt><trkpt lat="44.450545" lon="10.97155"><ele>149.0</ele><time>2026-05-02T08:03:10.994Z</time></trkpt><trkpt lat="44.4504833" lon="10.9717217"><ele>149.0</ele><time>2026-05-02T08:03:11.995Z</time></trkpt><trkpt lat="44.4504283" lon="10.971875"><ele>149.0</ele><time>2026-05-02T08:03:12.997Z</time></trkpt><trkpt lat="44.45038" lon="10.9720233"><ele>149.0</ele><time>2026-05-02T08:03:13.996Z</time></trkpt><trkpt lat="44.45033" lon="10.97217"><ele>149.0</ele><time>2026-05-02T08:03:14.997Z</time></trkpt><trkpt lat="44.4502783" lon="10.97231"><ele>149.0</ele><time>2026-05-02T08:03:15.997Z</time></trkpt><trkpt lat="44.4502233" lon="10.9724383"><ele>149.0</ele><time>2026-05-02T08:03:16.999Z</time></trkpt><trkpt lat="44.4501583" lon="10.9725517"><ele>149.0</ele><time>2026-05-02T08:03:17.996Z</time></trkpt><trkpt lat="44.45008" lon="10.972635"><ele>149.0</ele><time>2026-05-02T08:03:18.996Z</time></trkpt><trkpt lat="44.4499867" lon="10.9727017"><ele>150.8</ele><time>2026-05-02T08:03:19.997Z</time></trkpt><trkpt lat="44.4498833" lon="10.9727433"><ele>152.60000000000002</ele><time>2026-05-02T08:03:20.996Z</time></trkpt><trkpt lat="44.449785" lon="10.97277"><ele>154.4</ele><time>2026-05-02T08:03:21.996Z</time></trkpt><trkpt lat="44.449695" lon="10.972765"><ele>156.20000000000002</ele><time>2026-05-02T08:03:22.996Z</time></trkpt><trkpt lat="44.4496133" lon="10.9727467"><ele>158.0</ele><time>2026-05-02T08:03:23.995Z</time></trkpt><trkpt lat="44.4495467" lon="10.97271"><ele>158.83333333333331</ele><time>2026-05-02T08:03:25.001Z</time></trkpt><trkpt lat="44.449495" lon="10.97265"><ele>159.66666666666666</ele><time>2026-05-02T08:03:25.997Z</time></trkpt><trkpt lat="44.4494583" lon="10.9725683"><ele>160.5</ele><time>2026-05-02T08:03:26.996Z</time></trkpt><trkpt lat="44.4494533" lon="10.9724567"><ele>161.33333333333334</ele><time>2026-05-02T08:03:27.997Z</time></trkpt><trkpt lat="44.449475" lon="10.9723317"><ele>162.16666666666669</ele><time>2026-05-02T08:03:28.994Z</time></trkpt><trkpt lat="44.4495133" lon="10.9721783"><ele>163.0</ele><time>2026-05-02T08:03:29.994Z</time></trkpt><trkpt lat="44.449555" lon="10.9720283"><ele>160.0</ele><time>2026-05-02T08:03:30.995Z</time></trkpt><trkpt lat="44.449615" lon="10.971885"><ele>157.0</ele><time>2026-05-02T08:03:31.995Z</time></trkpt><trkpt lat="44.449675" lon="10.97175"><ele>154.0</ele><time>2026-05-02T08:03:32.994Z</time></trkpt><trkpt lat="44.449735" lon="10.9716283"><ele>151.0</ele><time>2026-05-02T08:03:33.996Z</time></trkpt><trkpt lat="44.4498283" lon="10.9715133"><ele>150.0</ele><time>2026-05-02T08:03:34.993Z</time></trkpt><trkpt lat="44.449925" lon="10.9713683"><ele>149.0</ele><time>2026-05-02T08:03:35.994Z</time></trkpt><trkpt lat="44.4500183" lon="10.97122"><ele>148.0</ele><time>2026-05-02T08:03:36.998Z</time></trkpt><trkpt lat="44.4501033" lon="10.971075"><ele>147.0</ele><time>2026-05-02T08:03:37.993Z</time></trkpt><trkpt lat="44.4501817" lon="10.97094"><ele>146.5</ele><time>2026-05-02T08:03:38.995Z</time></trkpt><trkpt lat="44.4502583" lon="10.9708233"><ele>146.0</ele><time>2026-05-02T08:03:39.994Z</time></trkpt><trkpt lat="44.4503283" lon="10.9707233"><ele>145.5</ele><time>2026-05-02T08:03:40.993Z</time></trkpt><trkpt lat="44.4503883" lon="10.9706417"><ele>145.0</ele><time>2026-05-02T08:03:41.994Z</time></trkpt><trkpt lat="44.450435" lon="10.9705633"><ele>144.5</ele><time>2026-05-02T08:03:42.996Z</time></trkpt><trkpt lat="44.450465" lon="10.9704733"><ele>144.0</ele><time>2026-05-02T08:03:43.995Z</time></trkpt><trkpt lat="44.4504817" lon="10.970385"><ele>144.0</ele><time>2026-05-02T08:03:44.997Z</time></trkpt><trkpt lat="44.4504733" lon="10.9702883"><ele>144.0</ele><time>2026-05-02T08:03:45.996Z</time></trkpt><trkpt lat="44.45041" lon="10.9701733"><ele>144.0</ele><time>2026-05-02T08:03:46.995Z</time></trkpt><trkpt lat="44.4503317" lon="10.970045"><ele>144.0</ele><time>2026-05-02T08:03:47.995Z</time></trkpt><trkpt lat="44.450245" lon="10.96992"><ele>144.0</ele><time>2026-05-02T08:03:48.996Z</time></trkpt><trkpt lat="44.45015" lon="10.96979"><ele>145.75</ele><time>2026-05-02T08:03:49.997Z</time></trkpt><trkpt lat="44.4500533" lon="10.96967"><ele>147.5</ele><time>2026-05-02T08:03:50.996Z</time></trkpt><trkpt lat="44.449965" lon="10.9695617"><ele>149.25</ele><time>2026-05-02T08:03:51.995Z</time></trkpt><trkpt lat="44.4498867" lon="10.9694533"><ele>151.0</ele><time>2026-05-02T08:03:52.998Z</time></trkpt><trkpt lat="44.4498217" lon="10.9693533"><ele>151.00000000000003</ele><time>2026-05-02T08:03:53.997Z</time></trkpt><trkpt lat="44.4497667" lon="10.9692667"><ele>151.0</ele><time>2026-05-02T08:03:54.995Z</time></trkpt><trkpt lat="44.4497217" lon="10.9691867"><ele>151.0</ele><time>2026-05-02T08:03:55.995Z</time></trkpt><trkpt lat="44.4496883" lon="10.9691117"><ele>151.0</ele><time>2026-05-02T08:03:56.995Z</time></trkpt><trkpt lat="44.4496667" lon="10.9690167"><ele>151.0</ele><time>2026-05-02T08:03:57.997Z</time></trkpt><trkpt lat="44.4496483" lon="10.9689217"><ele>151.00000000000003</ele><time>2026-05-02T08:03:58.993Z</time></trkpt><trkpt lat="44.449625" lon="10.9688233"><ele>151.0</ele><time>2026-05-02T08:03:59.995Z</time></trkpt><trkpt lat="44.4496017" lon="10.9687233"><ele>152.6</ele><time>2026-05-02T08:04:00.995Z</time></trkpt><trkpt lat="44.4495817" lon="10.9686183"><ele>154.2</ele><time>2026-05-02T08:04:01.994Z</time></trkpt><trkpt lat="44.4495617" lon="10.968505"><ele>155.8</ele><time>2026-05-02T08:04:02.993Z</time></trkpt><trkpt lat="44.4495367" lon="10.9683867"><ele>157.4</ele><time>2026-05-02T08:04:03.994Z</time></trkpt><trkpt lat="44.4495033" lon="10.968255"><ele>159.0</ele><time>2026-05-02T08:04:04.993Z</time></trkpt><trkpt lat="44.4494683" lon="10.9681167"><ele>159.0</ele><time>2026-05-02T08:04:05.994Z</time></trkpt><trkpt lat="44.4494217" lon="10.9679783"><ele>159.0</ele><time>2026-05-02T08:04:06.994Z</time></trkpt><trkpt lat="44.4493683" lon="10.9678417"><ele>159.0</ele><time>2026-05-02T08:04:07.993Z</time></trkpt><trkpt lat="44.4493133" lon="10.9677"><ele>159.0</ele><time>2026-05-02T08:04:08.996Z</time></trkpt><trkpt lat="44.4492617" lon="10.96756"><ele>159.0</ele><time>2026-05-02T08:04:09.996Z</time></trkpt><trkpt lat="44.4492117" lon="10.9674083"><ele>156.75</ele><time>2026-05-02T08:04:10.995Z</time></trkpt><trkpt lat="44.4491583" lon="10.967245"><ele>154.5</ele><time>2026-05-02T08:04:11.997Z</time></trkpt><trkpt lat="44.449105" lon="10.9670917"><ele>152.25</ele><time>2026-05-02T08:04:12.996Z</time></trkpt><trkpt lat="44.449055" lon="10.9669417"><ele>150.0</ele><time>2026-05-02T08:04:13.996Z</time></trkpt><trkpt lat="44.4490133" lon="10.966785"><ele>149.0</ele><time>2026-05-02T08:04:14.995Z</time></trkpt><trkpt lat="44.4489817" lon="10.96662"><ele>148.0</ele><time>2026-05-02T08:04:15.995Z</time></trkpt><trkpt lat="44.44896" lon="10.9664533"><ele>147.0</ele><time>2026-05-02T08:04:16.994Z</time></trkpt><trkpt lat="44.4489383" lon="10.9662917"><ele>146.0</ele><time>2026-05-02T08:04:17.996Z</time></trkpt><trkpt lat="44.4489117" lon="10.9661317"><ele>146.0</ele><time>2026-05-02T08:04:18.996Z</time></trkpt><trkpt lat="44.44888" lon="10.9659783"><ele>146.0</ele><time>2026-05-02T08:04:19.997Z</time></trkpt><trkpt lat="44.4488467" lon="10.9658317"><ele>146.0</ele><time>2026-05-02T08:04:20.995Z</time></trkpt><trkpt lat="44.44881" lon="10.9656883"><ele>146.0</ele><time>2026-05-02T08:04:21.996Z</time></trkpt><trkpt lat="44.448775" lon="10.9655367"><ele>146.0</ele><time>2026-05-02T08:04:22.996Z</time></trkpt><trkpt lat="44.448745" lon="10.9653717"><ele>149.75</ele><time>2026-05-02T08:04:23.996Z</time></trkpt><trkpt lat="44.4487267" lon="10.9651933"><ele>153.5</ele><time>2026-05-02T08:04:24.996Z</time></trkpt><trkpt lat="44.448725" lon="10.965005"><ele>157.25</ele><time>2026-05-02T08:04:25.996Z</time></trkpt><trkpt lat="44.4487367" lon="10.9648133"><ele>161.0</ele><time>2026-05-02T08:04:26.996Z</time></trkpt><trkpt lat="44.44876" lon="10.964635"><ele>161.0</ele><time>2026-05-02T08:04:27.994Z</time></trkpt><trkpt lat="44.4487867" lon="10.9644717"><ele>161.0</ele><time>2026-05-02T08:04:28.995Z</time></trkpt><trkpt lat="44.4488133" lon="10.9643183"><ele>161.0</ele><time>2026-05-02T08:04:29.994Z</time></trkpt><trkpt lat="44.4488417" lon="10.9641633"><ele>161.0</ele><time>2026-05-02T08:04:30.994Z</time></trkpt><trkpt lat="44.4488683" lon="10.963995"><ele>158.75</ele><time>2026-05-02T08:04:31.995Z</time></trkpt><trkpt lat="44.4488933" lon="10.963815"><ele>156.5</ele><time>2026-05-02T08:04:32.994Z</time></trkpt><trkpt lat="44.44891" lon="10.9636267"><ele>154.25</ele><time>2026-05-02T08:04:33.995Z</time></trkpt><trkpt lat="44.4489183" lon="10.9634333"><ele>152.0</ele><time>2026-05-02T08:04:34.994Z</time></trkpt><trkpt lat="44.4489183" lon="10.9632333"><ele>152.0</ele><time>2026-05-02T08:04:35.993Z</time></trkpt><trkpt lat="44.4489233" lon="10.96304"><ele>152.0</ele><time>2026-05-02T08:04:36.994Z</time></trkpt><trkpt lat="44.4489417" lon="10.9628583"><ele>152.0</ele><time>2026-05-02T08:04:37.994Z</time></trkpt><trkpt lat="44.4489683" lon="10.9626917"><ele>152.0</ele><time>2026-05-02T08:04:38.994Z</time></trkpt><trkpt lat="44.4489983" lon="10.9625417"><ele>152.5</ele><time>2026-05-02T08:04:39.994Z</time></trkpt><trkpt lat="44.4490233" lon="10.962405"><ele>153.0</ele><time>2026-05-02T08:04:40.996Z</time></trkpt><trkpt lat="44.4490433" lon="10.9622867"><ele>153.5</ele><time>2026-05-02T08:04:41.996Z</time></trkpt><trkpt lat="44.44906" lon="10.9621817"><ele>154.0</ele><time>2026-05-02T08:04:42.995Z</time></trkpt><trkpt lat="44.4490633" lon="10.96208"><ele>154.5</ele><time>2026-05-02T08:04:43.993Z</time></trkpt><trkpt lat="44.449045" lon="10.9619717"><ele>155.0</ele><time>2026-05-02T08:04:44.994Z</time></trkpt><trkpt lat="44.449" lon="10.9618567"><ele>155.0</ele><time>2026-05-02T08:04:45.994Z</time></trkpt><trkpt lat="44.4489333" lon="10.9617533"><ele>155.0</ele><time>2026-05-02T08:04:46.997Z</time></trkpt><trkpt lat="44.4488683" lon="10.9616533"><ele>155.0</ele><time>2026-05-02T08:04:47.993Z</time></trkpt><trkpt lat="44.44881" lon="10.96156"><ele>155.0</ele><time>2026-05-02T08:04:48.995Z</time></trkpt><trkpt lat="44.4487633" lon="10.961465"><ele>155.0</ele><time>2026-05-02T08:04:49.995Z</time></trkpt><trkpt lat="44.4487283" lon="10.9613633"><ele>155.0</ele><time>2026-05-02T08:04:50.994Z</time></trkpt><trkpt lat="44.4487117" lon="10.9612483"><ele>159.2</ele><time>2026-05-02T08:04:51.995Z</time></trkpt><trkpt lat="44.448705" lon="10.9611333"><ele>163.4</ele><time>2026-05-02T08:04:52.994Z</time></trkpt><trkpt lat="44.4486883" lon="10.9610233"><ele>167.60000000000002</ele><time>2026-05-02T08:04:53.995Z</time></trkpt><trkpt lat="44.4486567" lon="10.9609167"><ele>171.8</ele><time>2026-05-02T08:04:54.996Z</time></trkpt><trkpt lat="44.4486083" lon="10.9608033"><ele>176.0</ele><time>2026-05-02T08:04:55.995Z</time></trkpt><trkpt lat="44.44853" lon="10.96066"><ele>176.0</ele><time>2026-05-02T08:04:56.996Z</time></trkpt><trkpt lat="44.44845" lon="10.9604967"><ele>176.0</ele><time>2026-05-02T08:04:57.996Z</time></trkpt><trkpt lat="44.4483717" lon="10.9603317"><ele>176.0</ele><time>2026-05-02T08:04:58.996Z</time></trkpt><trkpt lat="44.4483117" lon="10.9601667"><ele>176.0</ele><time>2026-05-02T08:04:59.996Z</time></trkpt><trkpt lat="44.4482633" lon="10.9600083"><ele>174.0</ele><time>2026-05-02T08:05:00.996Z</time></trkpt><trkpt lat="44.448215" lon="10.9598667"><ele>172.0</ele><time>2026-05-02T08:05:01.995Z</time></trkpt><trkpt lat="44.448175" lon="10.9597283"><ele>170.0</ele><time>2026-05-02T08:05:02.996Z</time></trkpt><trkpt lat="44.4481417" lon="10.9595917"><ele>168.0</ele><time>2026-05-02T08:05:03.995Z</time></trkpt><trkpt lat="44.448115" lon="10.9594533"><ele>166.0</ele><time>2026-05-02T08:05:04.995Z</time></trkpt><trkpt lat="44.4480917" lon="10.9593217"><ele>166.0</ele><time>2026-05-02T08:05:05.996Z</time></trkpt><trkpt lat="44.4480767" lon="10.959205"><ele>166.0</ele><time>2026-05-02T08:05:06.994Z</time></trkpt><trkpt lat="44.4480617" lon="10.9590917"><ele>166.0</ele><time>2026-05-02T08:05:07.996Z</time></trkpt><trkpt lat="44.44805" lon="10.9589817"><ele>166.0</ele><time>2026-05-02T08:05:08.994Z</time></trkpt><trkpt lat="44.4480483" lon="10.9588767"><ele>166.0</ele><time>2026-05-02T08:05:09.995Z</time></trkpt><trkpt lat="44.4480533" lon="10.9587717"><ele>166.0</ele><time>2026-05-02T08:05:10.995Z</time></trkpt><trkpt lat="44.44807" lon="10.9586767"><ele>166.5</ele><time>2026-05-02T08:05:11.995Z</time></trkpt><trkpt lat="44.448105" lon="10.9586033"><ele>167.0</ele><time>2026-05-02T08:05:12.997Z</time></trkpt><trkpt lat="44.4481383" lon="10.9585267"><ele>167.5</ele><time>2026-05-02T08:05:13.996Z</time></trkpt><trkpt lat="44.4481383" lon="10.958375"><ele>168.0</ele><time>2026-05-02T08:05:15.996Z</time></trkpt><trkpt lat="44.4480967" lon="10.9582917"><ele>168.5</ele><time>2026-05-02T08:05:16.995Z</time></trkpt><trkpt lat="44.4480333" lon="10.9581933"><ele>169.0</ele><time>2026-05-02T08:05:17.995Z</time></trkpt><trkpt lat="44.4479567" lon="10.9580783"><ele>169.0</ele><time>2026-05-02T08:05:18.993Z</time></trkpt><trkpt lat="44.4478883" lon="10.95795"><ele>169.0</ele><time>2026-05-02T08:05:19.995Z</time></trkpt><trkpt lat="44.4478317" lon="10.9578133"><ele>169.0</ele><time>2026-05-02T08:05:20.994Z</time></trkpt><trkpt lat="44.447795" lon="10.9576717"><ele>169.0</ele><time>2026-05-02T08:05:21.994Z</time></trkpt><trkpt lat="44.44776" lon="10.9575167"><ele>167.75</ele><time>2026-05-02T08:05:22.994Z</time></trkpt><trkpt lat="44.447725" lon="10.9573567"><ele>166.5</ele><time>2026-05-02T08:05:23.996Z</time></trkpt><trkpt lat="44.4476883" lon="10.9572"><ele>165.25</ele><time>2026-05-02T08:05:24.995Z</time></trkpt><trkpt lat="44.447655" lon="10.9570333"><ele>164.0</ele><time>2026-05-02T08:05:25.996Z</time></trkpt><trkpt lat="44.4476317" lon="10.9568517"><ele>164.0</ele><time>2026-05-02T08:05:26.995Z</time></trkpt><trkpt lat="44.4476083" lon="10.956655"><ele>164.0</ele><time>2026-05-02T08:05:27.996Z</time></trkpt><trkpt lat="44.4475867" lon="10.9564467"><ele>164.0</ele><time>2026-05-02T08:05:28.995Z</time></trkpt><trkpt lat="44.4475667" lon="10.9562367"><ele>164.0</ele><time>2026-05-02T08:05:29.996Z</time></trkpt><trkpt lat="44.4475417" lon="10.95604"><ele>163.75</ele><time>2026-05-02T08:05:30.995Z</time></trkpt><trkpt lat="44.447515" lon="10.955855"><ele>163.5</ele><time>2026-05-02T08:05:31.993Z</time></trkpt><trkpt lat="44.4474883" lon="10.955675"><ele>163.25</ele><time>2026-05-02T08:05:32.996Z</time></trkpt><trkpt lat="44.44746" lon="10.9555017"><ele>163.0</ele><time>2026-05-02T08:05:33.995Z</time></trkpt><trkpt lat="44.44743" lon="10.9553217"><ele>163.0</ele><time>2026-05-02T08:05:34.996Z</time></trkpt><trkpt lat="44.4473983" lon="10.95514"><ele>163.0</ele><time>2026-05-02T08:05:35.996Z</time></trkpt><trkpt lat="44.44737" lon="10.95496"><ele>163.0</ele><time>2026-05-02T08:05:36.995Z</time></trkpt><trkpt lat="44.447345" lon="10.95478"><ele>163.0</ele><time>2026-05-02T08:05:37.995Z</time></trkpt><trkpt lat="44.44732" lon="10.9545983"><ele>162.5</ele><time>2026-05-02T08:05:38.996Z</time></trkpt><trkpt lat="44.4472933" lon="10.9544183"><ele>162.0</ele><time>2026-05-02T08:05:39.995Z</time></trkpt><trkpt lat="44.4472717" lon="10.95424"><ele>161.5</ele><time>2026-05-02T08:05:40.996Z</time></trkpt><trkpt lat="44.4472467" lon="10.95406"><ele>161.0</ele><time>2026-05-02T08:05:41.998Z</time></trkpt><trkpt lat="44.4472217" lon="10.9538783"><ele>161.0</ele><time>2026-05-02T08:05:42.995Z</time></trkpt><trkpt lat="44.4471933" lon="10.9537017"><ele>161.0</ele><time>2026-05-02T08:05:43.995Z</time></trkpt><trkpt lat="44.447165" lon="10.9535383"><ele>161.0</ele><time>2026-05-02T08:05:44.993Z</time></trkpt><trkpt lat="44.4471383" lon="10.9533917"><ele>161.0</ele><time>2026-05-02T08:05:45.995Z</time></trkpt><trkpt lat="44.447115" lon="10.9532517"><ele>164.5</ele><time>2026-05-02T08:05:46.994Z</time></trkpt><trkpt lat="44.4470933" lon="10.953105"><ele>168.0</ele><time>2026-05-02T08:05:47.994Z</time></trkpt><trkpt lat="44.44707" lon="10.9529417"><ele>171.5</ele><time>2026-05-02T08:05:48.995Z</time></trkpt><trkpt lat="44.4470467" lon="10.952765"><ele>175.0</ele><time>2026-05-02T08:05:49.995Z</time></trkpt><trkpt lat="44.4470217" lon="10.9525867"><ele>175.0</ele><time>2026-05-02T08:05:50.994Z</time></trkpt><trkpt lat="44.4470017" lon="10.9524217"><ele>175.0</ele><time>2026-05-02T08:05:51.994Z</time></trkpt><trkpt lat="44.44698" lon="10.952265"><ele>175.0</ele><time>2026-05-02T08:05:52.995Z</time></trkpt><trkpt lat="44.4469617" lon="10.9521133"><ele>175.0</ele><time>2026-05-02T08:05:53.995Z</time></trkpt><trkpt lat="44.4469417" lon="10.951985"><ele>175.0</ele><time>2026-05-02T08:05:54.997Z</time></trkpt><trkpt lat="44.44692" lon="10.9518683"><ele>175.0</ele><time>2026-05-02T08:05:55.994Z</time></trkpt><trkpt lat="44.44689" lon="10.9517583"><ele>175.0</ele><time>2026-05-02T08:05:56.994Z</time></trkpt><trkpt lat="44.446845" lon="10.9516633"><ele>175.0</ele><time>2026-05-02T08:05:57.994Z</time></trkpt><trkpt lat="44.44679" lon="10.9515867"><ele>175.0</ele><time>2026-05-02T08:05:58.993Z</time></trkpt><trkpt lat="44.4467183" lon="10.951535"><ele>175.0</ele><time>2026-05-02T08:05:59.995Z</time></trkpt><trkpt lat="44.44663" lon="10.9515133"><ele>175.0</ele><time>2026-05-02T08:06:00.996Z</time></trkpt><trkpt lat="44.4465333" lon="10.951505"><ele>175.4</ele><time>2026-05-02T08:06:01.997Z</time></trkpt><trkpt lat="44.44644" lon="10.9514867"><ele>175.8</ele><time>2026-05-02T08:06:02.995Z</time></trkpt><trkpt lat="44.4463467" lon="10.9514367"><ele>176.2</ele><time>2026-05-02T08:06:03.996Z</time></trkpt><trkpt lat="44.44625" lon="10.9513483"><ele>176.6</ele><time>2026-05-02T08:06:04.995Z</time></trkpt><trkpt lat="44.44615" lon="10.9512533"><ele>177.0</ele><time>2026-05-02T08:06:05.995Z</time></trkpt><trkpt lat="44.4460517" lon="10.9511633"><ele>180.6</ele><time>2026-05-02T08:06:06.996Z</time></trkpt><trkpt lat="44.4459583" lon="10.9510933"><ele>184.2</ele><time>2026-05-02T08:06:07.995Z</time></trkpt><trkpt lat="44.4458633" lon="10.951045"><ele>187.8</ele><time>2026-05-02T08:06:08.995Z</time></trkpt><trkpt lat="44.4457783" lon="10.95102"><ele>191.4</ele><time>2026-05-02T08:06:09.996Z</time></trkpt><trkpt lat="44.445695" lon="10.9510183"><ele>195.0</ele><time>2026-05-02T08:06:10.995Z</time></trkpt><trkpt lat="44.445615" lon="10.951035"><ele>195.0</ele><time>2026-05-02T08:06:11.997Z</time></trkpt><trkpt lat="44.4455533" lon="10.951065"><ele>195.0</ele><time>2026-05-02T08:06:12.997Z</time></trkpt><trkpt lat="44.4454317" lon="10.9510533"><ele>195.0</ele><time>2026-05-02T08:06:14.995Z</time></trkpt><trkpt lat="44.44533" lon="10.9509333"><ele>195.0</ele><time>2026-05-02T08:06:16.994Z</time></trkpt><trkpt lat="44.4452833" lon="10.9507983"><ele>195.0</ele><time>2026-05-02T08:06:17.996Z</time></trkpt><trkpt lat="44.4452283" lon="10.9506617"><ele>195.8</ele><time>2026-05-02T08:06:18.995Z</time></trkpt><trkpt lat="44.4451867" lon="10.9505233"><ele>196.6</ele><time>2026-05-02T08:06:19.996Z</time></trkpt><trkpt lat="44.4451633" lon="10.950385"><ele>197.39999999999998</ele><time>2026-05-02T08:06:20.995Z</time></trkpt><trkpt lat="44.4451433" lon="10.95024"><ele>198.2</ele><time>2026-05-02T08:06:21.995Z</time></trkpt><trkpt lat="44.44512" lon="10.950095"><ele>199.0</ele><time>2026-05-02T08:06:22.996Z</time></trkpt><trkpt lat="44.4450767" lon="10.9499567"><ele>199.0</ele><time>2026-05-02T08:06:23.997Z</time></trkpt><trkpt lat="44.4450233" lon="10.9498167"><ele>199.0</ele><time>2026-05-02T08:06:24.996Z</time></trkpt><trkpt lat="44.4449533" lon="10.949665"><ele>199.0</ele><time>2026-05-02T08:06:25.995Z</time></trkpt><trkpt lat="44.4448833" lon="10.949505"><ele>199.0</ele><time>2026-05-02T08:06:26.996Z</time></trkpt><trkpt lat="44.4448167" lon="10.9493433"><ele>197.25</ele><time>2026-05-02T08:06:27.996Z</time></trkpt><trkpt lat="44.4447533" lon="10.9491833"><ele>195.5</ele><time>2026-05-02T08:06:28.994Z</time></trkpt><trkpt lat="44.4447" lon="10.9490333"><ele>193.75</ele><time>2026-05-02T08:06:29.996Z</time></trkpt><trkpt lat="44.4446383" lon="10.9488833"><ele>192.0</ele><time>2026-05-02T08:06:30.994Z</time></trkpt><trkpt lat="44.4445617" lon="10.9487583"><ele>193.8</ele><time>2026-05-02T08:06:31.996Z</time></trkpt><trkpt lat="44.4444783" lon="10.9486483"><ele>195.6</ele><time>2026-05-02T08:06:32.995Z</time></trkpt><trkpt lat="44.4444033" lon="10.94855"><ele>197.4</ele><time>2026-05-02T08:06:33.996Z</time></trkpt><trkpt lat="44.4443483" lon="10.9484567"><ele>199.20000000000002</ele><time>2026-05-02T08:06:34.994Z</time></trkpt><trkpt lat="44.444305" lon="10.9483617"><ele>201.0</ele><time>2026-05-02T08:06:35.993Z</time></trkpt><trkpt lat="44.44426" lon="10.9482833"><ele>201.0</ele><time>2026-05-02T08:06:36.999Z</time></trkpt><trkpt lat="44.444205" lon="10.9482283"><ele>201.0</ele><time>2026-05-02T08:06:37.997Z</time></trkpt><trkpt lat="44.444135" lon="10.9482083"><ele>201.0</ele><time>2026-05-02T08:06:38.996Z</time></trkpt><trkpt lat="44.444045" lon="10.94824"><ele>201.0</ele><time>2026-05-02T08:06:39.995Z</time></trkpt><trkpt lat="44.4439417" lon="10.9483"><ele>201.0</ele><time>2026-05-02T08:06:40.993Z</time></trkpt><trkpt lat="44.44384" lon="10.9483417"><ele>203.4</ele><time>2026-05-02T08:06:41.994Z</time></trkpt><trkpt lat="44.44375" lon="10.9483717"><ele>205.8</ele><time>2026-05-02T08:06:42.997Z</time></trkpt><trkpt lat="44.4436683" lon="10.9483783"><ele>208.20000000000002</ele><time>2026-05-02T08:06:43.995Z</time></trkpt><trkpt lat="44.4436033" lon="10.9483633"><ele>210.60000000000002</ele><time>2026-05-02T08:06:45Z</time></trkpt><trkpt lat="44.4435117" lon="10.9483033"><ele>213.0</ele><time>2026-05-02T08:06:46.994Z</time></trkpt><trkpt lat="44.4435167" lon="10.9481217"><ele>213.0</ele><time>2026-05-02T08:06:48.995Z</time></trkpt><trkpt lat="44.4435083" lon="10.9479933"><ele>213.0</ele><time>2026-05-02T08:06:49.995Z</time></trkpt><trkpt lat="44.4434783" lon="10.947875"><ele>213.0</ele><time>2026-05-02T08:06:50.997Z</time></trkpt><trkpt lat="44.44344" lon="10.9477667"><ele>213.0</ele><time>2026-05-02T08:06:51.993Z</time></trkpt><trkpt lat="44.443385" lon="10.9476783"><ele>213.0</ele><time>2026-05-02T08:06:52.995Z</time></trkpt><trkpt lat="44.443325" lon="10.947615"><ele>213.0</ele><time>2026-05-02T08:06:53.995Z</time></trkpt><trkpt lat="44.4432433" lon="10.947565"><ele>213.83333333333334</ele><time>2026-05-02T08:06:54.997Z</time></trkpt><trkpt lat="44.4431567" lon="10.9475283"><ele>214.66666666666669</ele><time>2026-05-02T08:06:55.994Z</time></trkpt><trkpt lat="44.443065" lon="10.94751"><ele>215.5</ele><time>2026-05-02T08:06:56.995Z</time></trkpt><trkpt lat="44.44298" lon="10.9474917"><ele>216.33333333333334</ele><time>2026-05-02T08:06:57.995Z</time></trkpt><trkpt lat="44.4429133" lon="10.9474633"><ele>217.16666666666669</ele><time>2026-05-02T08:06:58.995Z</time></trkpt><trkpt lat="44.4428333" lon="10.94739"><ele>218.0</ele><time>2026-05-02T08:07:00.995Z</time></trkpt><trkpt lat="44.44281" lon="10.9472983"><ele>218.00000000000003</ele><time>2026-05-02T08:07:02.995Z</time></trkpt><trkpt lat="44.44279" lon="10.9472033"><ele>218.0</ele><time>2026-05-02T08:09:10.993Z</time></trkpt><trkpt lat="44.4427783" lon="10.9470933"><ele>218.0</ele><time>2026-05-02T08:09:12.993Z</time></trkpt><trkpt lat="44.442775" lon="10.94695"><ele>218.0</ele><time>2026-05-02T08:09:14.993Z</time></trkpt><trkpt lat="44.4428217" lon="10.9467933"><ele>218.00000000000003</ele><time>2026-05-02T08:09:16.993Z</time></trkpt><trkpt lat="44.4428467" lon="10.94671"><ele>218.0</ele><time>2026-05-02T08:09:17.995Z</time></trkpt><trkpt lat="44.44284" lon="10.946585"><ele>216.33333333333334</ele><time>2026-05-02T08:09:19.997Z</time></trkpt><trkpt lat="44.4427633" lon="10.94651"><ele>214.66666666666669</ele><time>2026-05-02T08:09:21.993Z</time></trkpt><trkpt lat="44.4427" lon="10.94648"><ele>213.0</ele><time>2026-05-02T08:09:23.997Z</time></trkpt><trkpt lat="44.442605" lon="10.9464683"><ele>211.33333333333331</ele><time>2026-05-02T08:09:53.995Z</time></trkpt><trkpt lat="44.4425367" lon="10.946485"><ele>209.66666666666666</ele><time>2026-05-02T08:09:54.995Z</time></trkpt><trkpt lat="44.4424633" lon="10.9465083"><ele>208.0</ele><time>2026-05-02T08:09:55.996Z</time></trkpt><trkpt lat="44.4423883" lon="10.9465317"><ele>207.99999999999997</ele><time>2026-05-02T08:09:56.996Z</time></trkpt><trkpt lat="44.4423167" lon="10.9465567"><ele>208.0</ele><time>2026-05-02T08:09:57.996Z</time></trkpt><trkpt lat="44.4422017" lon="10.9465733"><ele>208.0</ele><time>2026-05-02T08:09:59.998Z</time></trkpt><trkpt lat="44.4420917" lon="10.94653"><ele>208.0</ele><time>2026-05-02T08:10:01.997Z</time></trkpt><trkpt lat="44.4420433" lon="10.94647"><ele>207.99999999999997</ele><time>2026-05-02T08:10:02.994Z</time></trkpt><trkpt lat="44.4420033" lon="10.946395"><ele>208.0</ele><time>2026-05-02T08:10:03.995Z</time></trkpt><trkpt lat="44.44197" lon="10.9463033"><ele>210.2</ele><time>2026-05-02T08:10:04.993Z</time></trkpt><trkpt lat="44.4419467" lon="10.9461717"><ele>212.4</ele><time>2026-05-02T08:10:05.994Z</time></trkpt><trkpt lat="44.4419333" lon="10.946015"><ele>214.59999999999997</ele><time>2026-05-02T08:10:06.994Z</time></trkpt><trkpt lat="44.4419233" lon="10.9458817"><ele>216.79999999999998</ele><time>2026-05-02T08:10:07.993Z</time></trkpt><trkpt lat="44.4419183" lon="10.9457667"><ele>219.0</ele><time>2026-05-02T08:10:08.994Z</time></trkpt><trkpt lat="44.44191" lon="10.94566"><ele>219.0</ele><time>2026-05-02T08:10:09.997Z</time></trkpt><trkpt lat="44.4418967" lon="10.9455667"><ele>219.0</ele><time>2026-05-02T08:10:10.994Z</time></trkpt><trkpt lat="44.4418667" lon="10.9454733"><ele>219.0</ele><time>2026-05-02T08:10:11.997Z</time></trkpt><trkpt lat="44.4418267" lon="10.9453883"><ele>219.0</ele><time>2026-05-02T08:10:12.995Z</time></trkpt><trkpt lat="44.44179" lon="10.9453033"><ele>219.0</ele><time>2026-05-02T08:10:13.995Z</time></trkpt><trkpt lat="44.4417417" lon="10.9452267"><ele>219.0</ele><time>2026-05-02T08:10:14.996Z</time></trkpt><trkpt lat="44.44168" lon="10.9451583"><ele>219.0</ele><time>2026-05-02T08:10:15.996Z</time></trkpt><trkpt lat="44.4416133" lon="10.9450983"><ele>220.0</ele><time>2026-05-02T08:10:16.994Z</time></trkpt><trkpt lat="44.4415417" lon="10.94503"><ele>221.0</ele><time>2026-05-02T08:10:17.997Z</time></trkpt><trkpt lat="44.441475" lon="10.9449583"><ele>222.0</ele><time>2026-05-02T08:10:18.995Z</time></trkpt><trkpt lat="44.441405" lon="10.944895"><ele>223.0</ele><time>2026-05-02T08:10:19.998Z</time></trkpt><trkpt lat="44.44133" lon="10.944835"><ele>224.0</ele><time>2026-05-02T08:10:20.997Z</time></trkpt><trkpt lat="44.4412483" lon="10.9447783"><ele>225.0</ele><time>2026-05-02T08:10:21.997Z</time></trkpt><trkpt lat="44.4411517" lon="10.9447183"><ele>225.0</ele><time>2026-05-02T08:10:22.996Z</time></trkpt><trkpt lat="44.441045" lon="10.944655"><ele>225.0</ele><time>2026-05-02T08:10:23.996Z</time></trkpt><trkpt lat="44.4409433" lon="10.9445833"><ele>225.0</ele><time>2026-05-02T08:10:24.997Z</time></trkpt><trkpt lat="44.4408383" lon="10.944505"><ele>225.0</ele><time>2026-05-02T08:10:25.996Z</time></trkpt><trkpt lat="44.4407433" lon="10.9444183"><ele>225.0</ele><time>2026-05-02T08:10:26.996Z</time></trkpt><trkpt lat="44.4406617" lon="10.9443367"><ele>225.0</ele><time>2026-05-02T08:10:27.995Z</time></trkpt><trkpt lat="44.4405817" lon="10.9442567"><ele>225.0</ele><time>2026-05-02T08:10:28.994Z</time></trkpt><trkpt lat="44.4405" lon="10.9441833"><ele>225.0</ele><time>2026-05-02T08:10:29.995Z</time></trkpt><trkpt lat="44.4404167" lon="10.9441117"><ele>225.0</ele><time>2026-05-02T08:10:30.997Z</time></trkpt><trkpt lat="44.4403233" lon="10.9440467"><ele>224.5</ele><time>2026-05-02T08:10:31.995Z</time></trkpt><trkpt lat="44.4402333" lon="10.943985"><ele>224.0</ele><time>2026-05-02T08:10:32.995Z</time></trkpt><trkpt lat="44.4401483" lon="10.943945"><ele>223.5</ele><time>2026-05-02T08:10:33.994Z</time></trkpt><trkpt lat="44.440065" lon="10.9439183"><ele>223.0</ele><time>2026-05-02T08:10:34.993Z</time></trkpt><trkpt lat="44.4399817" lon="10.943885"><ele>222.5</ele><time>2026-05-02T08:10:35.996Z</time></trkpt><trkpt lat="44.4399067" lon="10.9438517"><ele>222.0</ele><time>2026-05-02T08:10:36.994Z</time></trkpt><trkpt lat="44.4398367" lon="10.9438133"><ele>222.0</ele><time>2026-05-02T08:10:37.996Z</time></trkpt><trkpt lat="44.4397667" lon="10.9437667"><ele>222.0</ele><time>2026-05-02T08:10:38.996Z</time></trkpt><trkpt lat="44.4397017" lon="10.9437167"><ele>222.0</ele><time>2026-05-02T08:10:39.996Z</time></trkpt><trkpt lat="44.4396433" lon="10.94366"><ele>222.0</ele><time>2026-05-02T08:10:40.995Z</time></trkpt><trkpt lat="44.43959" lon="10.9435983"><ele>222.0</ele><time>2026-05-02T08:10:41.994Z</time></trkpt><trkpt lat="44.439535" lon="10.943545"><ele>222.0</ele><time>2026-05-02T08:10:42.994Z</time></trkpt><trkpt lat="44.4394683" lon="10.9435033"><ele>222.0</ele><time>2026-05-02T08:10:43.994Z</time></trkpt><trkpt lat="44.4394033" lon="10.9434767"><ele>221.16666666666666</ele><time>2026-05-02T08:10:44.994Z</time></trkpt><trkpt lat="44.4393217" lon="10.9434667"><ele>220.33333333333331</ele><time>2026-05-02T08:10:45.993Z</time></trkpt><trkpt lat="44.4392483" lon="10.9434433"><ele>219.5</ele><time>2026-05-02T08:10:46.996Z</time></trkpt><trkpt lat="44.43918" lon="10.9434117"><ele>218.66666666666666</ele><time>2026-05-02T08:10:47.995Z</time></trkpt><trkpt lat="44.439115" lon="10.9433583"><ele>217.83333333333331</ele><time>2026-05-02T08:10:48.994Z</time></trkpt><trkpt lat="44.4390533" lon="10.943285"><ele>217.0</ele><time>2026-05-02T08:10:49.993Z</time></trkpt><trkpt lat="44.4389883" lon="10.9432"><ele>216.99999999999997</ele><time>2026-05-02T08:10:50.994Z</time></trkpt><trkpt lat="44.4389267" lon="10.9431233"><ele>217.0</ele><time>2026-05-02T08:10:51.994Z</time></trkpt><trkpt lat="44.43886" lon="10.9430567"><ele>217.0</ele><time>2026-05-02T08:10:52.994Z</time></trkpt><trkpt lat="44.4387917" lon="10.943005"><ele>217.0</ele><time>2026-05-02T08:10:53.993Z</time></trkpt><trkpt lat="44.4387217" lon="10.9429717"><ele>216.99999999999997</ele><time>2026-05-02T08:10:54.998Z</time></trkpt><trkpt lat="44.4386417" lon="10.9429717"><ele>217.0</ele><time>2026-05-02T08:10:55.993Z</time></trkpt><trkpt lat="44.4385717" lon="10.9429917"><ele>217.83333333333331</ele><time>2026-05-02T08:10:56.995Z</time></trkpt><trkpt lat="44.4385017" lon="10.9430233"><ele>218.66666666666666</ele><time>2026-05-02T08:10:57.996Z</time></trkpt><trkpt lat="44.438435" lon="10.9430483"><ele>219.5</ele><time>2026-05-02T08:10:58.994Z</time></trkpt><trkpt lat="44.4383633" lon="10.9430833"><ele>220.33333333333331</ele><time>2026-05-02T08:10:59.996Z</time></trkpt><trkpt lat="44.4382917" lon="10.9431033"><ele>221.16666666666666</ele><time>2026-05-02T08:11:00.994Z</time></trkpt><trkpt lat="44.4382267" lon="10.94311"><ele>222.0</ele><time>2026-05-02T08:11:01.996Z</time></trkpt><trkpt lat="44.438125" lon="10.9430783"><ele>222.0</ele><time>2026-05-02T08:11:03.995Z</time></trkpt><trkpt lat="44.4380467" lon="10.94295"><ele>222.0</ele><time>2026-05-02T08:11:05.998Z</time></trkpt><trkpt lat="44.4380133" lon="10.9428633"><ele>222.0</ele><time>2026-05-02T08:11:06.996Z</time></trkpt><trkpt lat="44.4379933" lon="10.94277"><ele>222.0</ele><time>2026-05-02T08:11:07.996Z</time></trkpt><trkpt lat="44.437965" lon="10.942675"><ele>222.0</ele><time>2026-05-02T08:11:08.996Z</time></trkpt><trkpt lat="44.4379317" lon="10.9425683"><ele>222.0</ele><time>2026-05-02T08:11:09.996Z</time></trkpt><trkpt lat="44.4379067" lon="10.9424533"><ele>222.33333333333334</ele><time>2026-05-02T08:11:10.997Z</time></trkpt><trkpt lat="44.4378833" lon="10.9423417"><ele>222.66666666666669</ele><time>2026-05-02T08:11:11.996Z</time></trkpt><trkpt lat="44.43786" lon="10.9422283"><ele>223.0</ele><time>2026-05-02T08:11:12.997Z</time></trkpt><trkpt lat="44.43783" lon="10.94212"><ele>223.33333333333334</ele><time>2026-05-02T08:11:13.996Z</time></trkpt><trkpt lat="44.437795" lon="10.9420183"><ele>223.66666666666669</ele><time>2026-05-02T08:11:14.993Z</time></trkpt><trkpt lat="44.4377467" lon="10.9419233"><ele>224.0</ele><time>2026-05-02T08:11:15.993Z</time></trkpt><trkpt lat="44.43769" lon="10.941835"><ele>224.0</ele><time>2026-05-02T08:11:16.994Z</time></trkpt><trkpt lat="44.4376217" lon="10.9417583"><ele>223.99999999999997</ele><time>2026-05-02T08:11:17.995Z</time></trkpt><trkpt lat="44.4375417" lon="10.94169"><ele>223.99999999999997</ele><time>2026-05-02T08:11:18.994Z</time></trkpt><trkpt lat="44.4374583" lon="10.9416333"><ele>224.0</ele><time>2026-05-02T08:11:19.994Z</time></trkpt><trkpt lat="44.4373717" lon="10.941565"><ele>224.0</ele><time>2026-05-02T08:11:20.994Z</time></trkpt><trkpt lat="44.43729" lon="10.9414917"><ele>225.2</ele><time>2026-05-02T08:11:21.993Z</time></trkpt><trkpt lat="44.437215" lon="10.94143"><ele>226.39999999999998</ele><time>2026-05-02T08:11:22.995Z</time></trkpt><trkpt lat="44.43714" lon="10.941365"><ele>227.6</ele><time>2026-05-02T08:11:23.994Z</time></trkpt><trkpt lat="44.4370583" lon="10.9412917"><ele>228.8</ele><time>2026-05-02T08:11:24.993Z</time></trkpt><trkpt lat="44.4369817" lon="10.9412183"><ele>230.0</ele><time>2026-05-02T08:11:25.997Z</time></trkpt><trkpt lat="44.43691" lon="10.941155"><ele>230.0</ele><time>2026-05-02T08:11:26.997Z</time></trkpt><trkpt lat="44.4368383" lon="10.94108"><ele>230.0</ele><time>2026-05-02T08:11:27.993Z</time></trkpt><trkpt lat="44.43676" lon="10.941005"><ele>230.0</ele><time>2026-05-02T08:11:28.993Z</time></trkpt><trkpt lat="44.43668" lon="10.9409267"><ele>230.0</ele><time>2026-05-02T08:11:29.993Z</time></trkpt><trkpt lat="44.4366083" lon="10.9408517"><ele>230.0</ele><time>2026-05-02T08:11:30.994Z</time></trkpt><trkpt lat="44.4365417" lon="10.9407767"><ele>230.33333333333334</ele><time>2026-05-02T08:11:31.995Z</time></trkpt><trkpt lat="44.4364833" lon="10.9407"><ele>230.66666666666669</ele><time>2026-05-02T08:11:32.995Z</time></trkpt><trkpt lat="44.4364333" lon="10.9406117"><ele>231.0</ele><time>2026-05-02T08:11:33.996Z</time></trkpt><trkpt lat="44.4363917" lon="10.94052"><ele>231.33333333333331</ele><time>2026-05-02T08:11:34.995Z</time></trkpt><trkpt lat="44.4363517" lon="10.9404283"><ele>231.66666666666666</ele><time>2026-05-02T08:11:35.995Z</time></trkpt><trkpt lat="44.4363083" lon="10.940335"><ele>232.0</ele><time>2026-05-02T08:11:36.996Z</time></trkpt><trkpt lat="44.4362633" lon="10.9402517"><ele>231.99999999999997</ele><time>2026-05-02T08:11:37.996Z</time></trkpt><trkpt lat="44.4362133" lon="10.9401733"><ele>232.0</ele><time>2026-05-02T08:11:38.996Z</time></trkpt><trkpt lat="44.4361517" lon="10.940095"><ele>232.0</ele><time>2026-05-02T08:11:39.997Z</time></trkpt><trkpt lat="44.4360867" lon="10.9400167"><ele>232.0</ele><time>2026-05-02T08:11:40.996Z</time></trkpt><trkpt lat="44.436015" lon="10.9399483"><ele>231.99999999999997</ele><time>2026-05-02T08:11:41.996Z</time></trkpt><trkpt lat="44.4359367" lon="10.9398833"><ele>232.0</ele><time>2026-05-02T08:11:42.996Z</time></trkpt><trkpt lat="44.4358567" lon="10.939825"><ele>231.0</ele><time>2026-05-02T08:11:43.996Z</time></trkpt><trkpt lat="44.435775" lon="10.9397717"><ele>230.0</ele><time>2026-05-02T08:11:44.997Z</time></trkpt><trkpt lat="44.4356867" lon="10.93971"><ele>229.0</ele><time>2026-05-02T08:11:45.996Z</time></trkpt><trkpt lat="44.4356017" lon="10.93965"><ele>228.0</ele><time>2026-05-02T08:11:46.996Z</time></trkpt><trkpt lat="44.435525" lon="10.9395867"><ele>227.0</ele><time>2026-05-02T08:11:47.997Z</time></trkpt><trkpt lat="44.43546" lon="10.9395233"><ele>227.0</ele><time>2026-05-02T08:11:48.995Z</time></trkpt><trkpt lat="44.4354033" lon="10.9394517"><ele>227.00000000000003</ele><time>2026-05-02T08:11:49.996Z</time></trkpt><trkpt lat="44.4353483" lon="10.9393733"><ele>227.0</ele><time>2026-05-02T08:11:50.995Z</time></trkpt><trkpt lat="44.435295" lon="10.9393033"><ele>227.0</ele><time>2026-05-02T08:11:51.998Z</time></trkpt><trkpt lat="44.43524" lon="10.939245"><ele>227.00000000000003</ele><time>2026-05-02T08:11:52.996Z</time></trkpt><trkpt lat="44.43518" lon="10.9391983"><ele>227.0</ele><time>2026-05-02T08:11:53.997Z</time></trkpt><trkpt lat="44.4351167" lon="10.9391783"><ele>227.0</ele><time>2026-05-02T08:11:54.995Z</time></trkpt><trkpt lat="44.4350467" lon="10.9391967"><ele>227.0</ele><time>2026-05-02T08:11:55.996Z</time></trkpt><trkpt lat="44.4349733" lon="10.9392267"><ele>227.00000000000003</ele><time>2026-05-02T08:11:56.995Z</time></trkpt><trkpt lat="44.4349" lon="10.9392567"><ele>227.0</ele><time>2026-05-02T08:11:57.996Z</time></trkpt><trkpt lat="44.43483" lon="10.939285"><ele>227.0</ele><time>2026-05-02T08:11:58.995Z</time></trkpt><trkpt lat="44.4347567" lon="10.9393033"><ele>227.00000000000003</ele><time>2026-05-02T08:11:59.996Z</time></trkpt><trkpt lat="44.4346817" lon="10.9393217"><ele>227.0</ele><time>2026-05-02T08:12:00.999Z</time></trkpt><trkpt lat="44.43461" lon="10.9393367"><ele>227.0</ele><time>2026-05-02T08:12:01.997Z</time></trkpt><trkpt lat="44.4345367" lon="10.9393383"><ele>227.83333333333334</ele><time>2026-05-02T08:12:02.995Z</time></trkpt><trkpt lat="44.4344733" lon="10.939335"><ele>228.66666666666669</ele><time>2026-05-02T08:12:03.997Z</time></trkpt><trkpt lat="44.4343717" lon="10.9392567"><ele>229.5</ele><time>2026-05-02T08:12:05.996Z</time></trkpt><trkpt lat="44.4343267" lon="10.9391933"><ele>230.33333333333331</ele><time>2026-05-02T08:12:06.995Z</time></trkpt><trkpt lat="44.4342883" lon="10.939105"><ele>231.16666666666666</ele><time>2026-05-02T08:12:07.996Z</time></trkpt><trkpt lat="44.43424" lon="10.9389883"><ele>232.0</ele><time>2026-05-02T08:12:08.997Z</time></trkpt><trkpt lat="44.4341983" lon="10.9388783"><ele>229.83333333333331</ele><time>2026-05-02T08:12:09.995Z</time></trkpt><trkpt lat="44.4341633" lon="10.9387667"><ele>227.66666666666666</ele><time>2026-05-02T08:12:10.993Z</time></trkpt><trkpt lat="44.434135" lon="10.9386417"><ele>225.5</ele><time>2026-05-02T08:12:11.998Z</time></trkpt><trkpt lat="44.4341133" lon="10.9385167"><ele>223.33333333333331</ele><time>2026-05-02T08:12:12.995Z</time></trkpt><trkpt lat="44.4341017" lon="10.938395"><ele>221.16666666666666</ele><time>2026-05-02T08:12:13.996Z</time></trkpt><trkpt lat="44.43409" lon="10.938275"><ele>219.0</ele><time>2026-05-02T08:12:14.993Z</time></trkpt><trkpt lat="44.434085" lon="10.9381667"><ele>217.0</ele><time>2026-05-02T08:12:15.996Z</time></trkpt><trkpt lat="44.4340833" lon="10.93807"><ele>215.0</ele><time>2026-05-02T08:12:16.994Z</time></trkpt><trkpt lat="44.43407" lon="10.9379717"><ele>213.0</ele><time>2026-05-02T08:12:17.997Z</time></trkpt><trkpt lat="44.434005" lon="10.93782"><ele>211.0</ele><time>2026-05-02T08:12:19.993Z</time></trkpt><trkpt lat="44.4339533" lon="10.93774"><ele>209.0</ele><time>2026-05-02T08:12:20.994Z</time></trkpt><trkpt lat="44.4338933" lon="10.9376483"><ele>207.0</ele><time>2026-05-02T08:12:21.997Z</time></trkpt><trkpt lat="44.43384" lon="10.937535"><ele>206.0</ele><time>2026-05-02T08:12:22.996Z</time></trkpt><trkpt lat="44.4337867" lon="10.9374133"><ele>205.0</ele><time>2026-05-02T08:12:23.995Z</time></trkpt><trkpt lat="44.43374" lon="10.9373"><ele>204.0</ele><time>2026-05-02T08:12:24.995Z</time></trkpt><trkpt lat="44.4336933" lon="10.937195"><ele>203.0</ele><time>2026-05-02T08:12:25.995Z</time></trkpt><trkpt lat="44.4336517" lon="10.9371"><ele>202.0</ele><time>2026-05-02T08:12:26.994Z</time></trkpt><trkpt lat="44.4336017" lon="10.9370217"><ele>201.0</ele><time>2026-05-02T08:12:27.994Z</time></trkpt><trkpt lat="44.4335517" lon="10.936955"><ele>201.0</ele><time>2026-05-02T08:12:28.998Z</time></trkpt><trkpt lat="44.4334933" lon="10.936905"><ele>201.0</ele><time>2026-05-02T08:12:29.994Z</time></trkpt><trkpt lat="44.433425" lon="10.9368783"><ele>201.0</ele><time>2026-05-02T08:12:30.994Z</time></trkpt><trkpt lat="44.433355" lon="10.9368633"><ele>201.0</ele><time>2026-05-02T08:12:31.996Z</time></trkpt><trkpt lat="44.4332783" lon="10.936865"><ele>201.0</ele><time>2026-05-02T08:12:32.997Z</time></trkpt><trkpt lat="44.4332017" lon="10.936885"><ele>201.0</ele><time>2026-05-02T08:12:33.996Z</time></trkpt><trkpt lat="44.4331367" lon="10.9369217"><ele>201.0</ele><time>2026-05-02T08:12:34.995Z</time></trkpt><trkpt lat="44.433075" lon="10.93697"><ele>201.0</ele><time>2026-05-02T08:12:35.996Z</time></trkpt><trkpt lat="44.433015" lon="10.9370533"><ele>201.0</ele><time>2026-05-02T08:12:36.997Z</time></trkpt><trkpt lat="44.4329433" lon="10.9371533"><ele>201.0</ele><time>2026-05-02T08:12:37.996Z</time></trkpt><trkpt lat="44.4328717" lon="10.9372383"><ele>201.0</ele><time>2026-05-02T08:12:38.996Z</time></trkpt><trkpt lat="44.43279" lon="10.9373267"><ele>201.0</ele><time>2026-05-02T08:12:39.996Z</time></trkpt><trkpt lat="44.4326983" lon="10.9374317"><ele>199.4</ele><time>2026-05-02T08:12:40.993Z</time></trkpt><trkpt lat="44.432615" lon="10.9375167"><ele>197.8</ele><time>2026-05-02T08:12:41.993Z</time></trkpt><trkpt lat="44.43253" lon="10.937595"><ele>196.20000000000002</ele><time>2026-05-02T08:12:42.994Z</time></trkpt><trkpt lat="44.4324433" lon="10.9376767"><ele>194.60000000000002</ele><time>2026-05-02T08:12:43.993Z</time></trkpt><trkpt lat="44.43236" lon="10.9377483"><ele>193.0</ele><time>2026-05-02T08:12:44.995Z</time></trkpt><trkpt lat="44.43228" lon="10.9378133"><ele>193.33333333333331</ele><time>2026-05-02T08:12:45.997Z</time></trkpt><trkpt lat="44.432205" lon="10.93788"><ele>193.66666666666666</ele><time>2026-05-02T08:12:46.994Z</time></trkpt><trkpt lat="44.4321367" lon="10.9379533"><ele>194.0</ele><time>2026-05-02T08:12:47.995Z</time></trkpt><trkpt lat="44.4320783" lon="10.9380367"><ele>194.33333333333331</ele><time>2026-05-02T08:12:48.994Z</time></trkpt><trkpt lat="44.4320217" lon="10.9381317"><ele>194.66666666666666</ele><time>2026-05-02T08:12:49.996Z</time></trkpt><trkpt lat="44.4319633" lon="10.93823"><ele>195.0</ele><time>2026-05-02T08:12:50.998Z</time></trkpt><trkpt lat="44.4318983" lon="10.9383183"><ele>197.6</ele><time>2026-05-02T08:12:51.995Z</time></trkpt><trkpt lat="44.4318267" lon="10.9383917"><ele>200.2</ele><time>2026-05-02T08:12:52.994Z</time></trkpt><trkpt lat="44.4317517" lon="10.9384483"><ele>202.8</ele><time>2026-05-02T08:12:53.995Z</time></trkpt><trkpt lat="44.4316683" lon="10.9384967"><ele>205.4</ele><time>2026-05-02T08:12:54.995Z</time></trkpt><trkpt lat="44.4315817" lon="10.938555"><ele>208.0</ele><time>2026-05-02T08:12:55.994Z</time></trkpt><trkpt lat="44.4315033" lon="10.9386217"><ele>207.99999999999997</ele><time>2026-05-02T08:12:56.993Z</time></trkpt><trkpt lat="44.431435" lon="10.9386867"><ele>208.0</ele><time>2026-05-02T08:12:57.993Z</time></trkpt><trkpt lat="44.43137" lon="10.9387433"><ele>208.0</ele><time>2026-05-02T08:12:58.995Z</time></trkpt><trkpt lat="44.4313067" lon="10.938785"><ele>208.0</ele><time>2026-05-02T08:12:59.997Z</time></trkpt><trkpt lat="44.4312" lon="10.9387983"><ele>207.99999999999997</ele><time>2026-05-02T08:13:01.995Z</time></trkpt><trkpt lat="44.4311117" lon="10.93873"><ele>208.0</ele><time>2026-05-02T08:13:04Z</time></trkpt><trkpt lat="44.4310267" lon="10.9386433"><ele>208.16666666666666</ele><time>2026-05-02T08:13:05.999Z</time></trkpt><trkpt lat="44.43099" lon="10.9385267"><ele>208.33333333333331</ele><time>2026-05-02T08:13:07.996Z</time></trkpt><trkpt lat="44.4310283" lon="10.9384"><ele>208.5</ele><time>2026-05-02T08:13:09.993Z</time></trkpt><trkpt lat="44.4310567" lon="10.93832"><ele>208.66666666666669</ele><time>2026-05-02T08:13:10.994Z</time></trkpt><trkpt lat="44.4310883" lon="10.9381567"><ele>208.83333333333334</ele><time>2026-05-02T08:13:12.996Z</time></trkpt><trkpt lat="44.431105" lon="10.9380683"><ele>209.0</ele><time>2026-05-02T08:13:13.994Z</time></trkpt><trkpt lat="44.4311267" lon="10.9378867"><ele>209.0</ele><time>2026-05-02T08:13:16Z</time></trkpt><trkpt lat="44.4311383" lon="10.9377983"><ele>209.0</ele><time>2026-05-02T08:13:16.997Z</time></trkpt><trkpt lat="44.43119" lon="10.937635"><ele>209.0</ele><time>2026-05-02T08:13:18.993Z</time></trkpt><trkpt lat="44.4312217" lon="10.9375333"><ele>209.0</ele><time>2026-05-02T08:13:19.993Z</time></trkpt><trkpt lat="44.43125" lon="10.9374117"><ele>209.0</ele><time>2026-05-02T08:13:20.993Z</time></trkpt><trkpt lat="44.4312767" lon="10.9372833"><ele>210.00000000000003</ele><time>2026-05-02T08:13:21.994Z</time></trkpt><trkpt lat="44.4313033" lon="10.9371583"><ele>211.0</ele><time>2026-05-02T08:13:22.996Z</time></trkpt><trkpt lat="44.4313317" lon="10.9370433"><ele>212.0</ele><time>2026-05-02T08:13:23.995Z</time></trkpt><trkpt lat="44.4313583" lon="10.9369417"><ele>213.0</ele><time>2026-05-02T08:13:24.994Z</time></trkpt><trkpt lat="44.4313833" lon="10.9368383"><ele>214.00000000000003</ele><time>2026-05-02T08:13:25.996Z</time></trkpt><trkpt lat="44.4314083" lon="10.936735"><ele>215.0</ele><time>2026-05-02T08:13:26.996Z</time></trkpt><trkpt lat="44.4314267" lon="10.9366383"><ele>215.0</ele><time>2026-05-02T08:13:27.998Z</time></trkpt><trkpt lat="44.4314183" lon="10.9364733"><ele>215.0</ele><time>2026-05-02T08:13:29.996Z</time></trkpt><trkpt lat="44.431365" lon="10.936305"><ele>215.0</ele><time>2026-05-02T08:13:31.997Z</time></trkpt><trkpt lat="44.43132" lon="10.9362033"><ele>215.0</ele><time>2026-05-02T08:13:32.995Z</time></trkpt><trkpt lat="44.4312733" lon="10.936105"><ele>215.0</ele><time>2026-05-02T08:13:33.996Z</time></trkpt><trkpt lat="44.4312317" lon="10.9360133"><ele>215.00000000000003</ele><time>2026-05-02T08:13:34.997Z</time></trkpt><trkpt lat="44.43119" lon="10.9359233"><ele>215.0</ele><time>2026-05-02T08:13:35.996Z</time></trkpt><trkpt lat="44.4311367" lon="10.93586"><ele>215.0</ele><time>2026-05-02T08:13:36.995Z</time></trkpt><trkpt lat="44.4310733" lon="10.9357967"><ele>215.0</ele><time>2026-05-02T08:13:37.995Z</time></trkpt><trkpt lat="44.4309983" lon="10.93575"><ele>215.00000000000003</ele><time>2026-05-02T08:13:38.996Z</time></trkpt><trkpt lat="44.430905" lon="10.93572"><ele>215.0</ele><time>2026-05-02T08:13:39.996Z</time></trkpt><trkpt lat="44.4308083" lon="10.9356883"><ele>215.8</ele><time>2026-05-02T08:13:40.996Z</time></trkpt><trkpt lat="44.4307133" lon="10.9356567"><ele>216.6</ele><time>2026-05-02T08:13:41.995Z</time></trkpt><trkpt lat="44.4306217" lon="10.9356217"><ele>217.39999999999998</ele><time>2026-05-02T08:13:42.998Z</time></trkpt><trkpt lat="44.43053" lon="10.9355917"><ele>218.2</ele><time>2026-05-02T08:13:43.996Z</time></trkpt><trkpt lat="44.4304383" lon="10.9355567"><ele>219.0</ele><time>2026-05-02T08:13:44.993Z</time></trkpt><trkpt lat="44.43035" lon="10.935525"><ele>219.0</ele><time>2026-05-02T08:13:45.994Z</time></trkpt><trkpt lat="44.430265" lon="10.9354917"><ele>219.0</ele><time>2026-05-02T08:13:46.996Z</time></trkpt><trkpt lat="44.4301833" lon="10.9354617"><ele>219.0</ele><time>2026-05-02T08:13:47.996Z</time></trkpt><trkpt lat="44.4301133" lon="10.9354333"><ele>219.0</ele><time>2026-05-02T08:13:48.995Z</time></trkpt><trkpt lat="44.4300467" lon="10.9353967"><ele>219.0</ele><time>2026-05-02T08:13:49.995Z</time></trkpt><trkpt lat="44.42999" lon="10.9353333"><ele>219.0</ele><time>2026-05-02T08:13:50.993Z</time></trkpt><trkpt lat="44.4299317" lon="10.9352633"><ele>219.0</ele><time>2026-05-02T08:13:51.994Z</time></trkpt><trkpt lat="44.4298717" lon="10.9352033"><ele>219.0</ele><time>2026-05-02T08:13:52.992Z</time></trkpt><trkpt lat="44.42981" lon="10.9351733"><ele>219.0</ele><time>2026-05-02T08:13:53.993Z</time></trkpt><trkpt lat="44.4297433" lon="10.9351517"><ele>219.0</ele><time>2026-05-02T08:13:54.995Z</time></trkpt><trkpt lat="44.4296683" lon="10.9351517"><ele>219.0</ele><time>2026-05-02T08:13:55.995Z</time></trkpt><trkpt lat="44.4295433" lon="10.9351067"><ele>219.0</ele><time>2026-05-02T08:13:57.993Z</time></trkpt><trkpt lat="44.4294783" lon="10.9350533"><ele>218.83333333333334</ele><time>2026-05-02T08:13:58.994Z</time></trkpt><trkpt lat="44.42942" lon="10.9349817"><ele>218.66666666666669</ele><time>2026-05-02T08:13:59.995Z</time></trkpt><trkpt lat="44.4293683" lon="10.9349017"><ele>218.5</ele><time>2026-05-02T08:14:00.993Z</time></trkpt><trkpt lat="44.429325" lon="10.9348267"><ele>218.33333333333334</ele><time>2026-05-02T08:14:01.993Z</time></trkpt><trkpt lat="44.429275" lon="10.934755"><ele>218.16666666666669</ele><time>2026-05-02T08:14:02.994Z</time></trkpt><trkpt lat="44.4291633" lon="10.9346833"><ele>218.0</ele><time>2026-05-02T08:14:04.995Z</time></trkpt><trkpt lat="44.4290933" lon="10.9346767"><ele>218.0</ele><time>2026-05-02T08:14:05.995Z</time></trkpt><trkpt lat="44.4290233" lon="10.9346817"><ele>218.0</ele><time>2026-05-02T08:14:06.994Z</time></trkpt><trkpt lat="44.4289567" lon="10.934705"><ele>218.0</ele><time>2026-05-02T08:14:07.996Z</time></trkpt><trkpt lat="44.4288917" lon="10.9347483"><ele>218.0</ele><time>2026-05-02T08:14:08.999Z</time></trkpt><trkpt lat="44.4288283" lon="10.9347917"><ele>218.0</ele><time>2026-05-02T08:14:09.995Z</time></trkpt><trkpt lat="44.42877" lon="10.9348267"><ele>218.0</ele><time>2026-05-02T08:14:10.994Z</time></trkpt><trkpt lat="44.4287083" lon="10.934845"><ele>218.0</ele><time>2026-05-02T08:14:11.995Z</time></trkpt><trkpt lat="44.428645" lon="10.9348417"><ele>220.00000000000003</ele><time>2026-05-02T08:14:12.999Z</time></trkpt><trkpt lat="44.42858" lon="10.9348283"><ele>222.0</ele><time>2026-05-02T08:14:13.996Z</time></trkpt><trkpt lat="44.4284733" lon="10.9347783"><ele>224.0</ele><time>2026-05-02T08:14:15.993Z</time></trkpt><trkpt lat="44.428385" lon="10.934665"><ele>226.0</ele><time>2026-05-02T08:14:17.994Z</time></trkpt><trkpt lat="44.428355" lon="10.9345867"><ele>228.00000000000003</ele><time>2026-05-02T08:14:18.994Z</time></trkpt><trkpt lat="44.4283367" lon="10.934495"><ele>230.0</ele><time>2026-05-02T08:14:19.993Z</time></trkpt><trkpt lat="44.4283317" lon="10.9344033"><ele>230.00000000000003</ele><time>2026-05-02T08:14:20.993Z</time></trkpt><trkpt lat="44.4283383" lon="10.9343117"><ele>230.0</ele><time>2026-05-02T08:14:21.996Z</time></trkpt><trkpt lat="44.428325" lon="10.9341483"><ele>230.0</ele><time>2026-05-02T08:14:23.993Z</time></trkpt><trkpt lat="44.4282867" lon="10.934075"><ele>230.0</ele><time>2026-05-02T08:14:24.993Z</time></trkpt><trkpt lat="44.428235" lon="10.933995"><ele>230.00000000000003</ele><time>2026-05-02T08:14:26Z</time></trkpt><trkpt lat="44.4281667" lon="10.9339183"><ele>230.0</ele><time>2026-05-02T08:14:26.995Z</time></trkpt><trkpt lat="44.4280883" lon="10.933835"><ele>231.4</ele><time>2026-05-02T08:14:27.994Z</time></trkpt><trkpt lat="44.4279983" lon="10.933755"><ele>232.8</ele><time>2026-05-02T08:14:28.995Z</time></trkpt><trkpt lat="44.4279067" lon="10.9336783"><ele>234.2</ele><time>2026-05-02T08:14:29.993Z</time></trkpt><trkpt lat="44.427815" lon="10.9336133"><ele>235.6</ele><time>2026-05-02T08:14:30.997Z</time></trkpt><trkpt lat="44.4277217" lon="10.9335583"><ele>237.0</ele><time>2026-05-02T08:14:31.996Z</time></trkpt><trkpt lat="44.4276383" lon="10.9335067"><ele>237.0</ele><time>2026-05-02T08:14:32.998Z</time></trkpt><trkpt lat="44.42756" lon="10.9334617"><ele>237.0</ele><time>2026-05-02T08:14:33.994Z</time></trkpt><trkpt lat="44.4274967" lon="10.93343"><ele>237.0</ele><time>2026-05-02T08:14:34.995Z</time></trkpt><trkpt lat="44.4273867" lon="10.9334083"><ele>237.0</ele><time>2026-05-02T08:14:36.996Z</time></trkpt><trkpt lat="44.427275" lon="10.93343"><ele>237.0</ele><time>2026-05-02T08:14:38.995Z</time></trkpt><trkpt lat="44.42721" lon="10.9334683"><ele>237.0</ele><time>2026-05-02T08:14:39.994Z</time></trkpt><trkpt lat="44.42715" lon="10.9335233"><ele>237.0</ele><time>2026-05-02T08:14:40.995Z</time></trkpt><trkpt lat="44.4270917" lon="10.9336017"><ele>237.0</ele><time>2026-05-02T08:14:41.993Z</time></trkpt><trkpt lat="44.4270267" lon="10.9336917"><ele>237.0</ele><time>2026-05-02T08:14:42.995Z</time></trkpt><trkpt lat="44.4269567" lon="10.9337833"><ele>237.0</ele><time>2026-05-02T08:14:43.996Z</time></trkpt><trkpt lat="44.42689" lon="10.9338717"><ele>237.0</ele><time>2026-05-02T08:14:44.995Z</time></trkpt><trkpt lat="44.4268317" lon="10.9339383"><ele>237.0</ele><time>2026-05-02T08:14:45.995Z</time></trkpt><trkpt lat="44.4267683" lon="10.9339817"><ele>237.0</ele><time>2026-05-02T08:14:46.996Z</time></trkpt><trkpt lat="44.4266467" lon="10.93399"><ele>237.0</ele><time>2026-05-02T08:14:48.995Z</time></trkpt><trkpt lat="44.426585" lon="10.93394"><ele>237.0</ele><time>2026-05-02T08:14:49.996Z</time></trkpt><trkpt lat="44.4265067" lon="10.9338067"><ele>237.0</ele><time>2026-05-02T08:14:51.996Z</time></trkpt><trkpt lat="44.4264783" lon="10.9337117"><ele>237.0</ele><time>2026-05-02T08:14:52.996Z</time></trkpt><trkpt lat="44.426455" lon="10.9335983"><ele>237.0</ele><time>2026-05-02T08:14:53.996Z</time></trkpt><trkpt lat="44.4264367" lon="10.93348"><ele>237.0</ele><time>2026-05-02T08:14:54.995Z</time></trkpt><trkpt lat="44.4264167" lon="10.933365"><ele>237.0</ele><time>2026-05-02T08:14:55.994Z</time></trkpt><trkpt lat="44.4263883" lon="10.9332583"><ele>237.0</ele><time>2026-05-02T08:14:56.997Z</time></trkpt><trkpt lat="44.4263467" lon="10.9331667"><ele>237.0</ele><time>2026-05-02T08:14:57.995Z</time></trkpt><trkpt lat="44.4262967" lon="10.9330883"><ele>237.0</ele><time>2026-05-02T08:14:58.993Z</time></trkpt><trkpt lat="44.426245" lon="10.93303"><ele>236.33333333333334</ele><time>2026-05-02T08:14:59.995Z</time></trkpt><trkpt lat="44.4261883" lon="10.9329883"><ele>235.66666666666669</ele><time>2026-05-02T08:15:00.993Z</time></trkpt><trkpt lat="44.4260617" lon="10.93301"><ele>235.0</ele><time>2026-05-02T08:15:02.999Z</time></trkpt><trkpt lat="44.4259867" lon="10.933055"><ele>234.33333333333334</ele><time>2026-05-02T08:15:03.999Z</time></trkpt><trkpt lat="44.4259183" lon="10.9331133"><ele>233.66666666666669</ele><time>2026-05-02T08:15:04.995Z</time></trkpt><trkpt lat="44.4258583" lon="10.9331783"><ele>233.0</ele><time>2026-05-02T08:15:05.996Z</time></trkpt><trkpt lat="44.4258" lon="10.9332317"><ele>233.00000000000003</ele><time>2026-05-02T08:15:06.995Z</time></trkpt><trkpt lat="44.425735" lon="10.9332633"><ele>233.0</ele><time>2026-05-02T08:15:07.994Z</time></trkpt><trkpt lat="44.4256583" lon="10.9332783"><ele>233.0</ele><time>2026-05-02T08:15:08.996Z</time></trkpt><trkpt lat="44.42558" lon="10.9333017"><ele>233.0</ele><time>2026-05-02T08:15:09.996Z</time></trkpt><trkpt lat="44.425505" lon="10.9333433"><ele>233.00000000000003</ele><time>2026-05-02T08:15:10.997Z</time></trkpt><trkpt lat="44.4254333" lon="10.933395"><ele>233.0</ele><time>2026-05-02T08:15:11.996Z</time></trkpt><trkpt lat="44.4253617" lon="10.9334583"><ele>235.2</ele><time>2026-05-02T08:15:12.993Z</time></trkpt><trkpt lat="44.4252867" lon="10.9335317"><ele>237.4</ele><time>2026-05-02T08:15:13.994Z</time></trkpt><trkpt lat="44.42522" lon="10.9336117"><ele>239.59999999999997</ele><time>2026-05-02T08:15:14.992Z</time></trkpt><trkpt lat="44.4251417" lon="10.9336883"><ele>241.79999999999998</ele><time>2026-05-02T08:15:15.995Z</time></trkpt><trkpt lat="44.4250583" lon="10.9337583"><ele>244.0</ele><time>2026-05-02T08:15:16.994Z</time></trkpt><trkpt lat="44.4249733" lon="10.933815"><ele>243.99999999999997</ele><time>2026-05-02T08:15:17.997Z</time></trkpt><trkpt lat="44.4248917" lon="10.9338633"><ele>244.0</ele><time>2026-05-02T08:15:18.996Z</time></trkpt><trkpt lat="44.424815" lon="10.9339033"><ele>244.0</ele><time>2026-05-02T08:15:19.995Z</time></trkpt><trkpt lat="44.42474" lon="10.933925"><ele>244.0</ele><time>2026-05-02T08:15:20.995Z</time></trkpt><trkpt lat="44.4246717" lon="10.9339367"><ele>243.99999999999997</ele><time>2026-05-02T08:15:21.997Z</time></trkpt><trkpt lat="44.4246017" lon="10.9339267"><ele>244.0</ele><time>2026-05-02T08:15:22.994Z</time></trkpt><trkpt lat="44.4244967" lon="10.933845"><ele>243.66666666666666</ele><time>2026-05-02T08:15:24.995Z</time></trkpt><trkpt lat="44.4244567" lon="10.9337767"><ele>243.33333333333331</ele><time>2026-05-02T08:15:25.994Z</time></trkpt><trkpt lat="44.4244183" lon="10.9336883"><ele>243.0</ele><time>2026-05-02T08:15:26.995Z</time></trkpt><trkpt lat="44.42438" lon="10.93359"><ele>242.66666666666669</ele><time>2026-05-02T08:15:27.996Z</time></trkpt><trkpt lat="44.42435" lon="10.9334867"><ele>242.33333333333334</ele><time>2026-05-02T08:15:28.995Z</time></trkpt><trkpt lat="44.4243217" lon="10.93338"><ele>242.0</ele><time>2026-05-02T08:15:29.996Z</time></trkpt><trkpt lat="44.4242983" lon="10.9332633"><ele>242.0</ele><time>2026-05-02T08:15:30.996Z</time></trkpt><trkpt lat="44.42428" lon="10.9331433"><ele>242.0</ele><time>2026-05-02T08:15:31.996Z</time></trkpt><trkpt lat="44.424265" lon="10.9330067"><ele>242.0</ele><time>2026-05-02T08:15:32.996Z</time></trkpt><trkpt lat="44.42425" lon="10.932855"><ele>242.0</ele><time>2026-05-02T08:15:33.996Z</time></trkpt><trkpt lat="44.424235" lon="10.9327083"><ele>242.0</ele><time>2026-05-02T08:15:34.996Z</time></trkpt><trkpt lat="44.4242233" lon="10.9325717"><ele>241.83333333333334</ele><time>2026-05-02T08:15:35.993Z</time></trkpt><trkpt lat="44.4242167" lon="10.93244"><ele>241.66666666666669</ele><time>2026-05-02T08:15:36.997Z</time></trkpt><trkpt lat="44.4242167" lon="10.9323267"><ele>241.5</ele><time>2026-05-02T08:15:37.996Z</time></trkpt><trkpt lat="44.4242183" lon="10.93222"><ele>241.33333333333331</ele><time>2026-05-02T08:15:38.996Z</time></trkpt><trkpt lat="44.4242217" lon="10.9321183"><ele>241.16666666666666</ele><time>2026-05-02T08:15:39.996Z</time></trkpt><trkpt lat="44.42421" lon="10.9319667"><ele>241.0</ele><time>2026-05-02T08:15:41.992Z</time></trkpt><trkpt lat="44.4241267" lon="10.931845"><ele>241.0</ele><time>2026-05-02T08:15:43.995Z</time></trkpt><trkpt lat="44.424055" lon="10.9317983"><ele>241.00000000000003</ele><time>2026-05-02T08:15:44.993Z</time></trkpt><trkpt lat="44.4239817" lon="10.9317583"><ele>241.0</ele><time>2026-05-02T08:15:45.994Z</time></trkpt><trkpt lat="44.423915" lon="10.93173"><ele>241.0</ele><time>2026-05-02T08:15:46.995Z</time></trkpt><trkpt lat="44.42385" lon="10.9317233"><ele>241.00000000000003</ele><time>2026-05-02T08:15:47.994Z</time></trkpt><trkpt lat="44.423785" lon="10.9317383"><ele>241.0</ele><time>2026-05-02T08:15:48.994Z</time></trkpt><trkpt lat="44.4237167" lon="10.9317717"><ele>241.0</ele><time>2026-05-02T08:15:49.994Z</time></trkpt><trkpt lat="44.4236533" lon="10.9318017"><ele>241.83333333333331</ele><time>2026-05-02T08:15:50.994Z</time></trkpt><trkpt lat="44.4235867" lon="10.9318183"><ele>242.66666666666666</ele><time>2026-05-02T08:15:51.994Z</time></trkpt><trkpt lat="44.423515" lon="10.93181"><ele>243.5</ele><time>2026-05-02T08:15:52.994Z</time></trkpt><trkpt lat="44.42344" lon="10.9317767"><ele>244.33333333333331</ele><time>2026-05-02T08:15:53.994Z</time></trkpt><trkpt lat="44.4233667" lon="10.9317183"><ele>245.16666666666666</ele><time>2026-05-02T08:15:54.996Z</time></trkpt><trkpt lat="44.4233" lon="10.9316417"><ele>246.0</ele><time>2026-05-02T08:15:55.995Z</time></trkpt><trkpt lat="44.4232317" lon="10.931555"><ele>246.0</ele><time>2026-05-02T08:15:56.994Z</time></trkpt><trkpt lat="44.42317" lon="10.931465"><ele>246.0</ele><time>2026-05-02T08:15:57.994Z</time></trkpt><trkpt lat="44.423115" lon="10.9313817"><ele>246.0</ele><time>2026-05-02T08:15:58.996Z</time></trkpt><trkpt lat="44.42306" lon="10.9313167"><ele>246.0</ele><time>2026-05-02T08:15:59.996Z</time></trkpt><trkpt lat="44.4229967" lon="10.93128"><ele>246.0</ele><time>2026-05-02T08:16:00.994Z</time></trkpt><trkpt lat="44.4229183" lon="10.931265"><ele>246.0</ele><time>2026-05-02T08:16:01.995Z</time></trkpt><trkpt lat="44.42284" lon="10.9312633"><ele>248.83333333333334</ele><time>2026-05-02T08:16:02.996Z</time></trkpt><trkpt lat="44.4227583" lon="10.9312583"><ele>251.66666666666669</ele><time>2026-05-02T08:16:03.995Z</time></trkpt><trkpt lat="44.42268" lon="10.9312367"><ele>254.5</ele><time>2026-05-02T08:16:04.996Z</time></trkpt><trkpt lat="44.4226083" lon="10.931195"><ele>257.33333333333337</ele><time>2026-05-02T08:16:05.995Z</time></trkpt><trkpt lat="44.4225383" lon="10.93114"><ele>260.1666666666667</ele><time>2026-05-02T08:16:06.996Z</time></trkpt><trkpt lat="44.4224767" lon="10.931085"><ele>263.0</ele><time>2026-05-02T08:16:07.996Z</time></trkpt><trkpt lat="44.42241" lon="10.931045"><ele>263.0</ele><time>2026-05-02T08:16:08.998Z</time></trkpt><trkpt lat="44.42234" lon="10.9310133"><ele>263.0</ele><time>2026-05-02T08:16:09.995Z</time></trkpt><trkpt lat="44.422265" lon="10.931"><ele>263.0</ele><time>2026-05-02T08:16:10.996Z</time></trkpt><trkpt lat="44.422195" lon="10.93098"><ele>263.0</ele><time>2026-05-02T08:16:11.996Z</time></trkpt><trkpt lat="44.4221333" lon="10.9309417"><ele>263.0</ele><time>2026-05-02T08:16:12.997Z</time></trkpt><trkpt lat="44.4220783" lon="10.9308833"><ele>263.0</ele><time>2026-05-02T08:16:13.996Z</time></trkpt><trkpt lat="44.4220233" lon="10.930825"><ele>263.0</ele><time>2026-05-02T08:16:14.996Z</time></trkpt><trkpt lat="44.4219667" lon="10.9307783"><ele>260.83333333333337</ele><time>2026-05-02T08:16:15.995Z</time></trkpt><trkpt lat="44.421905" lon="10.9307467"><ele>258.6666666666667</ele><time>2026-05-02T08:16:16.996Z</time></trkpt><trkpt lat="44.4218317" lon="10.930725"><ele>256.5</ele><time>2026-05-02T08:16:17.995Z</time></trkpt><trkpt lat="44.421745" lon="10.9307117"><ele>254.33333333333331</ele><time>2026-05-02T08:16:18.995Z</time></trkpt><trkpt lat="44.4216633" lon="10.9306883"><ele>252.16666666666666</ele><time>2026-05-02T08:16:19.996Z</time></trkpt><trkpt lat="44.421585" lon="10.9306633"><ele>250.0</ele><time>2026-05-02T08:16:20.994Z</time></trkpt><trkpt lat="44.42151" lon="10.9306417"><ele>249.99999999999997</ele><time>2026-05-02T08:16:21.996Z</time></trkpt><trkpt lat="44.4214383" lon="10.9306367"><ele>250.0</ele><time>2026-05-02T08:16:22.996Z</time></trkpt><trkpt lat="44.4213733" lon="10.93063"><ele>250.0</ele><time>2026-05-02T08:16:23.996Z</time></trkpt><trkpt lat="44.42131" lon="10.9306383"><ele>250.0</ele><time>2026-05-02T08:16:24.994Z</time></trkpt><trkpt lat="44.4211983" lon="10.9307033"><ele>249.99999999999997</ele><time>2026-05-02T08:16:26.995Z</time></trkpt><trkpt lat="44.4211417" lon="10.9307667"><ele>250.0</ele><time>2026-05-02T08:16:27.995Z</time></trkpt><trkpt lat="44.4210933" lon="10.9308417"><ele>251.4</ele><time>2026-05-02T08:16:28.992Z</time></trkpt><trkpt lat="44.4210567" lon="10.9309283"><ele>252.8</ele><time>2026-05-02T08:16:29.993Z</time></trkpt><trkpt lat="44.42102" lon="10.9310067"><ele>254.2</ele><time>2026-05-02T08:16:30.996Z</time></trkpt><trkpt lat="44.4209417" lon="10.9311433"><ele>255.6</ele><time>2026-05-02T08:16:32.995Z</time></trkpt><trkpt lat="44.42085" lon="10.9312333"><ele>257.0</ele><time>2026-05-02T08:16:34.993Z</time></trkpt><trkpt lat="44.4207233" lon="10.9312417"><ele>257.0</ele><time>2026-05-02T08:16:36.996Z</time></trkpt><trkpt lat="44.420645" lon="10.93121"><ele>257.0</ele><time>2026-05-02T08:16:37.995Z</time></trkpt><trkpt lat="44.42057" lon="10.931185"><ele>257.0</ele><time>2026-05-02T08:16:38.997Z</time></trkpt><trkpt lat="44.4204983" lon="10.931165"><ele>257.0</ele><time>2026-05-02T08:16:39.997Z</time></trkpt><trkpt lat="44.4204267" lon="10.9311533"><ele>257.0</ele><time>2026-05-02T08:16:40.995Z</time></trkpt><trkpt lat="44.42035" lon="10.931155"><ele>257.0</ele><time>2026-05-02T08:16:41.999Z</time></trkpt><trkpt lat="44.4202667" lon="10.9311633"><ele>258.0</ele><time>2026-05-02T08:16:42.998Z</time></trkpt><trkpt lat="44.4201867" lon="10.93117"><ele>259.0</ele><time>2026-05-02T08:16:43.996Z</time></trkpt><trkpt lat="44.4201117" lon="10.9311717"><ele>260.0</ele><time>2026-05-02T08:16:44.994Z</time></trkpt><trkpt lat="44.4200367" lon="10.9311733"><ele>261.0</ele><time>2026-05-02T08:16:45.995Z</time></trkpt><trkpt lat="44.41996" lon="10.93117"><ele>262.0</ele><time>2026-05-02T08:16:46.993Z</time></trkpt><trkpt lat="44.4198883" lon="10.9311567"><ele>263.0</ele><time>2026-05-02T08:16:47.994Z</time></trkpt><trkpt lat="44.4198233" lon="10.9311467"><ele>264.0</ele><time>2026-05-02T08:16:48.993Z</time></trkpt><trkpt lat="44.4197333" lon="10.9311217"><ele>264.0</ele><time>2026-05-02T08:16:50.994Z</time></trkpt><trkpt lat="44.4196633" lon="10.93113"><ele>264.0</ele><time>2026-05-02T08:16:53.994Z</time></trkpt><trkpt lat="44.419575" lon="10.9311217"><ele>264.0</ele><time>2026-05-02T08:16:55.995Z</time></trkpt><trkpt lat="44.4195133" lon="10.93109"><ele>264.0</ele><time>2026-05-02T08:16:56.995Z</time></trkpt><trkpt lat="44.4194567" lon="10.9310317"><ele>264.0</ele><time>2026-05-02T08:16:57.996Z</time></trkpt><trkpt lat="44.4194" lon="10.9309583"><ele>264.0</ele><time>2026-05-02T08:16:58.993Z</time></trkpt><trkpt lat="44.4193467" lon="10.9308683"><ele>261.59999999999997</ele><time>2026-05-02T08:16:59.994Z</time></trkpt><trkpt lat="44.4193017" lon="10.9307767"><ele>259.2</ele><time>2026-05-02T08:17:00.994Z</time></trkpt><trkpt lat="44.41926" lon="10.9306683"><ele>256.79999999999995</ele><time>2026-05-02T08:17:01.994Z</time></trkpt><trkpt lat="44.41922" lon="10.93054"><ele>254.39999999999998</ele><time>2026-05-02T08:17:02.993Z</time></trkpt><trkpt lat="44.4191917" lon="10.9304067"><ele>252.0</ele><time>2026-05-02T08:17:03.994Z</time></trkpt><trkpt lat="44.4191733" lon="10.9302867"><ele>252.0</ele><time>2026-05-02T08:17:04.993Z</time></trkpt><trkpt lat="44.41916" lon="10.930175"><ele>252.0</ele><time>2026-05-02T08:17:05.993Z</time></trkpt><trkpt lat="44.4191467" lon="10.9300717"><ele>252.0</ele><time>2026-05-02T08:17:06.993Z</time></trkpt><trkpt lat="44.4191333" lon="10.9299733"><ele>252.0</ele><time>2026-05-02T08:17:07.993Z</time></trkpt><trkpt lat="44.4191217" lon="10.9298833"><ele>252.0</ele><time>2026-05-02T08:17:08.993Z</time></trkpt><trkpt lat="44.4190933" lon="10.9297933"><ele>252.0</ele><time>2026-05-02T08:17:09.993Z</time></trkpt><trkpt lat="44.4190617" lon="10.9297133"><ele>252.0</ele><time>2026-05-02T08:17:10.996Z</time></trkpt><trkpt lat="44.4190317" lon="10.929635"><ele>248.8</ele><time>2026-05-02T08:17:11.994Z</time></trkpt><trkpt lat="44.41897" lon="10.9294917"><ele>245.6</ele><time>2026-05-02T08:17:13.993Z</time></trkpt><trkpt lat="44.4189133" lon="10.9293567"><ele>242.40000000000003</ele><time>2026-05-02T08:17:15.996Z</time></trkpt><trkpt lat="44.4188767" lon="10.9292767"><ele>239.20000000000002</ele><time>2026-05-02T08:17:16.996Z</time></trkpt><trkpt lat="44.4187917" lon="10.9291567"><ele>236.0</ele><time>2026-05-02T08:17:18.995Z</time></trkpt><trkpt lat="44.4186733" lon="10.929085"><ele>235.42857142857142</ele><time>2026-05-02T08:17:20.994Z</time></trkpt><trkpt lat="44.4186033" lon="10.9290633"><ele>234.8571428571429</ele><time>2026-05-02T08:17:21.993Z</time></trkpt><trkpt lat="44.41854" lon="10.92904"><ele>234.2857142857143</ele><time>2026-05-02T08:17:22.995Z</time></trkpt><trkpt lat="44.4184783" lon="10.9290117"><ele>233.71428571428572</ele><time>2026-05-02T08:17:23.995Z</time></trkpt><trkpt lat="44.4184183" lon="10.9289767"><ele>233.14285714285717</ele><time>2026-05-02T08:17:24.996Z</time></trkpt><trkpt lat="44.4183533" lon="10.9289283"><ele>232.5714285714286</ele><time>2026-05-02T08:17:25.996Z</time></trkpt><trkpt lat="44.4182933" lon="10.9288683"><ele>232.00000000000003</ele><time>2026-05-02T08:17:26.996Z</time></trkpt><trkpt lat="44.41824" lon="10.9288033"><ele>232.0</ele><time>2026-05-02T08:17:27.995Z</time></trkpt><trkpt lat="44.418185" lon="10.9287383"><ele>232.0</ele><time>2026-05-02T08:17:28.996Z</time></trkpt><trkpt lat="44.4181283" lon="10.9286783"><ele>232.0</ele><time>2026-05-02T08:17:29.993Z</time></trkpt><trkpt lat="44.4180267" lon="10.9285967"><ele>232.0</ele><time>2026-05-02T08:17:31.995Z</time></trkpt><trkpt lat="44.41795" lon="10.9285133"><ele>232.0</ele><time>2026-05-02T08:17:33.995Z</time></trkpt><trkpt lat="44.4178883" lon="10.92835"><ele>232.49999999999997</ele><time>2026-05-02T08:17:35.995Z</time></trkpt><trkpt lat="44.4178583" lon="10.9282533"><ele>233.0</ele><time>2026-05-02T08:17:36.996Z</time></trkpt><trkpt lat="44.4178267" lon="10.9281683"><ele>233.5</ele><time>2026-05-02T08:17:37.995Z</time></trkpt><trkpt lat="44.4177533" lon="10.9280167"><ele>234.0</ele><time>2026-05-02T08:17:39.995Z</time></trkpt><trkpt lat="44.4177017" lon="10.9279433"><ele>234.49999999999997</ele><time>2026-05-02T08:17:40.994Z</time></trkpt><trkpt lat="44.4176433" lon="10.9278633"><ele>235.0</ele><time>2026-05-02T08:17:41.995Z</time></trkpt><trkpt lat="44.41758" lon="10.927775"><ele>234.99999999999997</ele><time>2026-05-02T08:17:42.996Z</time></trkpt><trkpt lat="44.4175167" lon="10.9276867"><ele>235.0</ele><time>2026-05-02T08:17:43.993Z</time></trkpt><trkpt lat="44.4174567" lon="10.9276033"><ele>235.0</ele><time>2026-05-02T08:17:44.993Z</time></trkpt><trkpt lat="44.4173983" lon="10.927525"><ele>235.0</ele><time>2026-05-02T08:17:45.993Z</time></trkpt><trkpt lat="44.4173417" lon="10.9274583"><ele>234.99999999999997</ele><time>2026-05-02T08:17:46.993Z</time></trkpt><trkpt lat="44.41729" lon="10.92739"><ele>235.0</ele><time>2026-05-02T08:17:47.994Z</time></trkpt><trkpt lat="44.4172417" lon="10.9273317"><ele>231.6</ele><time>2026-05-02T08:17:48.993Z</time></trkpt><trkpt lat="44.4171433" lon="10.9272617"><ele>228.2</ele><time>2026-05-02T08:17:50.994Z</time></trkpt><trkpt lat="44.4170433" lon="10.9272517"><ele>224.8</ele><time>2026-05-02T08:17:52.993Z</time></trkpt><trkpt lat="44.4169417" lon="10.9273083"><ele>221.4</ele><time>2026-05-02T08:17:54.995Z</time></trkpt><trkpt lat="44.416885" lon="10.927375"><ele>218.0</ele><time>2026-05-02T08:17:55.994Z</time></trkpt><trkpt lat="44.4168267" lon="10.927445"><ele>218.00000000000003</ele><time>2026-05-02T08:17:56.995Z</time></trkpt><trkpt lat="44.4167667" lon="10.9275133"><ele>218.0</ele><time>2026-05-02T08:17:57.993Z</time></trkpt><trkpt lat="44.4167183" lon="10.927575"><ele>218.0</ele><time>2026-05-02T08:17:58.995Z</time></trkpt><trkpt lat="44.41663" lon="10.9276917"><ele>218.0</ele><time>2026-05-02T08:18:00.995Z</time></trkpt><trkpt lat="44.416565" lon="10.927775"><ele>218.00000000000003</ele><time>2026-05-02T08:18:02.998Z</time></trkpt><trkpt lat="44.4165033" lon="10.927815"><ele>218.0</ele><time>2026-05-02T08:18:05.994Z</time></trkpt><trkpt lat="44.4164083" lon="10.9278383"><ele>219.60000000000002</ele><time>2026-05-02T08:18:19.995Z</time></trkpt><trkpt lat="44.4163" lon="10.927885"><ele>221.20000000000002</ele><time>2026-05-02T08:18:21.994Z</time></trkpt><trkpt lat="44.4161767" lon="10.927915"><ele>222.8</ele><time>2026-05-02T08:18:23.995Z</time></trkpt><trkpt lat="44.4160983" lon="10.92793"><ele>224.4</ele><time>2026-05-02T08:18:24.995Z</time></trkpt><trkpt lat="44.416015" lon="10.9279433"><ele>226.0</ele><time>2026-05-02T08:18:25.997Z</time></trkpt><trkpt lat="44.4159383" lon="10.927945"><ele>226.0</ele><time>2026-05-02T08:18:26.995Z</time></trkpt><trkpt lat="44.4158717" lon="10.9279217"><ele>226.00000000000003</ele><time>2026-05-02T08:18:27.996Z</time></trkpt><trkpt lat="44.415795" lon="10.927785"><ele>226.00000000000003</ele><time>2026-05-02T08:18:29.996Z</time></trkpt><trkpt lat="44.4157633" lon="10.9276767"><ele>226.0</ele><time>2026-05-02T08:18:30.994Z</time></trkpt><trkpt lat="44.4157183" lon="10.92755"><ele>226.0</ele><time>2026-05-02T08:18:31.996Z</time></trkpt><trkpt lat="44.41566" lon="10.9274183"><ele>227.0</ele><time>2026-05-02T08:18:32.994Z</time></trkpt><trkpt lat="44.4156" lon="10.9273017"><ele>228.00000000000003</ele><time>2026-05-02T08:18:33.996Z</time></trkpt><trkpt lat="44.4155517" lon="10.92719"><ele>229.00000000000003</ele><time>2026-05-02T08:18:34.995Z</time></trkpt><trkpt lat="44.415515" lon="10.927065"><ele>230.0</ele><time>2026-05-02T08:18:35.994Z</time></trkpt><trkpt lat="44.41549" lon="10.926925"><ele>231.0</ele><time>2026-05-02T08:18:36.997Z</time></trkpt><trkpt lat="44.4154733" lon="10.926785"><ele>229.33333333333334</ele><time>2026-05-02T08:18:37.993Z</time></trkpt><trkpt lat="44.4154633" lon="10.9266583"><ele>227.66666666666669</ele><time>2026-05-02T08:18:38.993Z</time></trkpt><trkpt lat="44.4154517" lon="10.926565"><ele>226.0</ele><time>2026-05-02T08:18:39.996Z</time></trkpt><trkpt lat="44.4153883" lon="10.9264217"><ele>224.33333333333334</ele><time>2026-05-02T08:18:41.993Z</time></trkpt><trkpt lat="44.415325" lon="10.92638"><ele>222.66666666666669</ele><time>2026-05-02T08:18:42.996Z</time></trkpt><trkpt lat="44.4152533" lon="10.926375"><ele>221.0</ele><time>2026-05-02T08:18:43.995Z</time></trkpt><trkpt lat="44.4151783" lon="10.9263933"><ele>221.0</ele><time>2026-05-02T08:18:44.996Z</time></trkpt><trkpt lat="44.4150867" lon="10.9264433"><ele>221.00000000000003</ele><time>2026-05-02T08:18:45.994Z</time></trkpt><trkpt lat="44.4149917" lon="10.9264983"><ele>221.00000000000003</ele><time>2026-05-02T08:18:46.994Z</time></trkpt><trkpt lat="44.4148967" lon="10.926555"><ele>221.0</ele><time>2026-05-02T08:18:47.998Z</time></trkpt><trkpt lat="44.4148067" lon="10.926635"><ele>221.0</ele><time>2026-05-02T08:18:48.996Z</time></trkpt><trkpt lat="44.41473" lon="10.9267317"><ele>222.66666666666669</ele><time>2026-05-02T08:18:49.995Z</time></trkpt><trkpt lat="44.4146667" lon="10.9268267"><ele>224.33333333333334</ele><time>2026-05-02T08:18:50.995Z</time></trkpt><trkpt lat="44.4146033" lon="10.9269067"><ele>226.0</ele><time>2026-05-02T08:18:51.996Z</time></trkpt><trkpt lat="44.4145383" lon="10.9269667"><ele>227.66666666666669</ele><time>2026-05-02T08:18:52.995Z</time></trkpt><trkpt lat="44.41446" lon="10.9269883"><ele>229.33333333333334</ele><time>2026-05-02T08:18:53.997Z</time></trkpt><trkpt lat="44.414365" lon="10.9269567"><ele>231.0</ele><time>2026-05-02T08:18:54.996Z</time></trkpt><trkpt lat="44.414275" lon="10.9269017"><ele>232.60000000000002</ele><time>2026-05-02T08:18:55.996Z</time></trkpt><trkpt lat="44.414195" lon="10.9268233"><ele>234.20000000000002</ele><time>2026-05-02T08:18:57.001Z</time></trkpt><trkpt lat="44.4141283" lon="10.9267267"><ele>235.79999999999998</ele><time>2026-05-02T08:18:57.996Z</time></trkpt><trkpt lat="44.4140767" lon="10.926605"><ele>237.39999999999998</ele><time>2026-05-02T08:18:58.995Z</time></trkpt><trkpt lat="44.41403" lon="10.9264717"><ele>239.0</ele><time>2026-05-02T08:18:59.996Z</time></trkpt><trkpt lat="44.41399" lon="10.9263583"><ele>236.50000000000003</ele><time>2026-05-02T08:19:00.996Z</time></trkpt><trkpt lat="44.413945" lon="10.92627"><ele>234.0</ele><time>2026-05-02T08:19:01.995Z</time></trkpt><trkpt lat="44.41389" lon="10.9262083"><ele>231.5</ele><time>2026-05-02T08:19:02.996Z</time></trkpt><trkpt lat="44.413825" lon="10.9261833"><ele>229.0</ele><time>2026-05-02T08:19:03.997Z</time></trkpt><trkpt lat="44.4137567" lon="10.9261983"><ele>226.50000000000003</ele><time>2026-05-02T08:19:04.997Z</time></trkpt><trkpt lat="44.4136883" lon="10.926245"><ele>224.0</ele><time>2026-05-02T08:19:05.996Z</time></trkpt><trkpt lat="44.4136233" lon="10.9263483"><ele>224.0</ele><time>2026-05-02T08:19:06.996Z</time></trkpt><trkpt lat="44.4135517" lon="10.9264467"><ele>224.0</ele><time>2026-05-02T08:19:07.995Z</time></trkpt><trkpt lat="44.4134667" lon="10.9265267"><ele>224.0</ele><time>2026-05-02T08:19:08.995Z</time></trkpt><trkpt lat="44.413355" lon="10.9266083"><ele>224.0</ele><time>2026-05-02T08:19:09.996Z</time></trkpt><trkpt lat="44.413245" lon="10.9266867"><ele>228.0</ele><time>2026-05-02T08:19:10.997Z</time></trkpt><trkpt lat="44.41314" lon="10.9267767"><ele>232.0</ele><time>2026-05-02T08:19:11.994Z</time></trkpt><trkpt lat="44.4130417" lon="10.926865"><ele>236.0</ele><time>2026-05-02T08:19:12.994Z</time></trkpt><trkpt lat="44.41294" lon="10.9269317"><ele>240.0</ele><time>2026-05-02T08:19:13.996Z</time></trkpt><trkpt lat="44.4128333" lon="10.9269817"><ele>240.0</ele><time>2026-05-02T08:19:14.997Z</time></trkpt><trkpt lat="44.4127267" lon="10.9270383"><ele>240.0</ele><time>2026-05-02T08:19:15.995Z</time></trkpt><trkpt lat="44.4126283" lon="10.9271017"><ele>240.0</ele><time>2026-05-02T08:19:16.993Z</time></trkpt><trkpt lat="44.412545" lon="10.9271783"><ele>240.0</ele><time>2026-05-02T08:19:17.993Z</time></trkpt><trkpt lat="44.4124717" lon="10.92725"><ele>240.0</ele><time>2026-05-02T08:19:18.995Z</time></trkpt><trkpt lat="44.4124033" lon="10.9273117"><ele>240.0</ele><time>2026-05-02T08:19:19.994Z</time></trkpt><trkpt lat="44.4123233" lon="10.9273333"><ele>240.0</ele><time>2026-05-02T08:19:20.996Z</time></trkpt><trkpt lat="44.41224" lon="10.927305"><ele>240.0</ele><time>2026-05-02T08:19:21.996Z</time></trkpt><trkpt lat="44.4121617" lon="10.9272467"><ele>240.0</ele><time>2026-05-02T08:19:22.996Z</time></trkpt><trkpt lat="44.4120983" lon="10.9271633"><ele>240.0</ele><time>2026-05-02T08:19:23.995Z</time></trkpt><trkpt lat="44.4120633" lon="10.9270633"><ele>240.0</ele><time>2026-05-02T08:19:24.995Z</time></trkpt><trkpt lat="44.4120517" lon="10.9269483"><ele>241.16666666666666</ele><time>2026-05-02T08:19:25.996Z</time></trkpt><trkpt lat="44.4120433" lon="10.9268367"><ele>242.33333333333331</ele><time>2026-05-02T08:19:26.995Z</time></trkpt><trkpt lat="44.41202" lon="10.92673"><ele>243.5</ele><time>2026-05-02T08:19:27.995Z</time></trkpt><trkpt lat="44.4119767" lon="10.9266467"><ele>244.66666666666666</ele><time>2026-05-02T08:19:28.994Z</time></trkpt><trkpt lat="44.4119217" lon="10.9265783"><ele>245.83333333333331</ele><time>2026-05-02T08:19:29.997Z</time></trkpt><trkpt lat="44.4118583" lon="10.9265433"><ele>247.0</ele><time>2026-05-02T08:19:30.996Z</time></trkpt><trkpt lat="44.411775" lon="10.9265467"><ele>243.8</ele><time>2026-05-02T08:19:31.996Z</time></trkpt><trkpt lat="44.4116733" lon="10.9265783"><ele>240.6</ele><time>2026-05-02T08:19:32.996Z</time></trkpt><trkpt lat="44.4115783" lon="10.9265917"><ele>237.40000000000003</ele><time>2026-05-02T08:19:33.995Z</time></trkpt><trkpt lat="44.41149" lon="10.9265767"><ele>234.20000000000002</ele><time>2026-05-02T08:19:34.995Z</time></trkpt><trkpt lat="44.4114067" lon="10.9265267"><ele>231.0</ele><time>2026-05-02T08:19:35.995Z</time></trkpt><trkpt lat="44.4113333" lon="10.92647"><ele>231.83333333333334</ele><time>2026-05-02T08:19:36.998Z</time></trkpt><trkpt lat="44.4112617" lon="10.9264367"><ele>232.66666666666669</ele><time>2026-05-02T08:19:37.996Z</time></trkpt><trkpt lat="44.4111883" lon="10.926435"><ele>233.5</ele><time>2026-05-02T08:19:38.996Z</time></trkpt><trkpt lat="44.4111133" lon="10.926475"><ele>234.33333333333334</ele><time>2026-05-02T08:19:39.997Z</time></trkpt><trkpt lat="44.4110367" lon="10.9265233"><ele>235.16666666666669</ele><time>2026-05-02T08:19:40.994Z</time></trkpt><trkpt lat="44.4109517" lon="10.9265583"><ele>236.0</ele><time>2026-05-02T08:19:41.993Z</time></trkpt><trkpt lat="44.410875" lon="10.9265633"><ele>236.0</ele><time>2026-05-02T08:19:42.996Z</time></trkpt><trkpt lat="44.4107967" lon="10.9265383"><ele>236.00000000000003</ele><time>2026-05-02T08:19:43.996Z</time></trkpt><trkpt lat="44.4107217" lon="10.9264683"><ele>236.00000000000003</ele><time>2026-05-02T08:19:44.996Z</time></trkpt><trkpt lat="44.4106333" lon="10.9263833"><ele>236.0</ele><time>2026-05-02T08:19:45.998Z</time></trkpt><trkpt lat="44.41054" lon="10.92631"><ele>236.0</ele><time>2026-05-02T08:19:46.995Z</time></trkpt><trkpt lat="44.4104583" lon="10.92626"><ele>236.66666666666669</ele><time>2026-05-02T08:19:47.995Z</time></trkpt><trkpt lat="44.4103833" lon="10.92623"><ele>237.33333333333334</ele><time>2026-05-02T08:19:48.996Z</time></trkpt><trkpt lat="44.4103083" lon="10.92623"><ele>238.0</ele><time>2026-05-02T08:19:49.996Z</time></trkpt><trkpt lat="44.41023" lon="10.926265"><ele>238.66666666666669</ele><time>2026-05-02T08:19:50.996Z</time></trkpt><trkpt lat="44.4101517" lon="10.9262933"><ele>239.33333333333334</ele><time>2026-05-02T08:19:51.995Z</time></trkpt><trkpt lat="44.4100817" lon="10.9262817"><ele>240.0</ele><time>2026-05-02T08:19:52.995Z</time></trkpt><trkpt lat="44.41001" lon="10.9262317"><ele>240.0</ele><time>2026-05-02T08:19:53.996Z</time></trkpt><trkpt lat="44.4099283" lon="10.9261583"><ele>240.0</ele><time>2026-05-02T08:19:54.996Z</time></trkpt><trkpt lat="44.4098367" lon="10.926075"><ele>240.0</ele><time>2026-05-02T08:19:55.995Z</time></trkpt><trkpt lat="44.4097283" lon="10.9259983"><ele>240.0</ele><time>2026-05-02T08:19:56.996Z</time></trkpt><trkpt lat="44.4096183" lon="10.92594"><ele>240.0</ele><time>2026-05-02T08:19:57.994Z</time></trkpt><trkpt lat="44.4095033" lon="10.9259067"><ele>238.8</ele><time>2026-05-02T08:19:58.994Z</time></trkpt><trkpt lat="44.40939" lon="10.9258867"><ele>237.6</ele><time>2026-05-02T08:19:59.995Z</time></trkpt><trkpt lat="44.4092833" lon="10.9258683"><ele>236.39999999999998</ele><time>2026-05-02T08:20:00.997Z</time></trkpt><trkpt lat="44.4091783" lon="10.925845"><ele>235.2</ele><time>2026-05-02T08:20:01.997Z</time></trkpt><trkpt lat="44.4090833" lon="10.9258"><ele>234.0</ele><time>2026-05-02T08:20:02.998Z</time></trkpt><trkpt lat="44.408995" lon="10.925745"><ele>234.0</ele><time>2026-05-02T08:20:03.996Z</time></trkpt><trkpt lat="44.408905" lon="10.9256967"><ele>233.99999999999997</ele><time>2026-05-02T08:20:04.993Z</time></trkpt><trkpt lat="44.40881" lon="10.9256683"><ele>233.99999999999997</ele><time>2026-05-02T08:20:05.995Z</time></trkpt><trkpt lat="44.4087117" lon="10.925655"><ele>234.0</ele><time>2026-05-02T08:20:06.995Z</time></trkpt><trkpt lat="44.4086183" lon="10.9256683"><ele>234.0</ele><time>2026-05-02T08:20:07.996Z</time></trkpt><trkpt lat="44.4085217" lon="10.9257067"><ele>234.79999999999998</ele><time>2026-05-02T08:20:08.995Z</time></trkpt><trkpt lat="44.4084183" lon="10.92576"><ele>235.59999999999997</ele><time>2026-05-02T08:20:09.996Z</time></trkpt><trkpt lat="44.40832" lon="10.9258167"><ele>236.4</ele><time>2026-05-02T08:20:10.994Z</time></trkpt><trkpt lat="44.4082317" lon="10.925875"><ele>237.2</ele><time>2026-05-02T08:20:11.994Z</time></trkpt><trkpt lat="44.4081567" lon="10.9259233"><ele>238.0</ele><time>2026-05-02T08:20:12.994Z</time></trkpt><trkpt lat="44.4080883" lon="10.9259517"><ele>237.16666666666666</ele><time>2026-05-02T08:20:13.995Z</time></trkpt><trkpt lat="44.4080167" lon="10.9259417"><ele>236.33333333333331</ele><time>2026-05-02T08:20:14.995Z</time></trkpt><trkpt lat="44.407935" lon="10.9259083"><ele>235.5</ele><time>2026-05-02T08:20:15.996Z</time></trkpt><trkpt lat="44.4078433" lon="10.9258767"><ele>234.66666666666669</ele><time>2026-05-02T08:20:16.996Z</time></trkpt><trkpt lat="44.40775" lon="10.9258617"><ele>233.83333333333334</ele><time>2026-05-02T08:20:17.995Z</time></trkpt><trkpt lat="44.40765" lon="10.9258667"><ele>233.0</ele><time>2026-05-02T08:20:18.996Z</time></trkpt><trkpt lat="44.4075483" lon="10.925885"><ele>232.2</ele><time>2026-05-02T08:20:19.994Z</time></trkpt><trkpt lat="44.4074483" lon="10.92592"><ele>231.4</ele><time>2026-05-02T08:20:20.993Z</time></trkpt><trkpt lat="44.4073483" lon="10.925965"><ele>230.59999999999997</ele><time>2026-05-02T08:20:21.995Z</time></trkpt><trkpt lat="44.4072567" lon="10.92601"><ele>229.79999999999998</ele><time>2026-05-02T08:20:22.995Z</time></trkpt><trkpt lat="44.4071767" lon="10.9260583"><ele>229.0</ele><time>2026-05-02T08:20:23.995Z</time></trkpt><trkpt lat="44.4071117" lon="10.9261183"><ele>228.99999999999997</ele><time>2026-05-02T08:20:24.995Z</time></trkpt><trkpt lat="44.4070667" lon="10.9261967"><ele>229.0</ele><time>2026-05-02T08:20:25.996Z</time></trkpt><trkpt lat="44.4070367" lon="10.9262883"><ele>229.0</ele><time>2026-05-02T08:20:26.995Z</time></trkpt><trkpt lat="44.4070333" lon="10.9264"><ele>229.0</ele><time>2026-05-02T08:20:27.996Z</time></trkpt><trkpt lat="44.4070567" lon="10.9265183"><ele>228.99999999999997</ele><time>2026-05-02T08:20:28.996Z</time></trkpt><trkpt lat="44.4071" lon="10.9266467"><ele>229.0</ele><time>2026-05-02T08:20:29.995Z</time></trkpt><trkpt lat="44.4071267" lon="10.9267733"><ele>231.79999999999998</ele><time>2026-05-02T08:20:30.996Z</time></trkpt><trkpt lat="44.407135" lon="10.9268933"><ele>234.59999999999997</ele><time>2026-05-02T08:20:31.995Z</time></trkpt><trkpt lat="44.4071133" lon="10.927"><ele>237.4</ele><time>2026-05-02T08:20:32.994Z</time></trkpt><trkpt lat="44.4070683" lon="10.927105"><ele>240.2</ele><time>2026-05-02T08:20:33.995Z</time></trkpt><trkpt lat="44.4070033" lon="10.92721"><ele>243.0</ele><time>2026-05-02T08:20:34.999Z</time></trkpt><trkpt lat="44.406905" lon="10.9273333"><ele>243.0</ele><time>2026-05-02T08:20:35.995Z</time></trkpt><trkpt lat="44.4068067" lon="10.9274467"><ele>243.0</ele><time>2026-05-02T08:20:36.997Z</time></trkpt><trkpt lat="44.4067217" lon="10.9275433"><ele>243.0</ele><time>2026-05-02T08:20:37.995Z</time></trkpt><trkpt lat="44.40664" lon="10.92765"><ele>243.0</ele><time>2026-05-02T08:20:38.995Z</time></trkpt><trkpt lat="44.4065583" lon="10.9277783"><ele>241.25</ele><time>2026-05-02T08:20:39.994Z</time></trkpt><trkpt lat="44.4064817" lon="10.92792"><ele>239.5</ele><time>2026-05-02T08:20:40.995Z</time></trkpt><trkpt lat="44.4064117" lon="10.928065"><ele>237.75</ele><time>2026-05-02T08:20:41.994Z</time></trkpt><trkpt lat="44.4063467" lon="10.9282117"><ele>236.0</ele><time>2026-05-02T08:20:42.997Z</time></trkpt><trkpt lat="44.40629" lon="10.9283517"><ele>237.4</ele><time>2026-05-02T08:20:43.996Z</time></trkpt><trkpt lat="44.4062367" lon="10.928485"><ele>238.8</ele><time>2026-05-02T08:20:44.996Z</time></trkpt><trkpt lat="44.406175" lon="10.9286"><ele>240.20000000000002</ele><time>2026-05-02T08:20:45.996Z</time></trkpt><trkpt lat="44.4060883" lon="10.928705"><ele>241.60000000000002</ele><time>2026-05-02T08:20:46.995Z</time></trkpt><trkpt lat="44.4059967" lon="10.9287883"><ele>243.0</ele><time>2026-05-02T08:20:47.994Z</time></trkpt><trkpt lat="44.4059117" lon="10.9288717"><ele>243.0</ele><time>2026-05-02T08:20:48.996Z</time></trkpt><trkpt lat="44.405835" lon="10.9289467"><ele>243.0</ele><time>2026-05-02T08:20:49.994Z</time></trkpt><trkpt lat="44.40577" lon="10.9290267"><ele>243.0</ele><time>2026-05-02T08:20:50.994Z</time></trkpt><trkpt lat="44.40572" lon="10.9291183"><ele>243.0</ele><time>2026-05-02T08:20:51.995Z</time></trkpt><trkpt lat="44.4056883" lon="10.9292317"><ele>243.0</ele><time>2026-05-02T08:20:52.997Z</time></trkpt><trkpt lat="44.4056767" lon="10.92937"><ele>243.0</ele><time>2026-05-02T08:20:53.996Z</time></trkpt><trkpt lat="44.4056767" lon="10.9295367"><ele>243.83333333333334</ele><time>2026-05-02T08:20:54.996Z</time></trkpt><trkpt lat="44.4056767" lon="10.9296867"><ele>244.66666666666669</ele><time>2026-05-02T08:20:55.994Z</time></trkpt><trkpt lat="44.4056733" lon="10.9298183"><ele>245.5</ele><time>2026-05-02T08:20:56.995Z</time></trkpt><trkpt lat="44.40566" lon="10.9299317"><ele>246.33333333333334</ele><time>2026-05-02T08:20:57.994Z</time></trkpt><trkpt lat="44.40564" lon="10.9300267"><ele>247.16666666666669</ele><time>2026-05-02T08:20:58.994Z</time></trkpt><trkpt lat="44.4056" lon="10.9301033"><ele>248.0</ele><time>2026-05-02T08:20:59.995Z</time></trkpt><trkpt lat="44.405545" lon="10.9301633"><ele>249.33333333333334</ele><time>2026-05-02T08:21:00.994Z</time></trkpt><trkpt lat="44.405465" lon="10.930215"><ele>250.66666666666669</ele><time>2026-05-02T08:21:01.995Z</time></trkpt><trkpt lat="44.4053783" lon="10.93024"><ele>252.0</ele><time>2026-05-02T08:21:02.995Z</time></trkpt><trkpt lat="44.4052983" lon="10.9302467"><ele>253.33333333333331</ele><time>2026-05-02T08:21:03.994Z</time></trkpt><trkpt lat="44.4052317" lon="10.9302067"><ele>254.66666666666666</ele><time>2026-05-02T08:21:04.996Z</time></trkpt><trkpt lat="44.40516" lon="10.9301583"><ele>256.0</ele><time>2026-05-02T08:21:05.996Z</time></trkpt><trkpt lat="44.4050933" lon="10.9300633"><ele>254.5</ele><time>2026-05-02T08:21:06.995Z</time></trkpt><trkpt lat="44.4050117" lon="10.929955"><ele>253.0</ele><time>2026-05-02T08:21:07.996Z</time></trkpt><trkpt lat="44.404925" lon="10.9298317"><ele>251.5</ele><time>2026-05-02T08:21:08.996Z</time></trkpt><trkpt lat="44.404835" lon="10.92971"><ele>250.0</ele><time>2026-05-02T08:21:09.996Z</time></trkpt><trkpt lat="44.4047467" lon="10.9295883"><ele>250.0</ele><time>2026-05-02T08:21:10.994Z</time></trkpt><trkpt lat="44.4046683" lon="10.9294767"><ele>250.0</ele><time>2026-05-02T08:21:11.993Z</time></trkpt><trkpt lat="44.4045983" lon="10.92938"><ele>250.0</ele><time>2026-05-02T08:21:12.994Z</time></trkpt><trkpt lat="44.4045417" lon="10.9292817"><ele>250.0</ele><time>2026-05-02T08:21:13.994Z</time></trkpt><trkpt lat="44.4045033" lon="10.9291833"><ele>250.0</ele><time>2026-05-02T08:21:14.994Z</time></trkpt><trkpt lat="44.4044783" lon="10.9290783"><ele>251.42857142857142</ele><time>2026-05-02T08:21:15.993Z</time></trkpt><trkpt lat="44.4044617" lon="10.9289733"><ele>252.8571428571429</ele><time>2026-05-02T08:21:16.997Z</time></trkpt><trkpt lat="44.4044367" lon="10.92888"><ele>254.2857142857143</ele><time>2026-05-02T08:21:17.995Z</time></trkpt><trkpt lat="44.4043983" lon="10.9288083"><ele>255.71428571428572</ele><time>2026-05-02T08:21:18.995Z</time></trkpt><trkpt lat="44.404345" lon="10.9287533"><ele>257.14285714285717</ele><time>2026-05-02T08:21:19.996Z</time></trkpt><trkpt lat="44.4042667" lon="10.9287367"><ele>258.5714285714286</ele><time>2026-05-02T08:21:20.993Z</time></trkpt><trkpt lat="44.40418" lon="10.928725"><ele>260.0</ele><time>2026-05-02T08:21:21.996Z</time></trkpt><trkpt lat="44.4040967" lon="10.9286967"><ele>260.0</ele><time>2026-05-02T08:21:22.996Z</time></trkpt><trkpt lat="44.4040233" lon="10.9286367"><ele>260.0</ele><time>2026-05-02T08:21:23.996Z</time></trkpt><trkpt lat="44.4039583" lon="10.9285467"><ele>260.0</ele><time>2026-05-02T08:21:24.995Z</time></trkpt><trkpt lat="44.403895" lon="10.9284317"><ele>260.0</ele><time>2026-05-02T08:21:25.995Z</time></trkpt><trkpt lat="44.4038217" lon="10.92831"><ele>260.0</ele><time>2026-05-02T08:21:26.994Z</time></trkpt><trkpt lat="44.403745" lon="10.9282067"><ele>262.4</ele><time>2026-05-02T08:21:27.993Z</time></trkpt><trkpt lat="44.40366" lon="10.9281333"><ele>264.8</ele><time>2026-05-02T08:21:28.993Z</time></trkpt><trkpt lat="44.403575" lon="10.92807"><ele>267.2</ele><time>2026-05-02T08:21:29.995Z</time></trkpt><trkpt lat="44.403505" lon="10.9279917"><ele>269.6</ele><time>2026-05-02T08:21:30.994Z</time></trkpt><trkpt lat="44.4034467" lon="10.9279"><ele>272.0</ele><time>2026-05-02T08:21:31.996Z</time></trkpt><trkpt lat="44.40339" lon="10.9277933"><ele>272.0</ele><time>2026-05-02T08:21:32.996Z</time></trkpt><trkpt lat="44.4033233" lon="10.9276833"><ele>272.0</ele><time>2026-05-02T08:21:33.995Z</time></trkpt><trkpt lat="44.403245" lon="10.9275717"><ele>272.0</ele><time>2026-05-02T08:21:34.996Z</time></trkpt><trkpt lat="44.4031633" lon="10.9274667"><ele>272.0</ele><time>2026-05-02T08:21:35.995Z</time></trkpt><trkpt lat="44.4030867" lon="10.9273717"><ele>272.0</ele><time>2026-05-02T08:21:36.996Z</time></trkpt><trkpt lat="44.40301" lon="10.9272867"><ele>271.8</ele><time>2026-05-02T08:21:37.995Z</time></trkpt><trkpt lat="44.402925" lon="10.9272133"><ele>271.6</ele><time>2026-05-02T08:21:38.996Z</time></trkpt><trkpt lat="44.4028367" lon="10.9271617"><ele>271.40000000000003</ele><time>2026-05-02T08:21:39.993Z</time></trkpt><trkpt lat="44.4027417" lon="10.92714"><ele>271.2</ele><time>2026-05-02T08:21:40.993Z</time></trkpt><trkpt lat="44.4026433" lon="10.9271567"><ele>271.0</ele><time>2026-05-02T08:21:41.995Z</time></trkpt><trkpt lat="44.4025417" lon="10.9272083"><ele>271.0</ele><time>2026-05-02T08:21:42.994Z</time></trkpt><trkpt lat="44.4024383" lon="10.9272717"><ele>271.0</ele><time>2026-05-02T08:21:43.994Z</time></trkpt><trkpt lat="44.40234" lon="10.9273267"><ele>271.0</ele><time>2026-05-02T08:21:44.995Z</time></trkpt><trkpt lat="44.4022483" lon="10.9273533"><ele>271.0</ele><time>2026-05-02T08:21:45.996Z</time></trkpt><trkpt lat="44.4021583" lon="10.9273467"><ele>271.0</ele><time>2026-05-02T08:21:46.992Z</time></trkpt><trkpt lat="44.4020617" lon="10.92733"><ele>271.6</ele><time>2026-05-02T08:21:47.994Z</time></trkpt><trkpt lat="44.4019583" lon="10.9273283"><ele>272.20000000000005</ele><time>2026-05-02T08:21:48.996Z</time></trkpt><trkpt lat="44.4018583" lon="10.9273417"><ele>272.79999999999995</ele><time>2026-05-02T08:21:49.998Z</time></trkpt><trkpt lat="44.401765" lon="10.92735"><ele>273.4</ele><time>2026-05-02T08:21:50.996Z</time></trkpt><trkpt lat="44.401675" lon="10.9273467"><ele>274.0</ele><time>2026-05-02T08:21:51.996Z</time></trkpt><trkpt lat="44.401595" lon="10.9273317"><ele>274.0</ele><time>2026-05-02T08:21:52.996Z</time></trkpt><trkpt lat="44.40152" lon="10.9273217"><ele>274.0</ele><time>2026-05-02T08:21:53.997Z</time></trkpt><trkpt lat="44.40145" lon="10.9273233"><ele>274.0</ele><time>2026-05-02T08:21:54.996Z</time></trkpt><trkpt lat="44.4013867" lon="10.9273333"><ele>274.0</ele><time>2026-05-02T08:21:55.995Z</time></trkpt><trkpt lat="44.4013267" lon="10.9273683"><ele>274.0</ele><time>2026-05-02T08:21:56.995Z</time></trkpt><trkpt lat="44.4012417" lon="10.9275017"><ele>274.0</ele><time>2026-05-02T08:21:58.996Z</time></trkpt><trkpt lat="44.4012233" lon="10.9276133"><ele>272.59999999999997</ele><time>2026-05-02T08:21:59.995Z</time></trkpt><trkpt lat="44.40122" lon="10.9277417"><ele>271.2</ele><time>2026-05-02T08:22:00.997Z</time></trkpt><trkpt lat="44.4012167" lon="10.9278783"><ele>269.79999999999995</ele><time>2026-05-02T08:22:01.996Z</time></trkpt><trkpt lat="44.4012017" lon="10.928005"><ele>268.4</ele><time>2026-05-02T08:22:02.996Z</time></trkpt><trkpt lat="44.401165" lon="10.9281217"><ele>267.0</ele><time>2026-05-02T08:22:03.995Z</time></trkpt><trkpt lat="44.401105" lon="10.9282217"><ele>267.0</ele><time>2026-05-02T08:22:04.996Z</time></trkpt><trkpt lat="44.401035" lon="10.9283"><ele>267.0</ele><time>2026-05-02T08:22:05.996Z</time></trkpt><trkpt lat="44.40097" lon="10.9283667"><ele>267.0</ele><time>2026-05-02T08:22:06.996Z</time></trkpt><trkpt lat="44.4009217" lon="10.928435"><ele>267.0</ele><time>2026-05-02T08:22:07.995Z</time></trkpt><trkpt lat="44.4009083" lon="10.9285867"><ele>267.0</ele><time>2026-05-02T08:22:09.995Z</time></trkpt><trkpt lat="44.40098" lon="10.928685"><ele>267.0</ele><time>2026-05-02T08:22:10.996Z</time></trkpt><trkpt lat="44.4010583" lon="10.9287817"><ele>266.4</ele><time>2026-05-02T08:22:11.995Z</time></trkpt><trkpt lat="44.4011483" lon="10.9288883"><ele>265.79999999999995</ele><time>2026-05-02T08:22:12.995Z</time></trkpt><trkpt lat="44.4012367" lon="10.9289933"><ele>265.2</ele><time>2026-05-02T08:22:13.995Z</time></trkpt><trkpt lat="44.4013217" lon="10.92909"><ele>264.59999999999997</ele><time>2026-05-02T08:22:14.994Z</time></trkpt><trkpt lat="44.4013883" lon="10.92918"><ele>264.0</ele><time>2026-05-02T08:22:15.994Z</time></trkpt><trkpt lat="44.4014367" lon="10.9292733"><ele>264.0</ele><time>2026-05-02T08:22:16.995Z</time></trkpt><trkpt lat="44.401455" lon="10.9293783"><ele>264.0</ele><time>2026-05-02T08:22:17.995Z</time></trkpt><trkpt lat="44.40142" lon="10.9294967"><ele>264.0</ele><time>2026-05-02T08:22:18.998Z</time></trkpt><trkpt lat="44.4013683" lon="10.929625"><ele>264.0</ele><time>2026-05-02T08:22:19.995Z</time></trkpt><trkpt lat="44.4013083" lon="10.929745"><ele>264.0</ele><time>2026-05-02T08:22:20.995Z</time></trkpt><trkpt lat="44.4012417" lon="10.929855"><ele>264.0</ele><time>2026-05-02T08:22:21.996Z</time></trkpt><trkpt lat="44.4011733" lon="10.9299533"><ele>264.0</ele><time>2026-05-02T08:22:22.992Z</time></trkpt><trkpt lat="44.4010967" lon="10.930045"><ele>264.0</ele><time>2026-05-02T08:22:23.995Z</time></trkpt><trkpt lat="44.4010183" lon="10.93014"><ele>264.0</ele><time>2026-05-02T08:22:24.997Z</time></trkpt><trkpt lat="44.4009383" lon="10.9302383"><ele>264.0</ele><time>2026-05-02T08:22:25.996Z</time></trkpt><trkpt lat="44.40087" lon="10.9303333"><ele>267.3333333333333</ele><time>2026-05-02T08:22:26.995Z</time></trkpt><trkpt lat="44.4008017" lon="10.9304333"><ele>270.6666666666667</ele><time>2026-05-02T08:22:27.994Z</time></trkpt><trkpt lat="44.400735" lon="10.9305317"><ele>274.0</ele><time>2026-05-02T08:22:28.995Z</time></trkpt><trkpt lat="44.4006767" lon="10.9306233"><ele>277.33333333333337</ele><time>2026-05-02T08:22:29.996Z</time></trkpt><trkpt lat="44.4006267" lon="10.9307133"><ele>280.6666666666667</ele><time>2026-05-02T08:22:30.996Z</time></trkpt><trkpt lat="44.40058" lon="10.9308017"><ele>284.0</ele><time>2026-05-02T08:22:31.997Z</time></trkpt><trkpt lat="44.4005267" lon="10.930875"><ele>280.33333333333337</ele><time>2026-05-02T08:22:32.992Z</time></trkpt><trkpt lat="44.40047" lon="10.9309383"><ele>276.6666666666667</ele><time>2026-05-02T08:22:33.993Z</time></trkpt><trkpt lat="44.4003583" lon="10.9308867"><ele>273.0</ele><time>2026-05-02T08:22:35.664Z</time></trkpt><trkpt lat="44.4000633" lon="10.930595"><ele>273.0</ele><time>2026-05-02T08:22:36.858Z</time></trkpt><trkpt lat="44.4000033" lon="10.9309367"><ele>273.0</ele><time>2026-05-02T08:22:38.993Z</time></trkpt><trkpt lat="44.39996" lon="10.9310533"><ele>273.0</ele><time>2026-05-02T08:22:39.992Z</time></trkpt><trkpt lat="44.3999" lon="10.931135"><ele>273.0</ele><time>2026-05-02T08:22:40.993Z</time></trkpt><trkpt lat="44.39984" lon="10.931245"><ele>273.0</ele><time>2026-05-02T08:22:41.994Z</time></trkpt><trkpt lat="44.39979" lon="10.93136"><ele>273.0</ele><time>2026-05-02T08:22:42.994Z</time></trkpt><trkpt lat="44.3997517" lon="10.93148"><ele>273.0</ele><time>2026-05-02T08:22:43.994Z</time></trkpt><trkpt lat="44.3997183" lon="10.9316333"><ele>273.0</ele><time>2026-05-02T08:22:44.994Z</time></trkpt><trkpt lat="44.3996917" lon="10.93177"><ele>273.0</ele><time>2026-05-02T08:22:45.994Z</time></trkpt><trkpt lat="44.399665" lon="10.9319"><ele>271.0</ele><time>2026-05-02T08:22:46.993Z</time></trkpt><trkpt lat="44.3996383" lon="10.9320117"><ele>269.0</ele><time>2026-05-02T08:22:47.993Z</time></trkpt><trkpt lat="44.3996117" lon="10.9321067"><ele>267.0</ele><time>2026-05-02T08:22:48.993Z</time></trkpt><trkpt lat="44.3995717" lon="10.93219"><ele>265.0</ele><time>2026-05-02T08:22:49.993Z</time></trkpt><trkpt lat="44.3995167" lon="10.932265"><ele>263.0</ele><time>2026-05-02T08:22:50.994Z</time></trkpt><trkpt lat="44.3994317" lon="10.932325"><ele>261.0</ele><time>2026-05-02T08:22:51.994Z</time></trkpt><trkpt lat="44.3993533" lon="10.932375"><ele>261.0</ele><time>2026-05-02T08:22:52.992Z</time></trkpt><trkpt lat="44.399285" lon="10.9324117"><ele>261.0</ele><time>2026-05-02T08:22:53.993Z</time></trkpt><trkpt lat="44.39922" lon="10.932445"><ele>261.0</ele><time>2026-05-02T08:22:54.994Z</time></trkpt><trkpt lat="44.3991567" lon="10.9324983"><ele>261.0</ele><time>2026-05-02T08:22:55.994Z</time></trkpt><trkpt lat="44.3990983" lon="10.9325767"><ele>261.0</ele><time>2026-05-02T08:22:56.993Z</time></trkpt><trkpt lat="44.3990417" lon="10.9326733"><ele>261.0</ele><time>2026-05-02T08:22:57.995Z</time></trkpt><trkpt lat="44.3989717" lon="10.9327867"><ele>259.2</ele><time>2026-05-02T08:22:58.995Z</time></trkpt><trkpt lat="44.3989017" lon="10.9328917"><ele>257.40000000000003</ele><time>2026-05-02T08:22:59.998Z</time></trkpt><trkpt lat="44.3988317" lon="10.932995"><ele>255.6</ele><time>2026-05-02T08:23:00.993Z</time></trkpt><trkpt lat="44.3987567" lon="10.93308"><ele>253.8</ele><time>2026-05-02T08:23:01.993Z</time></trkpt><trkpt lat="44.3986767" lon="10.9331567"><ele>252.0</ele><time>2026-05-02T08:23:02.996Z</time></trkpt><trkpt lat="44.3985933" lon="10.933225"><ele>252.0</ele><time>2026-05-02T08:23:03.993Z</time></trkpt><trkpt lat="44.3985117" lon="10.93329"><ele>252.0</ele><time>2026-05-02T08:23:04.994Z</time></trkpt><trkpt lat="44.3984367" lon="10.93336"><ele>252.0</ele><time>2026-05-02T08:23:05.993Z</time></trkpt><trkpt lat="44.39837" lon="10.9334467"><ele>252.0</ele><time>2026-05-02T08:23:06.993Z</time></trkpt><trkpt lat="44.3983167" lon="10.9335667"><ele>252.0</ele><time>2026-05-02T08:23:07.994Z</time></trkpt><trkpt lat="44.39827" lon="10.9337017"><ele>256.4</ele><time>2026-05-02T08:23:08.993Z</time></trkpt><trkpt lat="44.39823" lon="10.9338367"><ele>260.79999999999995</ele><time>2026-05-02T08:23:09.993Z</time></trkpt><trkpt lat="44.3981883" lon="10.9339633"><ele>265.2</ele><time>2026-05-02T08:23:10.993Z</time></trkpt><trkpt lat="44.39814" lon="10.93408"><ele>269.59999999999997</ele><time>2026-05-02T08:23:11.993Z</time></trkpt><trkpt lat="44.39808" lon="10.9341817"><ele>274.0</ele><time>2026-05-02T08:23:12.993Z</time></trkpt><trkpt lat="44.3980067" lon="10.93427"><ele>273.2</ele><time>2026-05-02T08:23:13.993Z</time></trkpt><trkpt lat="44.3979133" lon="10.934355"><ele>272.4</ele><time>2026-05-02T08:23:14.993Z</time></trkpt><trkpt lat="44.39782" lon="10.9344267"><ele>271.6</ele><time>2026-05-02T08:23:15.993Z</time></trkpt><trkpt lat="44.39773" lon="10.9344817"><ele>270.8</ele><time>2026-05-02T08:23:16.995Z</time></trkpt><trkpt lat="44.39764" lon="10.9345217"><ele>270.0</ele><time>2026-05-02T08:23:17.995Z</time></trkpt><trkpt lat="44.397555" lon="10.934565"><ele>270.0</ele><time>2026-05-02T08:23:18.994Z</time></trkpt><trkpt lat="44.3974733" lon="10.9346033"><ele>270.0</ele><time>2026-05-02T08:23:19.993Z</time></trkpt><trkpt lat="44.3974" lon="10.9346483"><ele>270.0</ele><time>2026-05-02T08:23:20.994Z</time></trkpt><trkpt lat="44.39733" lon="10.9346883"><ele>270.0</ele><time>2026-05-02T08:23:21.993Z</time></trkpt><trkpt lat="44.3972567" lon="10.9347433"><ele>270.0</ele><time>2026-05-02T08:23:22.995Z</time></trkpt><trkpt lat="44.3971833" lon="10.93482"><ele>270.0</ele><time>2026-05-02T08:23:23.994Z</time></trkpt><trkpt lat="44.3971283" lon="10.9349133"><ele>267.6</ele><time>2026-05-02T08:23:24.997Z</time></trkpt><trkpt lat="44.397085" lon="10.93502"><ele>265.2</ele><time>2026-05-02T08:23:25.994Z</time></trkpt><trkpt lat="44.397055" lon="10.9351433"><ele>262.8</ele><time>2026-05-02T08:23:26.993Z</time></trkpt><trkpt lat="44.397035" lon="10.9352733"><ele>260.4</ele><time>2026-05-02T08:23:27.994Z</time></trkpt><trkpt lat="44.397015" lon="10.9354067"><ele>258.0</ele><time>2026-05-02T08:23:28.994Z</time></trkpt><trkpt lat="44.3969883" lon="10.9355367"><ele>258.0</ele><time>2026-05-02T08:23:29.993Z</time></trkpt><trkpt lat="44.3969467" lon="10.9356583"><ele>258.0</ele><time>2026-05-02T08:23:30.994Z</time></trkpt><trkpt lat="44.39689" lon="10.9357767"><ele>258.0</ele><time>2026-05-02T08:23:31.995Z</time></trkpt><trkpt lat="44.396825" lon="10.9358867"><ele>258.0</ele><time>2026-05-02T08:23:32.994Z</time></trkpt><trkpt lat="44.39676" lon="10.9359867"><ele>258.0</ele><time>2026-05-02T08:23:33.994Z</time></trkpt><trkpt lat="44.3966933" lon="10.9360867"><ele>260.6666666666667</ele><time>2026-05-02T08:23:34.994Z</time></trkpt><trkpt lat="44.3966233" lon="10.9361867"><ele>263.3333333333333</ele><time>2026-05-02T08:23:35.995Z</time></trkpt><trkpt lat="44.39656" lon="10.936285"><ele>266.0</ele><time>2026-05-02T08:23:36.993Z</time></trkpt><trkpt lat="44.3965133" lon="10.93638"><ele>268.66666666666663</ele><time>2026-05-02T08:23:37.993Z</time></trkpt><trkpt lat="44.3964833" lon="10.9364833"><ele>271.3333333333333</ele><time>2026-05-02T08:23:38.993Z</time></trkpt><trkpt lat="44.3964733" lon="10.9365967"><ele>274.0</ele><time>2026-05-02T08:23:39.995Z</time></trkpt><trkpt lat="44.3964733" lon="10.9367233"><ele>275.0</ele><time>2026-05-02T08:23:40.993Z</time></trkpt><trkpt lat="44.3964883" lon="10.936855"><ele>276.0</ele><time>2026-05-02T08:23:41.994Z</time></trkpt><trkpt lat="44.3965217" lon="10.9370067"><ele>277.0</ele><time>2026-05-02T08:23:42.994Z</time></trkpt><trkpt lat="44.3965567" lon="10.9371467"><ele>278.0</ele><time>2026-05-02T08:23:43.995Z</time></trkpt><trkpt lat="44.3965817" lon="10.93728"><ele>279.0</ele><time>2026-05-02T08:23:44.993Z</time></trkpt><trkpt lat="44.396595" lon="10.93742"><ele>279.0</ele><time>2026-05-02T08:23:45.994Z</time></trkpt><trkpt lat="44.3965983" lon="10.9375717"><ele>279.0</ele><time>2026-05-02T08:23:46.995Z</time></trkpt><trkpt lat="44.3966" lon="10.9377333"><ele>279.0</ele><time>2026-05-02T08:23:47.994Z</time></trkpt><trkpt lat="44.3965983" lon="10.9378917"><ele>279.0</ele><time>2026-05-02T08:23:48.994Z</time></trkpt><trkpt lat="44.3966017" lon="10.9380583"><ele>279.0</ele><time>2026-05-02T08:23:49.994Z</time></trkpt><trkpt lat="44.3966083" lon="10.93823"><ele>279.0</ele><time>2026-05-02T08:23:50.994Z</time></trkpt><trkpt lat="44.3966167" lon="10.9384"><ele>279.0</ele><time>2026-05-02T08:23:51.994Z</time></trkpt><trkpt lat="44.396625" lon="10.93857"><ele>279.0</ele><time>2026-05-02T08:23:52.993Z</time></trkpt><trkpt lat="44.3966367" lon="10.938735"><ele>279.59999999999997</ele><time>2026-05-02T08:23:53.994Z</time></trkpt><trkpt lat="44.396645" lon="10.9388917"><ele>280.2</ele><time>2026-05-02T08:23:54.995Z</time></trkpt><trkpt lat="44.3966517" lon="10.9390383"><ele>280.79999999999995</ele><time>2026-05-02T08:23:55.994Z</time></trkpt><trkpt lat="44.3966533" lon="10.9391817"><ele>281.4</ele><time>2026-05-02T08:23:56.993Z</time></trkpt><trkpt lat="44.3966583" lon="10.939325"><ele>282.0</ele><time>2026-05-02T08:23:57.994Z</time></trkpt><trkpt lat="44.3966633" lon="10.9394667"><ele>282.2</ele><time>2026-05-02T08:23:58.993Z</time></trkpt><trkpt lat="44.3966717" lon="10.9396067"><ele>282.4</ele><time>2026-05-02T08:23:59.995Z</time></trkpt><trkpt lat="44.396675" lon="10.9397417"><ele>282.6</ele><time>2026-05-02T08:24:00.997Z</time></trkpt><trkpt lat="44.396675" lon="10.9398867"><ele>282.8</ele><time>2026-05-02T08:24:01.993Z</time></trkpt><trkpt lat="44.396675" lon="10.94004"><ele>283.0</ele><time>2026-05-02T08:24:02.994Z</time></trkpt><trkpt lat="44.396685" lon="10.940205"><ele>284.4</ele><time>2026-05-02T08:24:03.996Z</time></trkpt><trkpt lat="44.3966933" lon="10.9403617"><ele>285.8</ele><time>2026-05-02T08:24:04.995Z</time></trkpt><trkpt lat="44.396705" lon="10.94051"><ele>287.2</ele><time>2026-05-02T08:24:05.996Z</time></trkpt><trkpt lat="44.3967183" lon="10.9406483"><ele>288.6</ele><time>2026-05-02T08:24:06.994Z</time></trkpt><trkpt lat="44.39672" lon="10.9407967"><ele>290.0</ele><time>2026-05-02T08:24:07.995Z</time></trkpt><trkpt lat="44.3967133" lon="10.9409417"><ele>293.2</ele><time>2026-05-02T08:24:08.993Z</time></trkpt><trkpt lat="44.3966883" lon="10.9410783"><ele>296.4</ele><time>2026-05-02T08:24:09.993Z</time></trkpt><trkpt lat="44.396645" lon="10.9412017"><ele>299.6</ele><time>2026-05-02T08:24:10.994Z</time></trkpt><trkpt lat="44.3965783" lon="10.9413117"><ele>302.8</ele><time>2026-05-02T08:24:11.994Z</time></trkpt><trkpt lat="44.3965017" lon="10.9414233"><ele>306.0</ele><time>2026-05-02T08:24:12.994Z</time></trkpt><trkpt lat="44.3964233" lon="10.9415233"><ele>306.0</ele><time>2026-05-02T08:24:13.994Z</time></trkpt><trkpt lat="44.3963467" lon="10.9416067"><ele>306.0</ele><time>2026-05-02T08:24:14.993Z</time></trkpt><trkpt lat="44.3962733" lon="10.9416683"><ele>306.0</ele><time>2026-05-02T08:24:15.993Z</time></trkpt><trkpt lat="44.3961983" lon="10.941725"><ele>306.0</ele><time>2026-05-02T08:24:16.994Z</time></trkpt><trkpt lat="44.39612" lon="10.94178"><ele>306.0</ele><time>2026-05-02T08:24:17.993Z</time></trkpt><trkpt lat="44.39604" lon="10.941845"><ele>306.0</ele><time>2026-05-02T08:24:18.994Z</time></trkpt><trkpt lat="44.3959617" lon="10.9419233"><ele>305.5</ele><time>2026-05-02T08:24:19.994Z</time></trkpt><trkpt lat="44.3958917" lon="10.9420033"><ele>305.0</ele><time>2026-05-02T08:24:20.992Z</time></trkpt><trkpt lat="44.3958333" lon="10.9420833"><ele>304.5</ele><time>2026-05-02T08:24:21.993Z</time></trkpt><trkpt lat="44.39578" lon="10.9421583"><ele>304.0</ele><time>2026-05-02T08:24:22.994Z</time></trkpt><trkpt lat="44.3957233" lon="10.9422183"><ele>303.5</ele><time>2026-05-02T08:24:23.994Z</time></trkpt><trkpt lat="44.395655" lon="10.9422583"><ele>303.0</ele><time>2026-05-02T08:24:24.994Z</time></trkpt><trkpt lat="44.3955833" lon="10.94228"><ele>303.0</ele><time>2026-05-02T08:24:25.997Z</time></trkpt><trkpt lat="44.395515" lon="10.9423217"><ele>303.0</ele><time>2026-05-02T08:24:26.995Z</time></trkpt><trkpt lat="44.395455" lon="10.942395"><ele>303.0</ele><time>2026-05-02T08:24:27.994Z</time></trkpt><trkpt lat="44.3953933" lon="10.94251"><ele>303.0</ele><time>2026-05-02T08:24:28.996Z</time></trkpt><trkpt lat="44.395325" lon="10.942635"><ele>303.0</ele><time>2026-05-02T08:24:29.995Z</time></trkpt><trkpt lat="44.3952467" lon="10.94277"><ele>302.6</ele><time>2026-05-02T08:24:30.993Z</time></trkpt><trkpt lat="44.3951683" lon="10.9429033"><ele>302.20000000000005</ele><time>2026-05-02T08:24:31.996Z</time></trkpt><trkpt lat="44.3951017" lon="10.9430267"><ele>301.8</ele><time>2026-05-02T08:24:32.993Z</time></trkpt><trkpt lat="44.3950433" lon="10.94314"><ele>301.40000000000003</ele><time>2026-05-02T08:24:33.994Z</time></trkpt><trkpt lat="44.39499" lon="10.943255"><ele>301.0</ele><time>2026-05-02T08:24:34.993Z</time></trkpt><trkpt lat="44.3949517" lon="10.9433683"><ele>302.5</ele><time>2026-05-02T08:24:35.993Z</time></trkpt><trkpt lat="44.3949233" lon="10.9434767"><ele>304.0</ele><time>2026-05-02T08:24:36.995Z</time></trkpt><trkpt lat="44.3949083" lon="10.9435733"><ele>305.5</ele><time>2026-05-02T08:24:37.993Z</time></trkpt><trkpt lat="44.3949117" lon="10.9437233"><ele>307.0</ele><time>2026-05-02T08:24:39.995Z</time></trkpt><trkpt lat="44.3949333" lon="10.9438483"><ele>308.5</ele><time>2026-05-02T08:24:41.996Z</time></trkpt><trkpt lat="44.3949467" lon="10.943955"><ele>310.0</ele><time>2026-05-02T08:24:43.996Z</time></trkpt><trkpt lat="44.3949183" lon="10.9440617"><ele>310.0</ele><time>2026-05-02T08:24:45.995Z</time></trkpt><trkpt lat="44.39488" lon="10.94414"><ele>310.0</ele><time>2026-05-02T08:24:46.995Z</time></trkpt><trkpt lat="44.3948233" lon="10.9442367"><ele>310.0</ele><time>2026-05-02T08:24:47.993Z</time></trkpt><trkpt lat="44.3947733" lon="10.9443333"><ele>310.0</ele><time>2026-05-02T08:24:48.994Z</time></trkpt><trkpt lat="44.3947133" lon="10.9444367"><ele>310.0</ele><time>2026-05-02T08:24:49.994Z</time></trkpt><trkpt lat="44.3946383" lon="10.9445317"><ele>310.0</ele><time>2026-05-02T08:24:50.994Z</time></trkpt><trkpt lat="44.394555" lon="10.944595"><ele>308.3333333333333</ele><time>2026-05-02T08:24:51.994Z</time></trkpt><trkpt lat="44.3944733" lon="10.9446467"><ele>306.66666666666663</ele><time>2026-05-02T08:24:52.993Z</time></trkpt><trkpt lat="44.3943967" lon="10.9446983"><ele>305.0</ele><time>2026-05-02T08:24:53.994Z</time></trkpt><trkpt lat="44.394325" lon="10.9447383"><ele>303.3333333333333</ele><time>2026-05-02T08:24:54.993Z</time></trkpt><trkpt lat="44.3942467" lon="10.944755"><ele>301.6666666666667</ele><time>2026-05-02T08:24:55.995Z</time></trkpt><trkpt lat="44.394175" lon="10.9447483"><ele>300.0</ele><time>2026-05-02T08:24:56.994Z</time></trkpt><trkpt lat="44.3941133" lon="10.9447283"><ele>300.0</ele><time>2026-05-02T08:24:57.994Z</time></trkpt><trkpt lat="44.3940433" lon="10.9446867"><ele>300.0</ele><time>2026-05-02T08:24:59.996Z</time></trkpt><trkpt lat="44.39397" lon="10.9446767"><ele>300.0</ele><time>2026-05-02T08:26:35.993Z</time></trkpt><trkpt lat="44.39387" lon="10.9446517"><ele>300.0</ele><time>2026-05-02T08:26:37.995Z</time></trkpt><trkpt lat="44.39376" lon="10.94462"><ele>300.0</ele><time>2026-05-02T08:26:39.994Z</time></trkpt><trkpt lat="44.393655" lon="10.9446067"><ele>300.8</ele><time>2026-05-02T08:26:41.997Z</time></trkpt><trkpt lat="44.3935483" lon="10.9446083"><ele>301.6</ele><time>2026-05-02T08:26:43.995Z</time></trkpt><trkpt lat="44.3934333" lon="10.9446483"><ele>302.4</ele><time>2026-05-02T08:26:45.993Z</time></trkpt><trkpt lat="44.393335" lon="10.9447267"><ele>303.2</ele><time>2026-05-02T08:26:47.996Z</time></trkpt><trkpt lat="44.393285" lon="10.944785"><ele>304.0</ele><time>2026-05-02T08:26:48.996Z</time></trkpt><trkpt lat="44.3932383" lon="10.94485"><ele>304.0</ele><time>2026-05-02T08:26:49.996Z</time></trkpt><trkpt lat="44.3931533" lon="10.9449717"><ele>304.0</ele><time>2026-05-02T08:26:51.995Z</time></trkpt><trkpt lat="44.393065" lon="10.9450733"><ele>304.0</ele><time>2026-05-02T08:26:53.996Z</time></trkpt><trkpt lat="44.3929883" lon="10.9451233"><ele>304.0</ele><time>2026-05-02T08:26:55.995Z</time></trkpt><trkpt lat="44.3929" lon="10.9451383"><ele>304.0</ele><time>2026-05-02T08:26:57.995Z</time></trkpt><trkpt lat="44.3928233" lon="10.9451233"><ele>306.0</ele><time>2026-05-02T08:26:59.996Z</time></trkpt><trkpt lat="44.392765" lon="10.9450633"><ele>308.0</ele><time>2026-05-02T08:27:01.995Z</time></trkpt><trkpt lat="44.3926967" lon="10.9450017"><ele>310.0</ele><time>2026-05-02T08:27:03.995Z</time></trkpt><trkpt lat="44.3925933" lon="10.9449383"><ele>312.0</ele><time>2026-05-02T08:27:05.994Z</time></trkpt><trkpt lat="44.392495" lon="10.9449567"><ele>314.0</ele><time>2026-05-02T08:27:07.994Z</time></trkpt><trkpt lat="44.3924033" lon="10.94503"><ele>314.0</ele><time>2026-05-02T08:27:09.995Z</time></trkpt><trkpt lat="44.3923317" lon="10.9451783"><ele>314.0</ele><time>2026-05-02T08:27:11.996Z</time></trkpt><trkpt lat="44.3922883" lon="10.9452467"><ele>314.0</ele><time>2026-05-02T08:27:12.994Z</time></trkpt><trkpt lat="44.392235" lon="10.9453"><ele>314.0</ele><time>2026-05-02T08:27:13.993Z</time></trkpt><trkpt lat="44.3921733" lon="10.9453333"><ele>314.0</ele><time>2026-05-02T08:27:14.995Z</time></trkpt><trkpt lat="44.392105" lon="10.9453583"><ele>314.0</ele><time>2026-05-02T08:27:15.996Z</time></trkpt><trkpt lat="44.3920333" lon="10.94538"><ele>316.2857142857143</ele><time>2026-05-02T08:27:16.995Z</time></trkpt><trkpt lat="44.391955" lon="10.9453867"><ele>318.57142857142856</ele><time>2026-05-02T08:27:17.996Z</time></trkpt><trkpt lat="44.3918783" lon="10.9454017"><ele>320.8571428571429</ele><time>2026-05-02T08:27:18.997Z</time></trkpt><trkpt lat="44.3918" lon="10.9454167"><ele>323.1428571428571</ele><time>2026-05-02T08:27:19.996Z</time></trkpt><trkpt lat="44.391725" lon="10.945435"><ele>325.42857142857144</ele><time>2026-05-02T08:27:20.995Z</time></trkpt><trkpt lat="44.3916617" lon="10.9454433"><ele>327.7142857142857</ele><time>2026-05-02T08:27:21.996Z</time></trkpt><trkpt lat="44.3915983" lon="10.9454517"><ele>330.0</ele><time>2026-05-02T08:27:22.993Z</time></trkpt><trkpt lat="44.3915317" lon="10.9454617"><ele>330.0</ele><time>2026-05-02T08:27:23.994Z</time></trkpt><trkpt lat="44.3914583" lon="10.9454767"><ele>330.0</ele><time>2026-05-02T08:27:24.996Z</time></trkpt><trkpt lat="44.3913783" lon="10.945495"><ele>330.0</ele><time>2026-05-02T08:27:25.995Z</time></trkpt><trkpt lat="44.3912933" lon="10.9455183"><ele>330.0</ele><time>2026-05-02T08:27:26.996Z</time></trkpt><trkpt lat="44.39121" lon="10.9455567"><ele>330.0</ele><time>2026-05-02T08:27:27.995Z</time></trkpt><trkpt lat="44.3911283" lon="10.9455867"><ele>330.0</ele><time>2026-05-02T08:27:28.995Z</time></trkpt><trkpt lat="44.3910567" lon="10.9456133"><ele>330.6</ele><time>2026-05-02T08:27:29.994Z</time></trkpt><trkpt lat="44.3909517" lon="10.94563"><ele>331.2</ele><time>2026-05-02T08:27:31.997Z</time></trkpt><trkpt lat="44.3908933" lon="10.94555"><ele>331.79999999999995</ele><time>2026-05-02T08:27:33.993Z</time></trkpt><trkpt lat="44.3908983" lon="10.94542"><ele>332.4</ele><time>2026-05-02T08:27:35.994Z</time></trkpt><trkpt lat="44.3909583" lon="10.9453267"><ele>333.0</ele><time>2026-05-02T08:27:37.994Z</time></trkpt><trkpt lat="44.39106" lon="10.9452683"><ele>333.0</ele><time>2026-05-02T08:27:39.994Z</time></trkpt><trkpt lat="44.3911167" lon="10.94515"><ele>333.0</ele><time>2026-05-02T08:27:41.995Z</time></trkpt><trkpt lat="44.391065" lon="10.9450667"><ele>333.0</ele><time>2026-05-02T08:27:43.994Z</time></trkpt><trkpt lat="44.3909717" lon="10.9450217"><ele>333.0</ele><time>2026-05-02T08:27:45.994Z</time></trkpt><trkpt lat="44.3909083" lon="10.9449983"><ele>333.0</ele><time>2026-05-02T08:27:46.995Z</time></trkpt><trkpt lat="44.39085" lon="10.9449617"><ele>333.0</ele><time>2026-05-02T08:27:47.994Z</time></trkpt><trkpt lat="44.3907883" lon="10.9449117"><ele>333.8333333333333</ele><time>2026-05-02T08:27:48.995Z</time></trkpt><trkpt lat="44.3907383" lon="10.94484"><ele>334.6666666666667</ele><time>2026-05-02T08:27:49.997Z</time></trkpt><trkpt lat="44.3906917" lon="10.9447467"><ele>335.5</ele><time>2026-05-02T08:27:50.996Z</time></trkpt><trkpt lat="44.3906417" lon="10.9446533"><ele>336.33333333333337</ele><time>2026-05-02T08:27:51.995Z</time></trkpt><trkpt lat="44.3905817" lon="10.94456"><ele>337.1666666666667</ele><time>2026-05-02T08:27:52.996Z</time></trkpt><trkpt lat="44.3905117" lon="10.94449"><ele>338.0</ele><time>2026-05-02T08:27:53.996Z</time></trkpt><trkpt lat="44.390435" lon="10.94443"><ele>338.0</ele><time>2026-05-02T08:27:54.996Z</time></trkpt><trkpt lat="44.3903583" lon="10.9443717"><ele>338.0</ele><time>2026-05-02T08:27:55.996Z</time></trkpt><trkpt lat="44.3902883" lon="10.9443183"><ele>338.0</ele><time>2026-05-02T08:27:56.993Z</time></trkpt><trkpt lat="44.3902217" lon="10.9442633"><ele>338.0</ele><time>2026-05-02T08:27:57.995Z</time></trkpt><trkpt lat="44.3901683" lon="10.9442083"><ele>338.0</ele><time>2026-05-02T08:27:58.996Z</time></trkpt><trkpt lat="44.3901283" lon="10.94414"><ele>338.0</ele><time>2026-05-02T08:27:59.995Z</time></trkpt><trkpt lat="44.3901083" lon="10.9440533"><ele>338.0</ele><time>2026-05-02T08:28:00.995Z</time></trkpt><trkpt lat="44.390095" lon="10.9439633"><ele>339.1666666666667</ele><time>2026-05-02T08:28:01.995Z</time></trkpt><trkpt lat="44.3900867" lon="10.9438617"><ele>340.33333333333337</ele><time>2026-05-02T08:28:02.996Z</time></trkpt><trkpt lat="44.3900883" lon="10.94376"><ele>341.5</ele><time>2026-05-02T08:28:03.995Z</time></trkpt><trkpt lat="44.3900983" lon="10.9436617"><ele>342.6666666666667</ele><time>2026-05-02T08:28:04.995Z</time></trkpt><trkpt lat="44.390145" lon="10.9435"><ele>343.8333333333333</ele><time>2026-05-02T08:28:06.997Z</time></trkpt><trkpt lat="44.390185" lon="10.9434183"><ele>345.0</ele><time>2026-05-02T08:28:07.997Z</time></trkpt><trkpt lat="44.39023" lon="10.9433317"><ele>345.6666666666667</ele><time>2026-05-02T08:28:08.995Z</time></trkpt><trkpt lat="44.3902883" lon="10.9432567"><ele>346.3333333333333</ele><time>2026-05-02T08:28:09.995Z</time></trkpt><trkpt lat="44.3903517" lon="10.9431983"><ele>347.0</ele><time>2026-05-02T08:28:10.996Z</time></trkpt><trkpt lat="44.3904183" lon="10.9431533"><ele>347.66666666666663</ele><time>2026-05-02T08:28:11.996Z</time></trkpt><trkpt lat="44.39049" lon="10.943125"><ele>348.3333333333333</ele><time>2026-05-02T08:28:12.995Z</time></trkpt><trkpt lat="44.39057" lon="10.943105"><ele>349.0</ele><time>2026-05-02T08:28:13.996Z</time></trkpt><trkpt lat="44.3906567" lon="10.9430933"><ele>350.66666666666663</ele><time>2026-05-02T08:28:14.995Z</time></trkpt><trkpt lat="44.39075" lon="10.9430933"><ele>352.3333333333333</ele><time>2026-05-02T08:28:15.995Z</time></trkpt><trkpt lat="44.3908433" lon="10.9431017"><ele>354.0</ele><time>2026-05-02T08:28:16.995Z</time></trkpt><trkpt lat="44.3909283" lon="10.9431167"><ele>355.6666666666667</ele><time>2026-05-02T08:28:17.996Z</time></trkpt><trkpt lat="44.3910083" lon="10.9431283"><ele>357.33333333333337</ele><time>2026-05-02T08:28:18.997Z</time></trkpt><trkpt lat="44.3910717" lon="10.943135"><ele>359.0</ele><time>2026-05-02T08:28:19.996Z</time></trkpt><trkpt lat="44.39118" lon="10.943135"><ele>359.0</ele><time>2026-05-02T08:28:21.996Z</time></trkpt><trkpt lat="44.3912667" lon="10.9430717"><ele>359.0</ele><time>2026-05-02T08:28:23.995Z</time></trkpt><trkpt lat="44.39129" lon="10.942965"><ele>359.0</ele><time>2026-05-02T08:28:25.996Z</time></trkpt><trkpt lat="44.3912183" lon="10.94289"><ele>359.0</ele><time>2026-05-02T08:28:27.997Z</time></trkpt><trkpt lat="44.3911267" lon="10.9428017"><ele>359.0</ele><time>2026-05-02T08:28:29.996Z</time></trkpt><trkpt lat="44.3910433" lon="10.9426617"><ele>359.0</ele><time>2026-05-02T08:28:31.995Z</time></trkpt><trkpt lat="44.3910083" lon="10.9425683"><ele>359.0</ele><time>2026-05-02T08:28:32.995Z</time></trkpt><trkpt lat="44.39097" lon="10.9424583"><ele>359.0</ele><time>2026-05-02T08:28:33.996Z</time></trkpt><trkpt lat="44.390925" lon="10.9423433"><ele>359.0</ele><time>2026-05-02T08:28:34.997Z</time></trkpt><trkpt lat="44.390875" lon="10.9422367"><ele>359.0</ele><time>2026-05-02T08:28:35.996Z</time></trkpt><trkpt lat="44.3908267" lon="10.942135"><ele>359.0</ele><time>2026-05-02T08:28:36.995Z</time></trkpt><trkpt lat="44.3907733" lon="10.94205"><ele>360.1666666666667</ele><time>2026-05-02T08:28:37.996Z</time></trkpt><trkpt lat="44.3907233" lon="10.9419717"><ele>361.33333333333337</ele><time>2026-05-02T08:28:38.995Z</time></trkpt><trkpt lat="44.39068" lon="10.9418933"><ele>362.5</ele><time>2026-05-02T08:28:39.996Z</time></trkpt><trkpt lat="44.3906367" lon="10.94182"><ele>363.6666666666667</ele><time>2026-05-02T08:28:40.994Z</time></trkpt><trkpt lat="44.3905883" lon="10.9417433"><ele>364.8333333333333</ele><time>2026-05-02T08:28:41.997Z</time></trkpt><trkpt lat="44.390545" lon="10.9416667"><ele>366.0</ele><time>2026-05-02T08:28:42.996Z</time></trkpt><trkpt lat="44.3904867" lon="10.9415283"><ele>367.8333333333333</ele><time>2026-05-02T08:28:44.994Z</time></trkpt><trkpt lat="44.3904433" lon="10.9413783"><ele>369.6666666666667</ele><time>2026-05-02T08:28:46.994Z</time></trkpt><trkpt lat="44.3904133" lon="10.9412883"><ele>371.5</ele><time>2026-05-02T08:28:47.996Z</time></trkpt><trkpt lat="44.3903683" lon="10.941205"><ele>373.33333333333337</ele><time>2026-05-02T08:28:48.993Z</time></trkpt><trkpt lat="44.3903117" lon="10.9411233"><ele>375.1666666666667</ele><time>2026-05-02T08:28:49.993Z</time></trkpt><trkpt lat="44.3902433" lon="10.9410383"><ele>377.0</ele><time>2026-05-02T08:28:50.995Z</time></trkpt><trkpt lat="44.3901667" lon="10.9409517"><ele>379.20000000000005</ele><time>2026-05-02T08:28:51.993Z</time></trkpt><trkpt lat="44.3900817" lon="10.9408567"><ele>381.4</ele><time>2026-05-02T08:28:52.993Z</time></trkpt><trkpt lat="44.3899967" lon="10.9407667"><ele>383.6</ele><time>2026-05-02T08:28:53.995Z</time></trkpt><trkpt lat="44.3899167" lon="10.9406617"><ele>385.79999999999995</ele><time>2026-05-02T08:28:54.995Z</time></trkpt><trkpt lat="44.3898467" lon="10.9405467"><ele>388.0</ele><time>2026-05-02T08:28:55.994Z</time></trkpt><trkpt lat="44.38978" lon="10.9404517"><ele>388.00000000000006</ele><time>2026-05-02T08:28:56.993Z</time></trkpt><trkpt lat="44.3897117" lon="10.9403667"><ele>388.0</ele><time>2026-05-02T08:28:57.995Z</time></trkpt><trkpt lat="44.3896467" lon="10.9402933"><ele>388.0</ele><time>2026-05-02T08:28:58.994Z</time></trkpt><trkpt lat="44.389585" lon="10.9402217"><ele>388.0</ele><time>2026-05-02T08:28:59.994Z</time></trkpt><trkpt lat="44.3895167" lon="10.9401567"><ele>388.00000000000006</ele><time>2026-05-02T08:29:00.992Z</time></trkpt><trkpt lat="44.38945" lon="10.9401133"><ele>388.0</ele><time>2026-05-02T08:29:01.994Z</time></trkpt><trkpt lat="44.3893333" lon="10.9400817"><ele>389.1666666666667</ele><time>2026-05-02T08:29:03.993Z</time></trkpt><trkpt lat="44.3892667" lon="10.9400917"><ele>390.33333333333337</ele><time>2026-05-02T08:29:04.992Z</time></trkpt><trkpt lat="44.38919" lon="10.940115"><ele>391.5</ele><time>2026-05-02T08:29:05.995Z</time></trkpt><trkpt lat="44.3891167" lon="10.9401517"><ele>392.66666666666663</ele><time>2026-05-02T08:29:06.995Z</time></trkpt><trkpt lat="44.389045" lon="10.9401833"><ele>393.8333333333333</ele><time>2026-05-02T08:29:07.996Z</time></trkpt><trkpt lat="44.38898" lon="10.9402167"><ele>395.0</ele><time>2026-05-02T08:29:08.996Z</time></trkpt><trkpt lat="44.3888733" lon="10.94029"><ele>396.2</ele><time>2026-05-02T08:29:10.993Z</time></trkpt><trkpt lat="44.3887683" lon="10.940315"><ele>397.4</ele><time>2026-05-02T08:29:12.996Z</time></trkpt><trkpt lat="44.388685" lon="10.9402967"><ele>398.6</ele><time>2026-05-02T08:29:14.993Z</time></trkpt><trkpt lat="44.3886417" lon="10.9401833"><ele>399.8</ele><time>2026-05-02T08:29:16.995Z</time></trkpt><trkpt lat="44.3886417" lon="10.9399967"><ele>401.0</ele><time>2026-05-02T08:29:18.993Z</time></trkpt><trkpt lat="44.3886467" lon="10.9398967"><ele>403.16666666666663</ele><time>2026-05-02T08:29:19.993Z</time></trkpt><trkpt lat="44.3886467" lon="10.9398"><ele>405.3333333333333</ele><time>2026-05-02T08:29:20.996Z</time></trkpt><trkpt lat="44.388635" lon="10.93971"><ele>407.5</ele><time>2026-05-02T08:29:21.993Z</time></trkpt><trkpt lat="44.38857" lon="10.9396283"><ele>409.66666666666663</ele><time>2026-05-02T08:29:23.994Z</time></trkpt><trkpt lat="44.3884683" lon="10.93966"><ele>411.8333333333333</ele><time>2026-05-02T08:29:25.996Z</time></trkpt><trkpt lat="44.388395" lon="10.9397483"><ele>414.0</ele><time>2026-05-02T08:29:27.994Z</time></trkpt><trkpt lat="44.38834" lon="10.9398633"><ele>414.0</ele><time>2026-05-02T08:29:29.993Z</time></trkpt><trkpt lat="44.3882767" lon="10.9399633"><ele>414.0</ele><time>2026-05-02T08:29:31.994Z</time></trkpt><trkpt lat="44.388195" lon="10.940055"><ele>414.0</ele><time>2026-05-02T08:29:33.993Z</time></trkpt><trkpt lat="44.3881087" lon="10.9401227"><ele>414.0</ele><time>2026-05-02T08:29:35.996Z</time></trkpt><trkpt lat="44.3879982" lon="10.9401422"><ele>414.0</ele><time>2026-05-02T08:29:37.994Z</time></trkpt><trkpt lat="44.3879324" lon="10.9401286"><ele>413.4</ele><time>2026-05-02T08:29:38.993Z</time></trkpt><trkpt lat="44.3878656" lon="10.9401163"><ele>412.79999999999995</ele><time>2026-05-02T08:29:39.994Z</time></trkpt><trkpt lat="44.38778" lon="10.9400973"><ele>412.20000000000005</ele><time>2026-05-02T08:29:40.994Z</time></trkpt><trkpt lat="44.3876907" lon="10.9400544"><ele>411.6</ele><time>2026-05-02T08:29:41.993Z</time></trkpt><trkpt lat="44.3876025" lon="10.9400153"><ele>411.0</ele><time>2026-05-02T08:29:42.993Z</time></trkpt><trkpt lat="44.3874702" lon="10.9399615"><ele>411.42857142857144</ele><time>2026-05-02T08:29:44.992Z</time></trkpt><trkpt lat="44.387399" lon="10.9399314"><ele>411.85714285714283</ele><time>2026-05-02T08:29:45.993Z</time></trkpt><trkpt lat="44.3873304" lon="10.9399161"><ele>412.28571428571433</ele><time>2026-05-02T08:29:46.994Z</time></trkpt><trkpt lat="44.3872602" lon="10.9399018"><ele>412.7142857142857</ele><time>2026-05-02T08:29:47.994Z</time></trkpt><trkpt lat="44.387183" lon="10.9399055"><ele>413.14285714285717</ele><time>2026-05-02T08:29:48.993Z</time></trkpt><trkpt lat="44.3871123" lon="10.939935"><ele>413.5714285714286</ele><time>2026-05-02T08:29:49.994Z</time></trkpt><trkpt lat="44.3870576" lon="10.9399799"><ele>414.0</ele><time>2026-05-02T08:29:50.993Z</time></trkpt><trkpt lat="44.3869879" lon="10.9401003"><ele>414.0</ele><time>2026-05-02T08:29:52.994Z</time></trkpt><trkpt lat="44.3869125" lon="10.9401263"><ele>414.0</ele><time>2026-05-02T08:29:54.996Z</time></trkpt><trkpt lat="44.3868642" lon="10.9400178"><ele>414.0</ele><time>2026-05-02T08:29:56.997Z</time></trkpt><trkpt lat="44.3868988" lon="10.9398902"><ele>414.0</ele><time>2026-05-02T08:29:58.993Z</time></trkpt><trkpt lat="44.3870019" lon="10.9397847"><ele>414.0</ele><time>2026-05-02T08:30:00.994Z</time></trkpt><trkpt lat="44.3870714" lon="10.9397498"><ele>416.6</ele><time>2026-05-02T08:30:01.994Z</time></trkpt><trkpt lat="44.3871515" lon="10.9397259"><ele>419.2</ele><time>2026-05-02T08:30:02.994Z</time></trkpt><trkpt lat="44.3872304" lon="10.9396897"><ele>421.80000000000007</ele><time>2026-05-02T08:30:03.994Z</time></trkpt><trkpt lat="44.3873181" lon="10.9396352"><ele>424.40000000000003</ele><time>2026-05-02T08:30:04.994Z</time></trkpt><trkpt lat="44.3874035" lon="10.9395649"><ele>427.0</ele><time>2026-05-02T08:30:05.994Z</time></trkpt><trkpt lat="44.3874851" lon="10.9394928"><ele>427.00000000000006</ele><time>2026-05-02T08:30:06.993Z</time></trkpt><trkpt lat="44.3875605" lon="10.9394272"><ele>427.0</ele><time>2026-05-02T08:30:07.994Z</time></trkpt><trkpt lat="44.3876341" lon="10.9393802"><ele>427.0</ele><time>2026-05-02T08:30:08.994Z</time></trkpt><trkpt lat="44.3877074" lon="10.939341"><ele>427.0</ele><time>2026-05-02T08:30:09.994Z</time></trkpt><trkpt lat="44.3877781" lon="10.9392959"><ele>427.00000000000006</ele><time>2026-05-02T08:30:10.997Z</time></trkpt><trkpt lat="44.3878411" lon="10.9392502"><ele>427.0</ele><time>2026-05-02T08:30:11.993Z</time></trkpt><trkpt lat="44.3878926" lon="10.9391937"><ele>429.6666666666667</ele><time>2026-05-02T08:30:12.995Z</time></trkpt><trkpt lat="44.387934" lon="10.9391265"><ele>432.33333333333337</ele><time>2026-05-02T08:30:13.995Z</time></trkpt><trkpt lat="44.387961" lon="10.9389584"><ele>435.0</ele><time>2026-05-02T08:30:15.994Z</time></trkpt><trkpt lat="44.3879561" lon="10.9388655"><ele>437.66666666666663</ele><time>2026-05-02T08:30:16.994Z</time></trkpt><trkpt lat="44.3879483" lon="10.9387717"><ele>440.3333333333333</ele><time>2026-05-02T08:30:17.994Z</time></trkpt><trkpt lat="44.3879473" lon="10.9386747"><ele>443.0</ele><time>2026-05-02T08:30:18.993Z</time></trkpt><trkpt lat="44.3879529" lon="10.9385818"><ele>442.99999999999994</ele><time>2026-05-02T08:30:19.994Z</time></trkpt><trkpt lat="44.3879658" lon="10.9384947"><ele>443.0</ele><time>2026-05-02T08:30:20.996Z</time></trkpt><trkpt lat="44.3880418" lon="10.9383741"><ele>443.0</ele><time>2026-05-02T08:30:22.995Z</time></trkpt><trkpt lat="44.3881065" lon="10.9383626"><ele>443.0</ele><time>2026-05-02T08:30:23.995Z</time></trkpt><trkpt lat="44.3882053" lon="10.9383184"><ele>442.99999999999994</ele><time>2026-05-02T08:30:25.995Z</time></trkpt><trkpt lat="44.388254" lon="10.9382086"><ele>443.0</ele><time>2026-05-02T08:30:27.996Z</time></trkpt><trkpt lat="44.3882172" lon="10.9381288"><ele>445.2</ele><time>2026-05-02T08:30:29.994Z</time></trkpt><trkpt lat="44.3881101" lon="10.9381244"><ele>447.4</ele><time>2026-05-02T08:30:31.997Z</time></trkpt><trkpt lat="44.3879927" lon="10.9381678"><ele>449.59999999999997</ele><time>2026-05-02T08:30:33.995Z</time></trkpt><trkpt lat="44.387925" lon="10.9381883"><ele>451.79999999999995</ele><time>2026-05-02T08:30:34.993Z</time></trkpt><trkpt lat="44.3878083" lon="10.9382433"><ele>454.0</ele><time>2026-05-02T08:30:36.993Z</time></trkpt><trkpt lat="44.38773" lon="10.9383683"><ele>454.00000000000006</ele><time>2026-05-02T08:30:38.993Z</time></trkpt><trkpt lat="44.3876667" lon="10.9384783"><ele>454.0</ele><time>2026-05-02T08:30:40.995Z</time></trkpt><trkpt lat="44.3876083" lon="10.9385317"><ele>454.0</ele><time>2026-05-02T08:30:42.997Z</time></trkpt><trkpt lat="44.387545" lon="10.9384917"><ele>454.0</ele><time>2026-05-02T08:30:44.992Z</time></trkpt><trkpt lat="44.38752" lon="10.9383883"><ele>454.00000000000006</ele><time>2026-05-02T08:30:46.994Z</time></trkpt><trkpt lat="44.3875283" lon="10.9382483"><ele>454.0</ele><time>2026-05-02T08:30:48.993Z</time></trkpt><trkpt lat="44.38754" lon="10.93808"><ele>454.00000000000006</ele><time>2026-05-02T08:30:50.995Z</time></trkpt><trkpt lat="44.387525" lon="10.9379767"><ele>454.0</ele><time>2026-05-02T08:30:51.993Z</time></trkpt><trkpt lat="44.3874967" lon="10.9378883"><ele>454.0</ele><time>2026-05-02T08:30:52.993Z</time></trkpt><trkpt lat="44.38747" lon="10.9378067"><ele>454.0</ele><time>2026-05-02T08:30:53.996Z</time></trkpt><trkpt lat="44.3874033" lon="10.9377083"><ele>454.00000000000006</ele><time>2026-05-02T08:30:55.995Z</time></trkpt><trkpt lat="44.3873217" lon="10.9376733"><ele>454.0</ele><time>2026-05-02T08:30:57.994Z</time></trkpt><trkpt lat="44.3872517" lon="10.9377267"><ele>454.0</ele><time>2026-05-02T08:30:59.994Z</time></trkpt><trkpt lat="44.38723" lon="10.9378367"><ele>454.0</ele><time>2026-05-02T08:31:01.994Z</time></trkpt><trkpt lat="44.3872" lon="10.9379633"><ele>454.0</ele><time>2026-05-02T08:31:03.994Z</time></trkpt><trkpt lat="44.3871383" lon="10.9380833"><ele>454.0</ele><time>2026-05-02T08:31:05.994Z</time></trkpt><trkpt lat="44.38705" lon="10.9381817"><ele>454.0</ele><time>2026-05-02T08:31:07.995Z</time></trkpt><trkpt lat="44.3869567" lon="10.93826"><ele>455.0</ele><time>2026-05-02T08:31:09.993Z</time></trkpt><trkpt lat="44.3868517" lon="10.9383233"><ele>456.0</ele><time>2026-05-02T08:31:11.995Z</time></trkpt><trkpt lat="44.386775" lon="10.9383383"><ele>457.0</ele><time>2026-05-02T08:31:12.998Z</time></trkpt><trkpt lat="44.386695" lon="10.9383267"><ele>458.0</ele><time>2026-05-02T08:31:13.996Z</time></trkpt><trkpt lat="44.3866" lon="10.9382933"><ele>459.0</ele><time>2026-05-02T08:31:14.995Z</time></trkpt><trkpt lat="44.386505" lon="10.9382467"><ele>459.0</ele><time>2026-05-02T08:31:15.996Z</time></trkpt><trkpt lat="44.386405" lon="10.9382117"><ele>459.0</ele><time>2026-05-02T08:31:16.996Z</time></trkpt><trkpt lat="44.3862983" lon="10.9381733"><ele>459.0</ele><time>2026-05-02T08:31:17.995Z</time></trkpt><trkpt lat="44.3862" lon="10.9381383"><ele>459.0</ele><time>2026-05-02T08:31:18.996Z</time></trkpt><trkpt lat="44.38612" lon="10.9381267"><ele>459.0</ele><time>2026-05-02T08:31:19.996Z</time></trkpt><trkpt lat="44.386035" lon="10.9381283"><ele>458.6666666666667</ele><time>2026-05-02T08:31:20.996Z</time></trkpt><trkpt lat="44.38596" lon="10.93814"><ele>458.33333333333337</ele><time>2026-05-02T08:31:21.995Z</time></trkpt><trkpt lat="44.385895" lon="10.93816"><ele>458.0</ele><time>2026-05-02T08:31:22.995Z</time></trkpt><trkpt lat="44.3858033" lon="10.9382033"><ele>457.6666666666667</ele><time>2026-05-02T08:31:24.995Z</time></trkpt><trkpt lat="44.3857333" lon="10.9382183"><ele>457.33333333333337</ele><time>2026-05-02T08:33:11.995Z</time></trkpt><trkpt lat="44.3856583" lon="10.9382567"><ele>457.0</ele><time>2026-05-02T08:33:13.999Z</time></trkpt><trkpt lat="44.3855517" lon="10.9382833"><ele>457.33333333333337</ele><time>2026-05-02T08:33:15.996Z</time></trkpt><trkpt lat="44.3854817" lon="10.9382867"><ele>457.6666666666667</ele><time>2026-05-02T08:33:16.996Z</time></trkpt><trkpt lat="44.3854083" lon="10.9382883"><ele>458.0</ele><time>2026-05-02T08:33:17.996Z</time></trkpt><trkpt lat="44.3853283" lon="10.9382833"><ele>458.33333333333337</ele><time>2026-05-02T08:33:18.996Z</time></trkpt><trkpt lat="44.3852433" lon="10.938275"><ele>458.6666666666667</ele><time>2026-05-02T08:33:19.995Z</time></trkpt><trkpt lat="44.3851483" lon="10.9382567"><ele>459.0</ele><time>2026-05-02T08:33:20.996Z</time></trkpt><trkpt lat="44.3850467" lon="10.9382367"><ele>459.0</ele><time>2026-05-02T08:33:21.997Z</time></trkpt><trkpt lat="44.3849417" lon="10.9382117"><ele>459.0</ele><time>2026-05-02T08:33:22.997Z</time></trkpt><trkpt lat="44.3848383" lon="10.9381883"><ele>459.0</ele><time>2026-05-02T08:33:23.996Z</time></trkpt><trkpt lat="44.3847383" lon="10.938165"><ele>459.0</ele><time>2026-05-02T08:33:24.995Z</time></trkpt><trkpt lat="44.384645" lon="10.938145"><ele>459.0</ele><time>2026-05-02T08:33:25.995Z</time></trkpt><trkpt lat="44.3845433" lon="10.938135"><ele>458.4</ele><time>2026-05-02T08:33:26.998Z</time></trkpt><trkpt lat="44.3844417" lon="10.9381333"><ele>457.79999999999995</ele><time>2026-05-02T08:33:27.995Z</time></trkpt><trkpt lat="44.3843417" lon="10.9381417"><ele>457.20000000000005</ele><time>2026-05-02T08:33:28.993Z</time></trkpt><trkpt lat="44.3842433" lon="10.93816"><ele>456.6</ele><time>2026-05-02T08:33:29.994Z</time></trkpt><trkpt lat="44.3841467" lon="10.9381883"><ele>456.0</ele><time>2026-05-02T08:33:30.993Z</time></trkpt><trkpt lat="44.3840517" lon="10.9382333"><ele>456.0</ele><time>2026-05-02T08:33:31.995Z</time></trkpt><trkpt lat="44.3839567" lon="10.9382717"><ele>456.0</ele><time>2026-05-02T08:33:32.993Z</time></trkpt><trkpt lat="44.3838583" lon="10.938315"><ele>456.0</ele><time>2026-05-02T08:33:33.993Z</time></trkpt><trkpt lat="44.38376" lon="10.9383533"><ele>456.0</ele><time>2026-05-02T08:33:34.994Z</time></trkpt><trkpt lat="44.3836617" lon="10.9383867"><ele>456.0</ele><time>2026-05-02T08:33:35.996Z</time></trkpt><trkpt lat="44.383555" lon="10.9384217"><ele>452.4</ele><time>2026-05-02T08:33:36.994Z</time></trkpt><trkpt lat="44.3834533" lon="10.938445"><ele>448.8</ele><time>2026-05-02T08:33:37.995Z</time></trkpt><trkpt lat="44.38335" lon="10.9384667"><ele>445.19999999999993</ele><time>2026-05-02T08:33:38.995Z</time></trkpt><trkpt lat="44.3832433" lon="10.938495"><ele>441.59999999999997</ele><time>2026-05-02T08:33:39.995Z</time></trkpt><trkpt lat="44.3831417" lon="10.9385383"><ele>438.0</ele><time>2026-05-02T08:33:40.995Z</time></trkpt><trkpt lat="44.383045" lon="10.9386083"><ele>438.4</ele><time>2026-05-02T08:33:41.995Z</time></trkpt><trkpt lat="44.382955" lon="10.9386933"><ele>438.79999999999995</ele><time>2026-05-02T08:33:42.995Z</time></trkpt><trkpt lat="44.382865" lon="10.9387817"><ele>439.2</ele><time>2026-05-02T08:33:43.996Z</time></trkpt><trkpt lat="44.3827783" lon="10.938875"><ele>439.6</ele><time>2026-05-02T08:33:44.998Z</time></trkpt><trkpt lat="44.38269" lon="10.9389733"><ele>440.0</ele><time>2026-05-02T08:33:45.993Z</time></trkpt><trkpt lat="44.3826033" lon="10.9390617"><ele>440.0</ele><time>2026-05-02T08:33:46.997Z</time></trkpt><trkpt lat="44.38251" lon="10.9391417"><ele>440.0</ele><time>2026-05-02T08:33:47.996Z</time></trkpt><trkpt lat="44.38241" lon="10.939195"><ele>440.0</ele><time>2026-05-02T08:33:48.995Z</time></trkpt><trkpt lat="44.38231" lon="10.939235"><ele>440.0</ele><time>2026-05-02T08:33:49.996Z</time></trkpt><trkpt lat="44.3822167" lon="10.9392733"><ele>440.0</ele><time>2026-05-02T08:33:50.995Z</time></trkpt><trkpt lat="44.382125" lon="10.9393217"><ele>440.8</ele><time>2026-05-02T08:33:51.998Z</time></trkpt><trkpt lat="44.3820417" lon="10.93938"><ele>441.6</ele><time>2026-05-02T08:33:52.998Z</time></trkpt><trkpt lat="44.381965" lon="10.93947"><ele>442.4</ele><time>2026-05-02T08:33:53.996Z</time></trkpt><trkpt lat="44.3818833" lon="10.9395767"><ele>443.2</ele><time>2026-05-02T08:33:54.995Z</time></trkpt><trkpt lat="44.3818" lon="10.939695"><ele>444.0</ele><time>2026-05-02T08:33:55.996Z</time></trkpt><trkpt lat="44.3817233" lon="10.9398217"><ele>444.0</ele><time>2026-05-02T08:33:56.996Z</time></trkpt><trkpt lat="44.381645" lon="10.9399483"><ele>444.0</ele><time>2026-05-02T08:33:57.995Z</time></trkpt><trkpt lat="44.3815583" lon="10.9400633"><ele>444.0</ele><time>2026-05-02T08:33:58.996Z</time></trkpt><trkpt lat="44.381455" lon="10.94016"><ele>444.0</ele><time>2026-05-02T08:33:59.994Z</time></trkpt><trkpt lat="44.3813383" lon="10.9402433"><ele>446.25</ele><time>2026-05-02T08:34:00.993Z</time></trkpt><trkpt lat="44.381225" lon="10.94031"><ele>448.5</ele><time>2026-05-02T08:34:01.995Z</time></trkpt><trkpt lat="44.3811133" lon="10.9403633"><ele>450.75</ele><time>2026-05-02T08:34:02.993Z</time></trkpt><trkpt lat="44.3810033" lon="10.9403967"><ele>453.0</ele><time>2026-05-02T08:34:03.996Z</time></trkpt><trkpt lat="44.38089" lon="10.940415"><ele>453.0</ele><time>2026-05-02T08:34:04.994Z</time></trkpt><trkpt lat="44.3807833" lon="10.9404267"><ele>452.99999999999994</ele><time>2026-05-02T08:34:05.993Z</time></trkpt><trkpt lat="44.3806817" lon="10.9404433"><ele>452.99999999999994</ele><time>2026-05-02T08:34:06.997Z</time></trkpt><trkpt lat="44.3805767" lon="10.9404683"><ele>453.0</ele><time>2026-05-02T08:34:07.997Z</time></trkpt><trkpt lat="44.3804633" lon="10.9404917"><ele>453.0</ele><time>2026-05-02T08:34:08.995Z</time></trkpt><trkpt lat="44.3803417" lon="10.9405233"><ele>454.25</ele><time>2026-05-02T08:34:09.996Z</time></trkpt><trkpt lat="44.380225" lon="10.940565"><ele>455.5</ele><time>2026-05-02T08:34:10.997Z</time></trkpt><trkpt lat="44.3801117" lon="10.940615"><ele>456.75</ele><time>2026-05-02T08:34:11.998Z</time></trkpt><trkpt lat="44.3799983" lon="10.940675"><ele>458.0</ele><time>2026-05-02T08:34:12.996Z</time></trkpt><trkpt lat="44.3798767" lon="10.94074"><ele>458.0</ele><time>2026-05-02T08:34:13.996Z</time></trkpt><trkpt lat="44.3797483" lon="10.9408017"><ele>458.0</ele><time>2026-05-02T08:34:14.996Z</time></trkpt><trkpt lat="44.37962" lon="10.9408617"><ele>458.0</ele><time>2026-05-02T08:34:15.995Z</time></trkpt><trkpt lat="44.3794917" lon="10.9409267"><ele>458.0</ele><time>2026-05-02T08:34:16.994Z</time></trkpt><trkpt lat="44.3793633" lon="10.940995"><ele>457.25</ele><time>2026-05-02T08:34:17.995Z</time></trkpt><trkpt lat="44.3792383" lon="10.9410533"><ele>456.5</ele><time>2026-05-02T08:34:18.998Z</time></trkpt><trkpt lat="44.37911" lon="10.9411117"><ele>455.75</ele><time>2026-05-02T08:34:19.995Z</time></trkpt><trkpt lat="44.37898" lon="10.9411717"><ele>455.0</ele><time>2026-05-02T08:34:20.996Z</time></trkpt><trkpt lat="44.3788417" lon="10.9412283"><ele>457.0</ele><time>2026-05-02T08:34:21.996Z</time></trkpt><trkpt lat="44.3787017" lon="10.9412833"><ele>459.0</ele><time>2026-05-02T08:34:22.995Z</time></trkpt><trkpt lat="44.3785617" lon="10.94133"><ele>461.0</ele><time>2026-05-02T08:34:23.995Z</time></trkpt><trkpt lat="44.37843" lon="10.9413717"><ele>463.0</ele><time>2026-05-02T08:34:24.996Z</time></trkpt><trkpt lat="44.378305" lon="10.94141"><ele>463.0</ele><time>2026-05-02T08:34:25.996Z</time></trkpt><trkpt lat="44.37819" lon="10.9414317"><ele>462.99999999999994</ele><time>2026-05-02T08:34:26.996Z</time></trkpt><trkpt lat="44.3780833" lon="10.94144"><ele>462.99999999999994</ele><time>2026-05-02T08:34:27.995Z</time></trkpt><trkpt lat="44.37798" lon="10.9414533"><ele>463.0</ele><time>2026-05-02T08:34:28.994Z</time></trkpt><trkpt lat="44.3778817" lon="10.94147"><ele>463.0</ele><time>2026-05-02T08:34:29.994Z</time></trkpt><trkpt lat="44.3777917" lon="10.9415"><ele>463.6666666666667</ele><time>2026-05-02T08:34:30.997Z</time></trkpt><trkpt lat="44.3777083" lon="10.941545"><ele>464.33333333333337</ele><time>2026-05-02T08:34:31.995Z</time></trkpt><trkpt lat="44.377635" lon="10.941595"><ele>465.0</ele><time>2026-05-02T08:34:32.993Z</time></trkpt><trkpt lat="44.3775683" lon="10.941645"><ele>465.66666666666663</ele><time>2026-05-02T08:34:33.993Z</time></trkpt><trkpt lat="44.377505" lon="10.9416883"><ele>466.3333333333333</ele><time>2026-05-02T08:34:34.993Z</time></trkpt><trkpt lat="44.3773983" lon="10.9417233"><ele>467.0</ele><time>2026-05-02T08:34:36.996Z</time></trkpt><trkpt lat="44.3773233" lon="10.9416283"><ele>467.49999999999994</ele><time>2026-05-02T08:34:38.994Z</time></trkpt><trkpt lat="44.3772983" lon="10.9415267"><ele>468.0</ele><time>2026-05-02T08:34:39.994Z</time></trkpt><trkpt lat="44.37728" lon="10.9414"><ele>468.5</ele><time>2026-05-02T08:34:40.993Z</time></trkpt><trkpt lat="44.3772617" lon="10.941285"><ele>469.0</ele><time>2026-05-02T08:34:41.996Z</time></trkpt><trkpt lat="44.377245" lon="10.9411717"><ele>469.49999999999994</ele><time>2026-05-02T08:34:42.993Z</time></trkpt><trkpt lat="44.3772267" lon="10.9410633"><ele>470.0</ele><time>2026-05-02T08:34:43.996Z</time></trkpt><trkpt lat="44.3771983" lon="10.940955"><ele>470.99999999999994</ele><time>2026-05-02T08:34:44.996Z</time></trkpt><trkpt lat="44.3771617" lon="10.940855"><ele>472.0</ele><time>2026-05-02T08:34:45.995Z</time></trkpt><trkpt lat="44.3771167" lon="10.9407683"><ele>473.0</ele><time>2026-05-02T08:34:46.996Z</time></trkpt><trkpt lat="44.3770667" lon="10.9406883"><ele>474.0</ele><time>2026-05-02T08:34:47.994Z</time></trkpt><trkpt lat="44.377015" lon="10.9406067"><ele>474.99999999999994</ele><time>2026-05-02T08:34:48.994Z</time></trkpt><trkpt lat="44.3769683" lon="10.9405117"><ele>476.0</ele><time>2026-05-02T08:34:49.993Z</time></trkpt><trkpt lat="44.376925" lon="10.9403967"><ele>475.99999999999994</ele><time>2026-05-02T08:34:50.994Z</time></trkpt><trkpt lat="44.3768783" lon="10.9402867"><ele>476.0</ele><time>2026-05-02T08:34:51.993Z</time></trkpt><trkpt lat="44.376835" lon="10.9401783"><ele>476.0</ele><time>2026-05-02T08:34:52.995Z</time></trkpt><trkpt lat="44.3767983" lon="10.9400683"><ele>476.0</ele><time>2026-05-02T08:34:53.994Z</time></trkpt><trkpt lat="44.37677" lon="10.9399683"><ele>475.99999999999994</ele><time>2026-05-02T08:34:54.995Z</time></trkpt><trkpt lat="44.3767367" lon="10.93987"><ele>476.0</ele><time>2026-05-02T08:34:55.996Z</time></trkpt><trkpt lat="44.3766933" lon="10.9397733"><ele>475.8</ele><time>2026-05-02T08:34:56.993Z</time></trkpt><trkpt lat="44.3766383" lon="10.93968"><ele>475.6</ele><time>2026-05-02T08:34:57.995Z</time></trkpt><trkpt lat="44.37657" lon="10.9395917"><ele>475.4</ele><time>2026-05-02T08:34:58.994Z</time></trkpt><trkpt lat="44.3764933" lon="10.9395117"><ele>475.2</ele><time>2026-05-02T08:34:59.994Z</time></trkpt><trkpt lat="44.3764083" lon="10.93944"><ele>475.0</ele><time>2026-05-02T08:35:00.995Z</time></trkpt><trkpt lat="44.3763133" lon="10.9393783"><ele>475.0</ele><time>2026-05-02T08:35:01.993Z</time></trkpt><trkpt lat="44.3762067" lon="10.939335"><ele>475.0</ele><time>2026-05-02T08:35:02.996Z</time></trkpt><trkpt lat="44.3761017" lon="10.9393"><ele>475.0</ele><time>2026-05-02T08:35:03.996Z</time></trkpt><trkpt lat="44.3759967" lon="10.9392683"><ele>475.0</ele><time>2026-05-02T08:35:04.996Z</time></trkpt><trkpt lat="44.3758967" lon="10.939235"><ele>475.0</ele><time>2026-05-02T08:35:05.995Z</time></trkpt><trkpt lat="44.3758017" lon="10.9392017"><ele>473.0</ele><time>2026-05-02T08:35:06.993Z</time></trkpt><trkpt lat="44.3757083" lon="10.9391617"><ele>471.0</ele><time>2026-05-02T08:35:07.993Z</time></trkpt><trkpt lat="44.3756233" lon="10.9391067"><ele>469.0</ele><time>2026-05-02T08:35:08.996Z</time></trkpt><trkpt lat="44.3755483" lon="10.93904"><ele>467.0</ele><time>2026-05-02T08:35:09.998Z</time></trkpt><trkpt lat="44.3754667" lon="10.9389567"><ele>465.0</ele><time>2026-05-02T08:35:10.999Z</time></trkpt><trkpt lat="44.3753867" lon="10.9388667"><ele>465.0</ele><time>2026-05-02T08:35:11.996Z</time></trkpt><trkpt lat="44.3753017" lon="10.938775"><ele>465.0</ele><time>2026-05-02T08:35:12.997Z</time></trkpt><trkpt lat="44.3752083" lon="10.938685"><ele>465.0</ele><time>2026-05-02T08:35:13.996Z</time></trkpt><trkpt lat="44.3751133" lon="10.9386067"><ele>465.0</ele><time>2026-05-02T08:35:14.997Z</time></trkpt><trkpt lat="44.3750217" lon="10.9385383"><ele>465.0</ele><time>2026-05-02T08:35:15.996Z</time></trkpt><trkpt lat="44.3749383" lon="10.938475"><ele>465.0</ele><time>2026-05-02T08:35:16.996Z</time></trkpt><trkpt lat="44.3748567" lon="10.9384083"><ele>465.0</ele><time>2026-05-02T08:35:17.994Z</time></trkpt><trkpt lat="44.37478" lon="10.9383383"><ele>465.0</ele><time>2026-05-02T08:35:18.993Z</time></trkpt><trkpt lat="44.37471" lon="10.9382617"><ele>465.0</ele><time>2026-05-02T08:35:19.995Z</time></trkpt><trkpt lat="44.3746483" lon="10.9381733"><ele>465.0</ele><time>2026-05-02T08:35:20.994Z</time></trkpt><trkpt lat="44.3745983" lon="10.93809"><ele>465.0</ele><time>2026-05-02T08:35:21.993Z</time></trkpt><trkpt lat="44.3745483" lon="10.9380117"><ele>463.2</ele><time>2026-05-02T08:35:22.994Z</time></trkpt><trkpt lat="44.3744967" lon="10.9379533"><ele>461.4</ele><time>2026-05-02T08:35:23.996Z</time></trkpt><trkpt lat="44.3743667" lon="10.93793"><ele>459.6</ele><time>2026-05-02T08:35:25.995Z</time></trkpt><trkpt lat="44.374295" lon="10.9379867"><ele>457.8</ele><time>2026-05-02T08:35:26.996Z</time></trkpt><trkpt lat="44.3742133" lon="10.9381117"><ele>456.0</ele><time>2026-05-02T08:35:27.997Z</time></trkpt><trkpt lat="44.37413" lon="10.9382383"><ele>456.0</ele><time>2026-05-02T08:35:28.995Z</time></trkpt><trkpt lat="44.3740367" lon="10.9383617"><ele>456.0</ele><time>2026-05-02T08:35:29.996Z</time></trkpt><trkpt lat="44.3739467" lon="10.9384817"><ele>456.0</ele><time>2026-05-02T08:35:30.994Z</time></trkpt><trkpt lat="44.373855" lon="10.938595"><ele>456.0</ele><time>2026-05-02T08:35:31.993Z</time></trkpt><trkpt lat="44.3737617" lon="10.9387033"><ele>456.8</ele><time>2026-05-02T08:35:32.994Z</time></trkpt><trkpt lat="44.373675" lon="10.93881"><ele>457.6</ele><time>2026-05-02T08:35:33.997Z</time></trkpt><trkpt lat="44.3735983" lon="10.938915"><ele>458.4</ele><time>2026-05-02T08:35:34.993Z</time></trkpt><trkpt lat="44.37353" lon="10.9390217"><ele>459.2</ele><time>2026-05-02T08:35:35.996Z</time></trkpt><trkpt lat="44.3734717" lon="10.9391217"><ele>460.0</ele><time>2026-05-02T08:35:36.994Z</time></trkpt><trkpt lat="44.3734133" lon="10.9392233"><ele>460.00000000000006</ele><time>2026-05-02T08:35:37.994Z</time></trkpt><trkpt lat="44.3733517" lon="10.93933"><ele>460.0</ele><time>2026-05-02T08:35:38.997Z</time></trkpt><trkpt lat="44.3732933" lon="10.9394317"><ele>460.0</ele><time>2026-05-02T08:35:39.997Z</time></trkpt><trkpt lat="44.3732433" lon="10.9395217"><ele>460.0</ele><time>2026-05-02T08:35:40.996Z</time></trkpt><trkpt lat="44.3732" lon="10.9396033"><ele>460.00000000000006</ele><time>2026-05-02T08:35:41.995Z</time></trkpt><trkpt lat="44.3731583" lon="10.939675"><ele>460.0</ele><time>2026-05-02T08:35:42.996Z</time></trkpt><trkpt lat="44.373065" lon="10.939755"><ele>461.33333333333337</ele><time>2026-05-02T08:35:44.998Z</time></trkpt><trkpt lat="44.3729833" lon="10.9397317"><ele>462.6666666666667</ele><time>2026-05-02T08:35:46.994Z</time></trkpt><trkpt lat="44.3729317" lon="10.9396"><ele>464.0</ele><time>2026-05-02T08:35:48.996Z</time></trkpt><trkpt lat="44.372915" lon="10.9395017"><ele>465.33333333333337</ele><time>2026-05-02T08:35:49.997Z</time></trkpt><trkpt lat="44.372895" lon="10.9393917"><ele>466.6666666666667</ele><time>2026-05-02T08:35:50.995Z</time></trkpt><trkpt lat="44.3728717" lon="10.9392783"><ele>468.0</ele><time>2026-05-02T08:35:51.995Z</time></trkpt><trkpt lat="44.372855" lon="10.9391567"><ele>464.3333333333333</ele><time>2026-05-02T08:35:52.995Z</time></trkpt><trkpt lat="44.3728383" lon="10.9390417"><ele>460.66666666666663</ele><time>2026-05-02T08:35:53.993Z</time></trkpt><trkpt lat="44.372825" lon="10.93892"><ele>457.0</ele><time>2026-05-02T08:35:54.996Z</time></trkpt><trkpt lat="44.3728117" lon="10.9387983"><ele>453.3333333333333</ele><time>2026-05-02T08:35:55.995Z</time></trkpt><trkpt lat="44.3728" lon="10.93867"><ele>449.66666666666663</ele><time>2026-05-02T08:35:56.996Z</time></trkpt><trkpt lat="44.3727967" lon="10.9385467"><ele>446.0</ele><time>2026-05-02T08:35:57.995Z</time></trkpt><trkpt lat="44.372805" lon="10.9384217"><ele>443.66666666666663</ele><time>2026-05-02T08:35:58.995Z</time></trkpt><trkpt lat="44.3728233" lon="10.9382967"><ele>441.3333333333333</ele><time>2026-05-02T08:35:59.994Z</time></trkpt><trkpt lat="44.3728367" lon="10.9381767"><ele>439.0</ele><time>2026-05-02T08:36:00.997Z</time></trkpt><trkpt lat="44.3728433" lon="10.9380717"><ele>436.66666666666663</ele><time>2026-05-02T08:36:01.993Z</time></trkpt><trkpt lat="44.37284" lon="10.9379717"><ele>434.3333333333333</ele><time>2026-05-02T08:36:02.993Z</time></trkpt><trkpt lat="44.3728333" lon="10.937875"><ele>432.0</ele><time>2026-05-02T08:36:03.995Z</time></trkpt><trkpt lat="44.3728133" lon="10.9377783"><ele>432.0</ele><time>2026-05-02T08:36:04.993Z</time></trkpt><trkpt lat="44.3727667" lon="10.937675"><ele>432.00000000000006</ele><time>2026-05-02T08:36:05.994Z</time></trkpt><trkpt lat="44.3727083" lon="10.9375683"><ele>432.00000000000006</ele><time>2026-05-02T08:36:06.995Z</time></trkpt><trkpt lat="44.3726533" lon="10.9374567"><ele>432.0</ele><time>2026-05-02T08:36:07.996Z</time></trkpt><trkpt lat="44.3726083" lon="10.9373317"><ele>432.0</ele><time>2026-05-02T08:36:08.993Z</time></trkpt><trkpt lat="44.372575" lon="10.9371983"><ele>429.6</ele><time>2026-05-02T08:36:09.995Z</time></trkpt><trkpt lat="44.3725567" lon="10.93706"><ele>427.20000000000005</ele><time>2026-05-02T08:36:10.996Z</time></trkpt><trkpt lat="44.3725483" lon="10.936925"><ele>424.8</ele><time>2026-05-02T08:36:11.993Z</time></trkpt><trkpt lat="44.3725317" lon="10.9367867"><ele>422.4</ele><time>2026-05-02T08:36:12.994Z</time></trkpt><trkpt lat="44.3725167" lon="10.936655"><ele>420.0</ele><time>2026-05-02T08:36:13.994Z</time></trkpt><trkpt lat="44.3725033" lon="10.9365283"><ele>418.5</ele><time>2026-05-02T08:36:14.994Z</time></trkpt><trkpt lat="44.3724867" lon="10.9364017"><ele>417.0</ele><time>2026-05-02T08:36:15.994Z</time></trkpt><trkpt lat="44.372475" lon="10.9362733"><ele>415.5</ele><time>2026-05-02T08:36:16.996Z</time></trkpt><trkpt lat="44.3724683" lon="10.93615"><ele>414.0</ele><time>2026-05-02T08:36:17.993Z</time></trkpt><trkpt lat="44.3724667" lon="10.93603"><ele>412.5</ele><time>2026-05-02T08:36:18.998Z</time></trkpt><trkpt lat="44.3724767" lon="10.9359133"><ele>411.0</ele><time>2026-05-02T08:36:19.995Z</time></trkpt><trkpt lat="44.3724967" lon="10.9357867"><ele>408.8</ele><time>2026-05-02T08:36:20.995Z</time></trkpt><trkpt lat="44.3725267" lon="10.9356533"><ele>406.6</ele><time>2026-05-02T08:36:21.996Z</time></trkpt><trkpt lat="44.3725633" lon="10.9355233"><ele>404.4</ele><time>2026-05-02T08:36:22.998Z</time></trkpt><trkpt lat="44.3726" lon="10.9354"><ele>402.2</ele><time>2026-05-02T08:36:23.998Z</time></trkpt><trkpt lat="44.37264" lon="10.9352917"><ele>400.0</ele><time>2026-05-02T08:36:24.995Z</time></trkpt><trkpt lat="44.3726817" lon="10.9351767"><ele>400.00000000000006</ele><time>2026-05-02T08:36:25.995Z</time></trkpt><trkpt lat="44.3727283" lon="10.9350617"><ele>400.0</ele><time>2026-05-02T08:36:26.995Z</time></trkpt><trkpt lat="44.3727783" lon="10.934945"><ele>400.0</ele><time>2026-05-02T08:36:27.995Z</time></trkpt><trkpt lat="44.372825" lon="10.934835"><ele>400.0</ele><time>2026-05-02T08:36:28.995Z</time></trkpt><trkpt lat="44.372865" lon="10.9347433"><ele>400.00000000000006</ele><time>2026-05-02T08:36:29.995Z</time></trkpt><trkpt lat="44.3729083" lon="10.9346467"><ele>400.0</ele><time>2026-05-02T08:36:30.996Z</time></trkpt><trkpt lat="44.37295" lon="10.934545"><ele>400.00000000000006</ele><time>2026-05-02T08:36:31.995Z</time></trkpt><trkpt lat="44.37299" lon="10.9344467"><ele>400.0</ele><time>2026-05-02T08:36:32.993Z</time></trkpt><trkpt lat="44.373035" lon="10.9343617"><ele>400.0</ele><time>2026-05-02T08:36:33.994Z</time></trkpt><trkpt lat="44.373075" lon="10.9342933"><ele>400.0</ele><time>2026-05-02T08:36:34.997Z</time></trkpt><trkpt lat="44.3731167" lon="10.934155"><ele>400.00000000000006</ele><time>2026-05-02T08:36:36.995Z</time></trkpt><trkpt lat="44.3731317" lon="10.9340667"><ele>400.0</ele><time>2026-05-02T08:36:37.993Z</time></trkpt><trkpt lat="44.3731317" lon="10.9339267"><ele>395.5</ele><time>2026-05-02T08:36:38.993Z</time></trkpt><trkpt lat="44.373125" lon="10.93377"><ele>391.0</ele><time>2026-05-02T08:36:39.997Z</time></trkpt><trkpt lat="44.3731183" lon="10.9336017"><ele>386.5</ele><time>2026-05-02T08:36:40.996Z</time></trkpt><trkpt lat="44.373105" lon="10.9334333"><ele>382.0</ele><time>2026-05-02T08:36:41.994Z</time></trkpt><trkpt lat="44.3730933" lon="10.93327"><ele>379.8</ele><time>2026-05-02T08:36:42.994Z</time></trkpt><trkpt lat="44.3730833" lon="10.9331183"><ele>377.6</ele><time>2026-05-02T08:36:43.994Z</time></trkpt><trkpt lat="44.3730767" lon="10.932985"><ele>375.40000000000003</ele><time>2026-05-02T08:36:44.993Z</time></trkpt><trkpt lat="44.3730767" lon="10.9328633"><ele>373.20000000000005</ele><time>2026-05-02T08:36:45.993Z</time></trkpt><trkpt lat="44.3730933" lon="10.932755"><ele>371.0</ele><time>2026-05-02T08:36:46.997Z</time></trkpt><trkpt lat="44.37313" lon="10.932655"><ele>369.6</ele><time>2026-05-02T08:36:47.996Z</time></trkpt><trkpt lat="44.373185" lon="10.932555"><ele>368.20000000000005</ele><time>2026-05-02T08:36:48.995Z</time></trkpt><trkpt lat="44.3732483" lon="10.9324467"><ele>366.79999999999995</ele><time>2026-05-02T08:36:49.998Z</time></trkpt><trkpt lat="44.3733183" lon="10.9323267"><ele>365.4</ele><time>2026-05-02T08:36:50.995Z</time></trkpt><trkpt lat="44.3733917" lon="10.9322"><ele>364.0</ele><time>2026-05-02T08:36:51.995Z</time></trkpt><trkpt lat="44.3734717" lon="10.932075"><ele>364.0</ele><time>2026-05-02T08:36:53Z</time></trkpt><trkpt lat="44.3735517" lon="10.9319483"><ele>364.0</ele><time>2026-05-02T08:36:53.995Z</time></trkpt><trkpt lat="44.3736333" lon="10.9318267"><ele>364.0</ele><time>2026-05-02T08:36:54.996Z</time></trkpt><trkpt lat="44.3737183" lon="10.931715"><ele>364.0</ele><time>2026-05-02T08:36:55.995Z</time></trkpt><trkpt lat="44.3737983" lon="10.93161"><ele>361.4</ele><time>2026-05-02T08:36:56.995Z</time></trkpt><trkpt lat="44.373875" lon="10.931505"><ele>358.79999999999995</ele><time>2026-05-02T08:36:57.996Z</time></trkpt><trkpt lat="44.3739467" lon="10.9314067"><ele>356.20000000000005</ele><time>2026-05-02T08:36:58.995Z</time></trkpt><trkpt lat="44.3740167" lon="10.9313233"><ele>353.6</ele><time>2026-05-02T08:36:59.996Z</time></trkpt><trkpt lat="44.37409" lon="10.9312467"><ele>351.0</ele><time>2026-05-02T08:37:00.995Z</time></trkpt><trkpt lat="44.374165" lon="10.93117"><ele>351.0</ele><time>2026-05-02T08:37:01.994Z</time></trkpt><trkpt lat="44.3742417" lon="10.9311"><ele>351.0</ele><time>2026-05-02T08:37:02.995Z</time></trkpt><trkpt lat="44.3743217" lon="10.9310333"><ele>351.0</ele><time>2026-05-02T08:37:03.993Z</time></trkpt><trkpt lat="44.374405" lon="10.9309683"><ele>351.0</ele><time>2026-05-02T08:37:04.996Z</time></trkpt><trkpt lat="44.3744933" lon="10.9309033"><ele>351.0</ele><time>2026-05-02T08:37:05.994Z</time></trkpt><trkpt lat="44.3745783" lon="10.930845"><ele>350.0</ele><time>2026-05-02T08:37:06.995Z</time></trkpt><trkpt lat="44.3746617" lon="10.930785"><ele>349.0</ele><time>2026-05-02T08:37:07.995Z</time></trkpt><trkpt lat="44.3747417" lon="10.93072"><ele>348.0</ele><time>2026-05-02T08:37:08.998Z</time></trkpt><trkpt lat="44.3748217" lon="10.930655"><ele>347.0</ele><time>2026-05-02T08:37:09.998Z</time></trkpt><trkpt lat="44.3749017" lon="10.93059"><ele>346.0</ele><time>2026-05-02T08:37:10.996Z</time></trkpt><trkpt lat="44.3749717" lon="10.9305233"><ele>344.4</ele><time>2026-05-02T08:37:11.993Z</time></trkpt><trkpt lat="44.37504" lon="10.9304483"><ele>342.8</ele><time>2026-05-02T08:37:12.996Z</time></trkpt><trkpt lat="44.3751117" lon="10.9303683"><ele>341.2</ele><time>2026-05-02T08:37:13.993Z</time></trkpt><trkpt lat="44.3751817" lon="10.9302867"><ele>339.59999999999997</ele><time>2026-05-02T08:37:14.996Z</time></trkpt><trkpt lat="44.3752517" lon="10.9302"><ele>338.0</ele><time>2026-05-02T08:37:15.994Z</time></trkpt><trkpt lat="44.37532" lon="10.9301083"><ele>336.2</ele><time>2026-05-02T08:37:16.994Z</time></trkpt><trkpt lat="44.3753867" lon="10.9300133"><ele>334.4</ele><time>2026-05-02T08:37:17.994Z</time></trkpt><trkpt lat="44.3754533" lon="10.9299117"><ele>332.59999999999997</ele><time>2026-05-02T08:37:18.993Z</time></trkpt><trkpt lat="44.375515" lon="10.929805"><ele>330.79999999999995</ele><time>2026-05-02T08:37:19.993Z</time></trkpt><trkpt lat="44.375565" lon="10.9296933"><ele>329.0</ele><time>2026-05-02T08:37:20.995Z</time></trkpt><trkpt lat="44.37561" lon="10.9295767"><ele>328.6</ele><time>2026-05-02T08:37:21.993Z</time></trkpt><trkpt lat="44.37565" lon="10.92947"><ele>328.2</ele><time>2026-05-02T08:37:22.993Z</time></trkpt><trkpt lat="44.3756833" lon="10.9293583"><ele>327.8</ele><time>2026-05-02T08:37:23.994Z</time></trkpt><trkpt lat="44.3757183" lon="10.9292433"><ele>327.40000000000003</ele><time>2026-05-02T08:37:24.997Z</time></trkpt><trkpt lat="44.3757583" lon="10.9291267"><ele>327.0</ele><time>2026-05-02T08:37:25.996Z</time></trkpt><trkpt lat="44.3758083" lon="10.9290017"><ele>325.40000000000003</ele><time>2026-05-02T08:37:26.996Z</time></trkpt><trkpt lat="44.375865" lon="10.9288783"><ele>323.8</ele><time>2026-05-02T08:37:27.996Z</time></trkpt><trkpt lat="44.37593" lon="10.9287517"><ele>322.2</ele><time>2026-05-02T08:37:28.995Z</time></trkpt><trkpt lat="44.3759883" lon="10.9286267"><ele>320.6</ele><time>2026-05-02T08:37:29.993Z</time></trkpt><trkpt lat="44.3760417" lon="10.9285033"><ele>319.0</ele><time>2026-05-02T08:37:30.998Z</time></trkpt><trkpt lat="44.3760917" lon="10.9283767"><ele>316.8</ele><time>2026-05-02T08:37:31.994Z</time></trkpt><trkpt lat="44.3761383" lon="10.92825"><ele>314.59999999999997</ele><time>2026-05-02T08:37:32.994Z</time></trkpt><trkpt lat="44.37619" lon="10.92812"><ele>312.4</ele><time>2026-05-02T08:37:33.996Z</time></trkpt><trkpt lat="44.376245" lon="10.9279883"><ele>310.2</ele><time>2026-05-02T08:37:34.996Z</time></trkpt><trkpt lat="44.3763" lon="10.9278567"><ele>308.0</ele><time>2026-05-02T08:37:35.994Z</time></trkpt><trkpt lat="44.3763567" lon="10.9277283"><ele>307.2</ele><time>2026-05-02T08:37:36.993Z</time></trkpt><trkpt lat="44.376405" lon="10.9276"><ele>306.4</ele><time>2026-05-02T08:37:37.994Z</time></trkpt><trkpt lat="44.3764467" lon="10.927465"><ele>305.59999999999997</ele><time>2026-05-02T08:37:38.994Z</time></trkpt><trkpt lat="44.3764833" lon="10.927315"><ele>304.8</ele><time>2026-05-02T08:37:39.996Z</time></trkpt><trkpt lat="44.3765167" lon="10.92715"><ele>304.0</ele><time>2026-05-02T08:37:40.993Z</time></trkpt><trkpt lat="44.3765483" lon="10.9269783"><ele>302.0</ele><time>2026-05-02T08:37:41.993Z</time></trkpt><trkpt lat="44.37658" lon="10.9268017"><ele>300.0</ele><time>2026-05-02T08:37:42.993Z</time></trkpt><trkpt lat="44.3766133" lon="10.9266333"><ele>298.0</ele><time>2026-05-02T08:37:43.996Z</time></trkpt><trkpt lat="44.3766467" lon="10.9264783"><ele>296.0</ele><time>2026-05-02T08:37:44.993Z</time></trkpt><trkpt lat="44.3766717" lon="10.92634"><ele>294.6</ele><time>2026-05-02T08:37:45.995Z</time></trkpt><trkpt lat="44.376685" lon="10.926205"><ele>293.20000000000005</ele><time>2026-05-02T08:37:46.995Z</time></trkpt><trkpt lat="44.376685" lon="10.92607"><ele>291.79999999999995</ele><time>2026-05-02T08:37:47.995Z</time></trkpt><trkpt lat="44.3766717" lon="10.9259283"><ele>290.4</ele><time>2026-05-02T08:37:48.993Z</time></trkpt><trkpt lat="44.3766467" lon="10.925785"><ele>289.0</ele><time>2026-05-02T08:37:49.998Z</time></trkpt><trkpt lat="44.37661" lon="10.925655"><ele>287.3333333333333</ele><time>2026-05-02T08:37:50.993Z</time></trkpt><trkpt lat="44.3765717" lon="10.9255333"><ele>285.66666666666663</ele><time>2026-05-02T08:37:51.995Z</time></trkpt><trkpt lat="44.3765433" lon="10.92543"><ele>284.0</ele><time>2026-05-02T08:37:52.994Z</time></trkpt><trkpt lat="44.3765283" lon="10.9253267"><ele>282.3333333333333</ele><time>2026-05-02T08:37:53.996Z</time></trkpt><trkpt lat="44.3765383" lon="10.9252267"><ele>280.6666666666667</ele><time>2026-05-02T08:37:54.994Z</time></trkpt><trkpt lat="44.3765617" lon="10.9251183"><ele>279.0</ele><time>2026-05-02T08:37:55.994Z</time></trkpt><trkpt lat="44.3766083" lon="10.92501"><ele>277.4</ele><time>2026-05-02T08:37:56.994Z</time></trkpt><trkpt lat="44.3766567" lon="10.9249033"><ele>275.79999999999995</ele><time>2026-05-02T08:37:57.993Z</time></trkpt><trkpt lat="44.3766983" lon="10.9247917"><ele>274.20000000000005</ele><time>2026-05-02T08:37:58.993Z</time></trkpt><trkpt lat="44.3767267" lon="10.9246667"><ele>272.6</ele><time>2026-05-02T08:37:59.993Z</time></trkpt><trkpt lat="44.3767283" lon="10.9245367"><ele>271.0</ele><time>2026-05-02T08:38:00.994Z</time></trkpt><trkpt lat="44.3767133" lon="10.9244083"><ele>271.0</ele><time>2026-05-02T08:38:01.994Z</time></trkpt><trkpt lat="44.3766967" lon="10.9242917"><ele>271.0</ele><time>2026-05-02T08:38:02.994Z</time></trkpt><trkpt lat="44.3766933" lon="10.9241833"><ele>271.0</ele><time>2026-05-02T08:38:03.994Z</time></trkpt><trkpt lat="44.376715" lon="10.924095"><ele>271.0</ele><time>2026-05-02T08:38:04.995Z</time></trkpt><trkpt lat="44.3767733" lon="10.9240233"><ele>271.0</ele><time>2026-05-02T08:38:05.995Z</time></trkpt><trkpt lat="44.3768433" lon="10.9239483"><ele>271.0</ele><time>2026-05-02T08:38:06.994Z</time></trkpt><trkpt lat="44.376925" lon="10.9238617"><ele>270.0</ele><time>2026-05-02T08:38:07.996Z</time></trkpt><trkpt lat="44.3770067" lon="10.92376"><ele>269.0</ele><time>2026-05-02T08:38:08.994Z</time></trkpt><trkpt lat="44.3770717" lon="10.92366"><ele>268.0</ele><time>2026-05-02T08:38:09.996Z</time></trkpt><trkpt lat="44.377115" lon="10.9235683"><ele>267.0</ele><time>2026-05-02T08:38:10.994Z</time></trkpt><trkpt lat="44.3771417" lon="10.923475"><ele>266.0</ele><time>2026-05-02T08:38:11.993Z</time></trkpt><trkpt lat="44.3771433" lon="10.9233667"><ele>265.0</ele><time>2026-05-02T08:38:12.994Z</time></trkpt><trkpt lat="44.3771467" lon="10.923235"><ele>263.8</ele><time>2026-05-02T08:38:13.994Z</time></trkpt><trkpt lat="44.377155" lon="10.9231117"><ele>262.6</ele><time>2026-05-02T08:38:14.993Z</time></trkpt><trkpt lat="44.3771783" lon="10.9229983"><ele>261.4</ele><time>2026-05-02T08:38:15.994Z</time></trkpt><trkpt lat="44.3772133" lon="10.92289"><ele>260.2</ele><time>2026-05-02T08:38:16.994Z</time></trkpt><trkpt lat="44.3772733" lon="10.922775"><ele>259.0</ele><time>2026-05-02T08:38:17.993Z</time></trkpt><trkpt lat="44.3773383" lon="10.922655"><ele>260.5</ele><time>2026-05-02T08:38:18.996Z</time></trkpt><trkpt lat="44.3774033" lon="10.9225333"><ele>262.0</ele><time>2026-05-02T08:38:19.994Z</time></trkpt><trkpt lat="44.37746" lon="10.922395"><ele>263.5</ele><time>2026-05-02T08:38:20.993Z</time></trkpt><trkpt lat="44.377505" lon="10.9222367"><ele>265.0</ele><time>2026-05-02T08:38:21.993Z</time></trkpt><trkpt lat="44.3775417" lon="10.922065"><ele>265.0</ele><time>2026-05-02T08:38:22.993Z</time></trkpt><trkpt lat="44.3775533" lon="10.9218917"><ele>265.0</ele><time>2026-05-02T08:38:23.995Z</time></trkpt><trkpt lat="44.3775567" lon="10.92173"><ele>265.0</ele><time>2026-05-02T08:38:24.995Z</time></trkpt><trkpt lat="44.3775533" lon="10.9215783"><ele>265.0</ele><time>2026-05-02T08:38:25.996Z</time></trkpt><trkpt lat="44.37755" lon="10.9214283"><ele>264.0</ele><time>2026-05-02T08:38:26.993Z</time></trkpt><trkpt lat="44.3775533" lon="10.9212867"><ele>263.0</ele><time>2026-05-02T08:38:27.994Z</time></trkpt><trkpt lat="44.3775667" lon="10.9211533"><ele>262.0</ele><time>2026-05-02T08:38:28.994Z</time></trkpt><trkpt lat="44.3775867" lon="10.9210317"><ele>261.0</ele><time>2026-05-02T08:38:29.993Z</time></trkpt><trkpt lat="44.37762" lon="10.9209267"><ele>260.0</ele><time>2026-05-02T08:38:30.999Z</time></trkpt><trkpt lat="44.377665" lon="10.9208417"><ele>259.0</ele><time>2026-05-02T08:38:31.994Z</time></trkpt><trkpt lat="44.377725" lon="10.9207867"><ele>260.0</ele><time>2026-05-02T08:38:32.993Z</time></trkpt><trkpt lat="44.3778083" lon="10.9207567"><ele>261.0</ele><time>2026-05-02T08:38:33.994Z</time></trkpt><trkpt lat="44.377895" lon="10.9207167"><ele>262.0</ele><time>2026-05-02T08:38:34.996Z</time></trkpt><trkpt lat="44.3779833" lon="10.9206617"><ele>263.0</ele><time>2026-05-02T08:38:35.994Z</time></trkpt><trkpt lat="44.37806" lon="10.9205833"><ele>264.0</ele><time>2026-05-02T08:38:36.994Z</time></trkpt><trkpt lat="44.37813" lon="10.9205"><ele>264.0</ele><time>2026-05-02T08:38:37.993Z</time></trkpt><trkpt lat="44.378205" lon="10.9204317"><ele>264.0</ele><time>2026-05-02T08:38:38.993Z</time></trkpt><trkpt lat="44.3783" lon="10.9203833"><ele>264.0</ele><time>2026-05-02T08:38:39.993Z</time></trkpt><trkpt lat="44.37841" lon="10.920335"><ele>264.0</ele><time>2026-05-02T08:38:40.993Z</time></trkpt><trkpt lat="44.37853" lon="10.9202867"><ele>264.0</ele><time>2026-05-02T08:38:41.994Z</time></trkpt><trkpt lat="44.3786567" lon="10.9202233"><ele>264.0</ele><time>2026-05-02T08:38:42.993Z</time></trkpt><trkpt lat="44.3787817" lon="10.9201483"><ele>264.0</ele><time>2026-05-02T08:38:43.995Z</time></trkpt><trkpt lat="44.3788917" lon="10.9200667"><ele>264.0</ele><time>2026-05-02T08:38:44.993Z</time></trkpt><trkpt lat="44.3789883" lon="10.9199983"><ele>264.0</ele><time>2026-05-02T08:38:45.994Z</time></trkpt><trkpt lat="44.37907" lon="10.9199317"><ele>260.4</ele><time>2026-05-02T08:38:46.994Z</time></trkpt><trkpt lat="44.3791383" lon="10.919845"><ele>256.79999999999995</ele><time>2026-05-02T08:38:47.994Z</time></trkpt><trkpt lat="44.379195" lon="10.9197267"><ele>253.20000000000002</ele><time>2026-05-02T08:38:48.993Z</time></trkpt><trkpt lat="44.379225" lon="10.9195883"><ele>249.60000000000002</ele><time>2026-05-02T08:38:49.993Z</time></trkpt><trkpt lat="44.37924" lon="10.9194383"><ele>246.0</ele><time>2026-05-02T08:38:50.994Z</time></trkpt><trkpt lat="44.3792467" lon="10.9192967"><ele>243.83333333333334</ele><time>2026-05-02T08:38:51.995Z</time></trkpt><trkpt lat="44.37925" lon="10.919165"><ele>241.66666666666669</ele><time>2026-05-02T08:38:52.996Z</time></trkpt><trkpt lat="44.3792617" lon="10.919045"><ele>239.5</ele><time>2026-05-02T08:38:53.993Z</time></trkpt><trkpt lat="44.3792917" lon="10.9189433"><ele>237.33333333333334</ele><time>2026-05-02T08:38:54.996Z</time></trkpt><trkpt lat="44.3793433" lon="10.9188683"><ele>235.16666666666669</ele><time>2026-05-02T08:38:55.993Z</time></trkpt><trkpt lat="44.379415" lon="10.9188233"><ele>233.0</ele><time>2026-05-02T08:38:56.994Z</time></trkpt><trkpt lat="44.3795133" lon="10.9188"><ele>233.0</ele><time>2026-05-02T08:38:57.993Z</time></trkpt><trkpt lat="44.3796333" lon="10.9187883"><ele>233.0</ele><time>2026-05-02T08:38:58.994Z</time></trkpt><trkpt lat="44.3797633" lon="10.9187817"><ele>233.0</ele><time>2026-05-02T08:38:59.993Z</time></trkpt><trkpt lat="44.3798817" lon="10.91877"><ele>233.0</ele><time>2026-05-02T08:39:00.994Z</time></trkpt><trkpt lat="44.3799733" lon="10.9187517"><ele>232.4</ele><time>2026-05-02T08:39:01.994Z</time></trkpt><trkpt lat="44.38005" lon="10.9187233"><ele>231.8</ele><time>2026-05-02T08:39:02.995Z</time></trkpt><trkpt lat="44.3801067" lon="10.9186817"><ele>231.2</ele><time>2026-05-02T08:39:03.994Z</time></trkpt><trkpt lat="44.38016" lon="10.9185133"><ele>230.6</ele><time>2026-05-02T08:39:05.995Z</time></trkpt><trkpt lat="44.38018" lon="10.9183933"><ele>230.0</ele><time>2026-05-02T08:39:06.995Z</time></trkpt><trkpt lat="44.3802083" lon="10.918265"><ele>230.0</ele><time>2026-05-02T08:39:07.995Z</time></trkpt><trkpt lat="44.3802533" lon="10.918145"><ele>230.0</ele><time>2026-05-02T08:39:08.992Z</time></trkpt><trkpt lat="44.380315" lon="10.9180333"><ele>230.0</ele><time>2026-05-02T08:39:09.994Z</time></trkpt><trkpt lat="44.38038" lon="10.9179267"><ele>230.0</ele><time>2026-05-02T08:39:10.994Z</time></trkpt><trkpt lat="44.380445" lon="10.91782"><ele>230.0</ele><time>2026-05-02T08:39:11.994Z</time></trkpt><trkpt lat="44.3805" lon="10.91771"><ele>231.4</ele><time>2026-05-02T08:39:12.998Z</time></trkpt><trkpt lat="44.38054" lon="10.9175883"><ele>232.8</ele><time>2026-05-02T08:39:13.993Z</time></trkpt><trkpt lat="44.380565" lon="10.9174483"><ele>234.2</ele><time>2026-05-02T08:39:14.993Z</time></trkpt><trkpt lat="44.3805717" lon="10.9172933"><ele>235.6</ele><time>2026-05-02T08:39:15.994Z</time></trkpt><trkpt lat="44.38056" lon="10.917125"><ele>237.0</ele><time>2026-05-02T08:39:16.993Z</time></trkpt><trkpt lat="44.380535" lon="10.9169483"><ele>233.5</ele><time>2026-05-02T08:39:17.995Z</time></trkpt><trkpt lat="44.3805017" lon="10.91677"><ele>230.0</ele><time>2026-05-02T08:39:18.993Z</time></trkpt><trkpt lat="44.3804633" lon="10.916595"><ele>226.5</ele><time>2026-05-02T08:39:19.994Z</time></trkpt><trkpt lat="44.3804317" lon="10.9164283"><ele>223.0</ele><time>2026-05-02T08:39:20.995Z</time></trkpt><trkpt lat="44.3804133" lon="10.9162683"><ele>219.8</ele><time>2026-05-02T08:39:21.993Z</time></trkpt><trkpt lat="44.3804083" lon="10.91611"><ele>216.60000000000002</ele><time>2026-05-02T08:39:22.993Z</time></trkpt><trkpt lat="44.38041" lon="10.9159583"><ele>213.39999999999998</ele><time>2026-05-02T08:39:23.994Z</time></trkpt><trkpt lat="44.3804167" lon="10.91582"><ele>210.2</ele><time>2026-05-02T08:39:24.995Z</time></trkpt><trkpt lat="44.3804317" lon="10.9156933"><ele>207.0</ele><time>2026-05-02T08:39:25.992Z</time></trkpt><trkpt lat="44.3804617" lon="10.9155717"><ele>206.0</ele><time>2026-05-02T08:39:26.994Z</time></trkpt><trkpt lat="44.3805083" lon="10.9154567"><ele>205.0</ele><time>2026-05-02T08:39:27.993Z</time></trkpt><trkpt lat="44.380565" lon="10.9153417"><ele>204.0</ele><time>2026-05-02T08:39:28.996Z</time></trkpt><trkpt lat="44.3806383" lon="10.91522"><ele>203.0</ele><time>2026-05-02T08:39:29.993Z</time></trkpt><trkpt lat="44.3807217" lon="10.9150983"><ele>202.0</ele><time>2026-05-02T08:39:30.993Z</time></trkpt><trkpt lat="44.380795" lon="10.9149833"><ele>201.6</ele><time>2026-05-02T08:39:31.993Z</time></trkpt><trkpt lat="44.3808683" lon="10.9148733"><ele>201.2</ele><time>2026-05-02T08:39:32.997Z</time></trkpt><trkpt lat="44.3809417" lon="10.9147733"><ele>200.8</ele><time>2026-05-02T08:39:33.996Z</time></trkpt><trkpt lat="44.381035" lon="10.9146867"><ele>200.4</ele><time>2026-05-02T08:39:34.994Z</time></trkpt><trkpt lat="44.3811317" lon="10.9146033"><ele>200.0</ele><time>2026-05-02T08:39:35.995Z</time></trkpt><trkpt lat="44.3812333" lon="10.9145017"><ele>200.0</ele><time>2026-05-02T08:39:36.994Z</time></trkpt><trkpt lat="44.3813283" lon="10.9143983"><ele>200.0</ele><time>2026-05-02T08:39:37.994Z</time></trkpt><trkpt lat="44.38142" lon="10.9142983"><ele>200.0</ele><time>2026-05-02T08:39:38.996Z</time></trkpt><trkpt lat="44.38152" lon="10.9142133"><ele>200.0</ele><time>2026-05-02T08:39:39.995Z</time></trkpt><trkpt lat="44.3816183" lon="10.91414"><ele>199.5</ele><time>2026-05-02T08:39:40.995Z</time></trkpt><trkpt lat="44.3817183" lon="10.9140717"><ele>199.0</ele><time>2026-05-02T08:39:41.992Z</time></trkpt><trkpt lat="44.381825" lon="10.9140133"><ele>198.5</ele><time>2026-05-02T08:39:42.994Z</time></trkpt><trkpt lat="44.3819383" lon="10.913965"><ele>198.0</ele><time>2026-05-02T08:39:43.994Z</time></trkpt><trkpt lat="44.382055" lon="10.913915"><ele>198.0</ele><time>2026-05-02T08:39:44.993Z</time></trkpt><trkpt lat="44.3821633" lon="10.913875"><ele>198.0</ele><time>2026-05-02T08:39:45.995Z</time></trkpt><trkpt lat="44.3822683" lon="10.9138317"><ele>198.0</ele><time>2026-05-02T08:39:46.994Z</time></trkpt><trkpt lat="44.3823533" lon="10.9137933"><ele>198.0</ele><time>2026-05-02T08:39:47.994Z</time></trkpt><trkpt lat="44.3824267" lon="10.9137617"><ele>198.0</ele><time>2026-05-02T08:39:48.994Z</time></trkpt><trkpt lat="44.3825383" lon="10.91372"><ele>197.8</ele><time>2026-05-02T08:39:50.995Z</time></trkpt><trkpt lat="44.38263" lon="10.9136383"><ele>197.60000000000002</ele><time>2026-05-02T08:39:52.995Z</time></trkpt><trkpt lat="44.3826733" lon="10.913495"><ele>197.39999999999998</ele><time>2026-05-02T08:39:54.994Z</time></trkpt><trkpt lat="44.382655" lon="10.9133467"><ele>197.2</ele><time>2026-05-02T08:39:56.994Z</time></trkpt><trkpt lat="44.3826367" lon="10.913195"><ele>197.0</ele><time>2026-05-02T08:39:58.996Z</time></trkpt><trkpt lat="44.3826183" lon="10.9130417"><ele>196.6</ele><time>2026-05-02T08:40:00.994Z</time></trkpt><trkpt lat="44.3826" lon="10.91289"><ele>196.2</ele><time>2026-05-02T08:40:02.993Z</time></trkpt><trkpt lat="44.382585" lon="10.9127533"><ele>195.8</ele><time>2026-05-02T08:40:04.993Z</time></trkpt><trkpt lat="44.382565" lon="10.9126217"><ele>195.4</ele><time>2026-05-02T08:40:06.995Z</time></trkpt><trkpt lat="44.3825667" lon="10.912495"><ele>195.0</ele><time>2026-05-02T08:40:08.995Z</time></trkpt><trkpt lat="44.382625" lon="10.9123633"><ele>195.8</ele><time>2026-05-02T08:40:10.993Z</time></trkpt><trkpt lat="44.3827083" lon="10.91231"><ele>196.6</ele><time>2026-05-02T08:40:12.994Z</time></trkpt><trkpt lat="44.38279" lon="10.9122717"><ele>197.39999999999998</ele><time>2026-05-02T08:40:19.996Z</time></trkpt><trkpt lat="44.38291" lon="10.9122317"><ele>198.2</ele><time>2026-05-02T08:40:21.994Z</time></trkpt><trkpt lat="44.3829867" lon="10.912225"><ele>199.0</ele><time>2026-05-02T08:40:22.993Z</time></trkpt><trkpt lat="44.3830817" lon="10.9122317"><ele>199.0</ele><time>2026-05-02T08:40:23.996Z</time></trkpt><trkpt lat="44.3831983" lon="10.91225"><ele>199.0</ele><time>2026-05-02T08:40:24.994Z</time></trkpt><trkpt lat="44.3833183" lon="10.9122783"><ele>199.0</ele><time>2026-05-02T08:40:25.995Z</time></trkpt><trkpt lat="44.383445" lon="10.9123083"><ele>199.0</ele><time>2026-05-02T08:40:26.993Z</time></trkpt><trkpt lat="44.3835767" lon="10.912345"><ele>199.0</ele><time>2026-05-02T08:40:27.995Z</time></trkpt><trkpt lat="44.3837117" lon="10.9123817"><ele>199.0</ele><time>2026-05-02T08:40:28.996Z</time></trkpt><trkpt lat="44.3838533" lon="10.9124183"><ele>199.0</ele><time>2026-05-02T08:40:29.993Z</time></trkpt><trkpt lat="44.3840033" lon="10.9124583"><ele>199.0</ele><time>2026-05-02T08:40:30.994Z</time></trkpt><trkpt lat="44.3841567" lon="10.9125017"><ele>200.33333333333331</ele><time>2026-05-02T08:40:31.995Z</time></trkpt><trkpt lat="44.3843117" lon="10.9125433"><ele>201.66666666666669</ele><time>2026-05-02T08:40:32.996Z</time></trkpt><trkpt lat="44.384465" lon="10.91259"><ele>203.0</ele><time>2026-05-02T08:40:33.997Z</time></trkpt><trkpt lat="44.3846233" lon="10.9126317"><ele>201.5</ele><time>2026-05-02T08:40:34.996Z</time></trkpt><trkpt lat="44.38477" lon="10.9126717"><ele>200.0</ele><time>2026-05-02T08:40:35.996Z</time></trkpt><trkpt lat="44.3849083" lon="10.912715"><ele>198.5</ele><time>2026-05-02T08:40:36.996Z</time></trkpt><trkpt lat="44.385035" lon="10.912765"><ele>197.0</ele><time>2026-05-02T08:40:37.994Z</time></trkpt><trkpt lat="44.3851583" lon="10.912825"><ele>197.0</ele><time>2026-05-02T08:40:38.995Z</time></trkpt><trkpt lat="44.3852833" lon="10.9128967"><ele>197.0</ele><time>2026-05-02T08:40:39.995Z</time></trkpt><trkpt lat="44.3854067" lon="10.9129817"><ele>197.0</ele><time>2026-05-02T08:40:40.993Z</time></trkpt><trkpt lat="44.38553" lon="10.9130783"><ele>197.0</ele><time>2026-05-02T08:40:41.993Z</time></trkpt><trkpt lat="44.38565" lon="10.913185"><ele>197.0</ele><time>2026-05-02T08:40:42.993Z</time></trkpt><trkpt lat="44.3857667" lon="10.913295"><ele>197.0</ele><time>2026-05-02T08:40:43.994Z</time></trkpt><trkpt lat="44.3858783" lon="10.9134017"><ele>197.0</ele><time>2026-05-02T08:40:44.993Z</time></trkpt><trkpt lat="44.38599" lon="10.9135033"><ele>197.0</ele><time>2026-05-02T08:40:45.994Z</time></trkpt><trkpt lat="44.3861017" lon="10.9136083"><ele>197.2</ele><time>2026-05-02T08:40:46.993Z</time></trkpt><trkpt lat="44.3862117" lon="10.91371"><ele>197.39999999999998</ele><time>2026-05-02T08:40:47.994Z</time></trkpt><trkpt lat="44.3863083" lon="10.9138"><ele>197.60000000000002</ele><time>2026-05-02T08:40:48.994Z</time></trkpt><trkpt lat="44.386395" lon="10.9138783"><ele>197.8</ele><time>2026-05-02T08:40:49.993Z</time></trkpt><trkpt lat="44.3864717" lon="10.9139433"><ele>198.0</ele><time>2026-05-02T08:40:50.994Z</time></trkpt><trkpt lat="44.3865383" lon="10.914"><ele>198.0</ele><time>2026-05-02T08:40:51.995Z</time></trkpt><trkpt lat="44.3866367" lon="10.9140767"><ele>198.0</ele><time>2026-05-02T08:40:53.993Z</time></trkpt><trkpt lat="44.3867067" lon="10.9141117"><ele>198.0</ele><time>2026-05-02T08:40:55.995Z</time></trkpt><trkpt lat="44.3867683" lon="10.9140467"><ele>198.0</ele><time>2026-05-02T08:40:58.995Z</time></trkpt><trkpt lat="44.3867617" lon="10.9139217"><ele>198.0</ele><time>2026-05-02T08:41:00.995Z</time></trkpt><trkpt lat="44.3867317" lon="10.9137783"><ele>198.0</ele><time>2026-05-02T08:41:02.996Z</time></trkpt><trkpt lat="44.386715" lon="10.9136517"><ele>198.0</ele><time>2026-05-02T08:41:04.994Z</time></trkpt><trkpt lat="44.386685" lon="10.9135167"><ele>198.0</ele><time>2026-05-02T08:41:06.994Z</time></trkpt><trkpt lat="44.3866483" lon="10.91336"><ele>198.0</ele><time>2026-05-02T08:41:08.994Z</time></trkpt><trkpt lat="44.386625" lon="10.91327"><ele>198.0</ele><time>2026-05-02T08:41:09.994Z</time></trkpt><trkpt lat="44.3866" lon="10.9131733"><ele>198.83333333333334</ele><time>2026-05-02T08:41:10.995Z</time></trkpt><trkpt lat="44.38657" lon="10.9130667"><ele>199.66666666666669</ele><time>2026-05-02T08:41:11.996Z</time></trkpt><trkpt lat="44.3865417" lon="10.912955"><ele>200.5</ele><time>2026-05-02T08:41:12.996Z</time></trkpt><trkpt lat="44.3865183" lon="10.91284"><ele>201.33333333333334</ele><time>2026-05-02T08:41:13.994Z</time></trkpt><trkpt lat="44.3864983" lon="10.912725"><ele>202.16666666666669</ele><time>2026-05-02T08:41:14.996Z</time></trkpt><trkpt lat="44.3864817" lon="10.9126167"><ele>203.0</ele><time>2026-05-02T08:41:15.994Z</time></trkpt><trkpt lat="44.3864733" lon="10.9125067"><ele>203.66666666666669</ele><time>2026-05-02T08:41:16.995Z</time></trkpt><trkpt lat="44.38647" lon="10.9123983"><ele>204.33333333333334</ele><time>2026-05-02T08:41:17.994Z</time></trkpt><trkpt lat="44.3864733" lon="10.9122883"><ele>205.0</ele><time>2026-05-02T08:41:18.994Z</time></trkpt><trkpt lat="44.3864933" lon="10.91218"><ele>205.66666666666669</ele><time>2026-05-02T08:41:19.994Z</time></trkpt><trkpt lat="44.3865283" lon="10.9120683"><ele>206.33333333333334</ele><time>2026-05-02T08:41:20.995Z</time></trkpt><trkpt lat="44.38658" lon="10.9119533"><ele>207.0</ele><time>2026-05-02T08:41:21.993Z</time></trkpt><trkpt lat="44.3866417" lon="10.9118333"><ele>207.25</ele><time>2026-05-02T08:41:22.994Z</time></trkpt><trkpt lat="44.3867" lon="10.9116917"><ele>207.5</ele><time>2026-05-02T08:41:23.994Z</time></trkpt><trkpt lat="44.38675" lon="10.91153"><ele>207.75</ele><time>2026-05-02T08:41:24.994Z</time></trkpt><trkpt lat="44.3867917" lon="10.9113467"><ele>208.0</ele><time>2026-05-02T08:41:25.994Z</time></trkpt><trkpt lat="44.3868367" lon="10.9111433"><ele>208.0</ele><time>2026-05-02T08:41:26.996Z</time></trkpt><trkpt lat="44.386875" lon="10.9109317"><ele>208.0</ele><time>2026-05-02T08:41:27.998Z</time></trkpt><trkpt lat="44.38691" lon="10.91073"><ele>208.0</ele><time>2026-05-02T08:41:28.995Z</time></trkpt><trkpt lat="44.38694" lon="10.9105383"><ele>208.0</ele><time>2026-05-02T08:41:29.996Z</time></trkpt><trkpt lat="44.38696" lon="10.9103467"><ele>207.75</ele><time>2026-05-02T08:41:30.993Z</time></trkpt><trkpt lat="44.38697" lon="10.9101567"><ele>207.5</ele><time>2026-05-02T08:41:31.997Z</time></trkpt><trkpt lat="44.386965" lon="10.9099617"><ele>207.25</ele><time>2026-05-02T08:41:32.995Z</time></trkpt><trkpt lat="44.3869567" lon="10.909785"><ele>207.0</ele><time>2026-05-02T08:41:33.997Z</time></trkpt><trkpt lat="44.3869533" lon="10.909615"><ele>206.75</ele><time>2026-05-02T08:41:34.994Z</time></trkpt><trkpt lat="44.3869583" lon="10.9094317"><ele>206.5</ele><time>2026-05-02T08:41:35.993Z</time></trkpt><trkpt lat="44.3869667" lon="10.9092267"><ele>206.25</ele><time>2026-05-02T08:41:36.996Z</time></trkpt><trkpt lat="44.386985" lon="10.9090433"><ele>206.0</ele><time>2026-05-02T08:41:37.995Z</time></trkpt><trkpt lat="44.387005" lon="10.90887"><ele>206.4</ele><time>2026-05-02T08:41:38.993Z</time></trkpt><trkpt lat="44.3870317" lon="10.9087083"><ele>206.8</ele><time>2026-05-02T08:41:39.993Z</time></trkpt><trkpt lat="44.3870567" lon="10.908565"><ele>207.20000000000002</ele><time>2026-05-02T08:41:40.995Z</time></trkpt><trkpt lat="44.38708" lon="10.90844"><ele>207.60000000000002</ele><time>2026-05-02T08:41:41.993Z</time></trkpt><trkpt lat="44.3871067" lon="10.9083283"><ele>208.0</ele><time>2026-05-02T08:41:42.998Z</time></trkpt><trkpt lat="44.38715" lon="10.908225"><ele>211.4</ele><time>2026-05-02T08:41:43.995Z</time></trkpt><trkpt lat="44.3872117" lon="10.9081317"><ele>214.8</ele><time>2026-05-02T08:41:44.995Z</time></trkpt><trkpt lat="44.3872933" lon="10.9080417"><ele>218.2</ele><time>2026-05-02T08:41:45.996Z</time></trkpt><trkpt lat="44.3873683" lon="10.9079533"><ele>221.6</ele><time>2026-05-02T08:41:46.994Z</time></trkpt><trkpt lat="44.3874167" lon="10.9078617"><ele>225.0</ele><time>2026-05-02T08:41:47.994Z</time></trkpt><trkpt lat="44.38745" lon="10.90776"><ele>225.0</ele><time>2026-05-02T08:41:48.995Z</time></trkpt><trkpt lat="44.3874633" lon="10.90764"><ele>225.0</ele><time>2026-05-02T08:41:49.993Z</time></trkpt><trkpt lat="44.38746" lon="10.907505"><ele>225.0</ele><time>2026-05-02T08:41:50.994Z</time></trkpt><trkpt lat="44.387455" lon="10.907375"><ele>225.0</ele><time>2026-05-02T08:41:51.994Z</time></trkpt><trkpt lat="44.3874617" lon="10.9072533"><ele>225.0</ele><time>2026-05-02T08:41:52.994Z</time></trkpt><trkpt lat="44.387485" lon="10.9071433"><ele>225.0</ele><time>2026-05-02T08:41:53.993Z</time></trkpt><trkpt lat="44.3875317" lon="10.907045"><ele>225.0</ele><time>2026-05-02T08:41:54.996Z</time></trkpt><trkpt lat="44.3875717" lon="10.9069483"><ele>225.0</ele><time>2026-05-02T08:41:55.996Z</time></trkpt><trkpt lat="44.3875983" lon="10.906855"><ele>225.0</ele><time>2026-05-02T08:41:56.995Z</time></trkpt><trkpt lat="44.3875817" lon="10.9067517"><ele>225.0</ele><time>2026-05-02T08:41:57.996Z</time></trkpt><trkpt lat="44.38754" lon="10.9066533"><ele>225.0</ele><time>2026-05-02T08:41:58.994Z</time></trkpt><trkpt lat="44.3874783" lon="10.90658"><ele>225.0</ele><time>2026-05-02T08:41:59.996Z</time></trkpt><trkpt lat="44.3874017" lon="10.90654"><ele>225.0</ele><time>2026-05-02T08:42:00.993Z</time></trkpt><trkpt lat="44.387315" lon="10.9065467"><ele>225.0</ele><time>2026-05-02T08:42:01.994Z</time></trkpt><trkpt lat="44.3872383" lon="10.906535"><ele>225.0</ele><time>2026-05-02T08:42:02.993Z</time></trkpt><trkpt lat="44.3871583" lon="10.9065167"><ele>225.0</ele><time>2026-05-02T08:42:03.996Z</time></trkpt><trkpt lat="44.3870933" lon="10.9064417"><ele>225.0</ele><time>2026-05-02T08:42:04.993Z</time></trkpt><trkpt lat="44.3870333" lon="10.9063333"><ele>225.0</ele><time>2026-05-02T08:42:05.994Z</time></trkpt><trkpt lat="44.3869817" lon="10.9061833"><ele>224.0</ele><time>2026-05-02T08:42:06.994Z</time></trkpt><trkpt lat="44.3869267" lon="10.9060367"><ele>223.0</ele><time>2026-05-02T08:42:07.994Z</time></trkpt><trkpt lat="44.3868717" lon="10.9059133"><ele>222.0</ele><time>2026-05-02T08:42:08.994Z</time></trkpt><trkpt lat="44.38682" lon="10.9058017"><ele>221.0</ele><time>2026-05-02T08:42:09.994Z</time></trkpt><trkpt lat="44.3867683" lon="10.9057083"><ele>220.0</ele><time>2026-05-02T08:42:10.994Z</time></trkpt><trkpt lat="44.3867133" lon="10.90562"><ele>219.99999999999997</ele><time>2026-05-02T08:42:11.994Z</time></trkpt><trkpt lat="44.38666" lon="10.905535"><ele>220.0</ele><time>2026-05-02T08:42:12.994Z</time></trkpt><trkpt lat="44.386615" lon="10.9054483"><ele>220.0</ele><time>2026-05-02T08:42:13.994Z</time></trkpt><trkpt lat="44.3865833" lon="10.9053533"><ele>220.0</ele><time>2026-05-02T08:42:14.993Z</time></trkpt><trkpt lat="44.3865683" lon="10.9052367"><ele>219.99999999999997</ele><time>2026-05-02T08:42:15.995Z</time></trkpt><trkpt lat="44.386575" lon="10.9050983"><ele>220.0</ele><time>2026-05-02T08:42:16.996Z</time></trkpt><trkpt lat="44.3866083" lon="10.9049033"><ele>221.2</ele><time>2026-05-02T08:42:17.993Z</time></trkpt><trkpt lat="44.386635" lon="10.9047233"><ele>222.4</ele><time>2026-05-02T08:42:18.996Z</time></trkpt><trkpt lat="44.3866617" lon="10.9045567"><ele>223.60000000000002</ele><time>2026-05-02T08:42:19.996Z</time></trkpt><trkpt lat="44.386675" lon="10.9044183"><ele>224.8</ele><time>2026-05-02T08:42:20.995Z</time></trkpt><trkpt lat="44.3866767" lon="10.9043"><ele>226.0</ele><time>2026-05-02T08:42:21.994Z</time></trkpt><trkpt lat="44.386625" lon="10.9041967"><ele>226.0</ele><time>2026-05-02T08:42:22.996Z</time></trkpt><trkpt lat="44.3865533" lon="10.9040917"><ele>226.00000000000003</ele><time>2026-05-02T08:42:23.995Z</time></trkpt><trkpt lat="44.3864633" lon="10.9039967"><ele>226.00000000000003</ele><time>2026-05-02T08:42:24.995Z</time></trkpt><trkpt lat="44.38637" lon="10.9038983"><ele>226.0</ele><time>2026-05-02T08:42:25.996Z</time></trkpt><trkpt lat="44.3862917" lon="10.9037883"><ele>226.0</ele><time>2026-05-02T08:42:26.995Z</time></trkpt><trkpt lat="44.3862267" lon="10.90367"><ele>226.0</ele><time>2026-05-02T08:42:27.996Z</time></trkpt><trkpt lat="44.3861733" lon="10.903545"><ele>226.00000000000003</ele><time>2026-05-02T08:42:28.995Z</time></trkpt><trkpt lat="44.38613" lon="10.9034167"><ele>226.00000000000003</ele><time>2026-05-02T08:42:29.996Z</time></trkpt><trkpt lat="44.3861" lon="10.9032917"><ele>226.0</ele><time>2026-05-02T08:42:30.996Z</time></trkpt><trkpt lat="44.3860933" lon="10.9031517"><ele>226.0</ele><time>2026-05-02T08:42:31.996Z</time></trkpt><trkpt lat="44.3861067" lon="10.902985"><ele>227.25</ele><time>2026-05-02T08:42:32.995Z</time></trkpt><trkpt lat="44.386135" lon="10.902805"><ele>228.5</ele><time>2026-05-02T08:42:33.996Z</time></trkpt><trkpt lat="44.38616" lon="10.9026117"><ele>229.75</ele><time>2026-05-02T08:42:34.995Z</time></trkpt><trkpt lat="44.38618" lon="10.9024367"><ele>231.0</ele><time>2026-05-02T08:42:35.996Z</time></trkpt><trkpt lat="44.386195" lon="10.9022717"><ele>231.60000000000002</ele><time>2026-05-02T08:42:36.995Z</time></trkpt><trkpt lat="44.3862167" lon="10.9021233"><ele>232.20000000000002</ele><time>2026-05-02T08:42:37.993Z</time></trkpt><trkpt lat="44.3862533" lon="10.9019883"><ele>232.79999999999998</ele><time>2026-05-02T08:42:38.994Z</time></trkpt><trkpt lat="44.386305" lon="10.901875"><ele>233.39999999999998</ele><time>2026-05-02T08:42:39.996Z</time></trkpt><trkpt lat="44.3863733" lon="10.901785"><ele>234.0</ele><time>2026-05-02T08:42:40.995Z</time></trkpt><trkpt lat="44.3864617" lon="10.9017067"><ele>235.0</ele><time>2026-05-02T08:42:41.994Z</time></trkpt><trkpt lat="44.3865617" lon="10.901655"><ele>236.0</ele><time>2026-05-02T08:42:42.995Z</time></trkpt><trkpt lat="44.38667" lon="10.901625"><ele>237.0</ele><time>2026-05-02T08:42:43.993Z</time></trkpt><trkpt lat="44.3867917" lon="10.9016117"><ele>238.0</ele><time>2026-05-02T08:42:44.995Z</time></trkpt><trkpt lat="44.386925" lon="10.901605"><ele>238.0</ele><time>2026-05-02T08:42:45.996Z</time></trkpt><trkpt lat="44.38706" lon="10.9016067"><ele>238.0</ele><time>2026-05-02T08:42:46.994Z</time></trkpt><trkpt lat="44.38718" lon="10.9016067"><ele>238.0</ele><time>2026-05-02T08:42:47.994Z</time></trkpt><trkpt lat="44.38729" lon="10.9016"><ele>238.0</ele><time>2026-05-02T08:42:48.996Z</time></trkpt><trkpt lat="44.3873933" lon="10.9015717"><ele>240.5</ele><time>2026-05-02T08:42:49.995Z</time></trkpt><trkpt lat="44.3874933" lon="10.9015083"><ele>243.0</ele><time>2026-05-02T08:42:50.995Z</time></trkpt><trkpt lat="44.3876017" lon="10.9014033"><ele>245.5</ele><time>2026-05-02T08:42:51.994Z</time></trkpt><trkpt lat="44.387715" lon="10.901275"><ele>248.0</ele><time>2026-05-02T08:42:52.997Z</time></trkpt><trkpt lat="44.3878233" lon="10.9011467"><ele>248.0</ele><time>2026-05-02T08:42:54Z</time></trkpt><trkpt lat="44.3879167" lon="10.9010283"><ele>248.0</ele><time>2026-05-02T08:42:54.995Z</time></trkpt><trkpt lat="44.387995" lon="10.90092"><ele>248.0</ele><time>2026-05-02T08:42:55.995Z</time></trkpt><trkpt lat="44.3880633" lon="10.9007967"><ele>248.0</ele><time>2026-05-02T08:42:56.995Z</time></trkpt><trkpt lat="44.3881183" lon="10.9006617"><ele>248.75</ele><time>2026-05-02T08:42:57.998Z</time></trkpt><trkpt lat="44.3881583" lon="10.9005067"><ele>249.5</ele><time>2026-05-02T08:42:58.996Z</time></trkpt><trkpt lat="44.38818" lon="10.9003283"><ele>250.25</ele><time>2026-05-02T08:42:59.996Z</time></trkpt><trkpt lat="44.388195" lon="10.900125"><ele>251.0</ele><time>2026-05-02T08:43:00.995Z</time></trkpt><trkpt lat="44.3882083" lon="10.8999217"><ele>251.0</ele><time>2026-05-02T08:43:01.995Z</time></trkpt><trkpt lat="44.3882233" lon="10.89973"><ele>251.0</ele><time>2026-05-02T08:43:02.995Z</time></trkpt><trkpt lat="44.388245" lon="10.8995517"><ele>251.0</ele><time>2026-05-02T08:43:03.994Z</time></trkpt><trkpt lat="44.388275" lon="10.8993933"><ele>251.0</ele><time>2026-05-02T08:43:04.996Z</time></trkpt><trkpt lat="44.38832" lon="10.8992483"><ele>251.25</ele><time>2026-05-02T08:43:05.997Z</time></trkpt><trkpt lat="44.3883783" lon="10.8991067"><ele>251.5</ele><time>2026-05-02T08:43:06.993Z</time></trkpt><trkpt lat="44.3884533" lon="10.898965"><ele>251.75</ele><time>2026-05-02T08:43:07.996Z</time></trkpt><trkpt lat="44.3885467" lon="10.8988267"><ele>252.0</ele><time>2026-05-02T08:43:08.996Z</time></trkpt><trkpt lat="44.3886517" lon="10.89868"><ele>252.0</ele><time>2026-05-02T08:43:09.996Z</time></trkpt><trkpt lat="44.3887583" lon="10.8985383"><ele>252.0</ele><time>2026-05-02T08:43:10.997Z</time></trkpt><trkpt lat="44.3888583" lon="10.89841"><ele>252.0</ele><time>2026-05-02T08:43:11.993Z</time></trkpt><trkpt lat="44.388945" lon="10.89829"><ele>252.0</ele><time>2026-05-02T08:43:12.997Z</time></trkpt><trkpt lat="44.3890183" lon="10.898185"><ele>254.0</ele><time>2026-05-02T08:43:13.996Z</time></trkpt><trkpt lat="44.3890717" lon="10.8980683"><ele>256.0</ele><time>2026-05-02T08:43:14.996Z</time></trkpt><trkpt lat="44.389105" lon="10.89792"><ele>258.0</ele><time>2026-05-02T08:43:15.995Z</time></trkpt><trkpt lat="44.3891233" lon="10.8977467"><ele>260.0</ele><time>2026-05-02T08:43:16.996Z</time></trkpt><trkpt lat="44.3891217" lon="10.8975567"><ele>260.0</ele><time>2026-05-02T08:43:17.996Z</time></trkpt><trkpt lat="44.38912" lon="10.8973633"><ele>260.0</ele><time>2026-05-02T08:43:18.995Z</time></trkpt><trkpt lat="44.3891167" lon="10.8971867"><ele>260.0</ele><time>2026-05-02T08:43:19.996Z</time></trkpt><trkpt lat="44.3891183" lon="10.8970433"><ele>260.0</ele><time>2026-05-02T08:43:20.996Z</time></trkpt><trkpt lat="44.3891083" lon="10.8969117"><ele>260.0</ele><time>2026-05-02T08:43:21.995Z</time></trkpt><trkpt lat="44.3890767" lon="10.896805"><ele>260.0</ele><time>2026-05-02T08:43:22.996Z</time></trkpt><trkpt lat="44.3890233" lon="10.8967083"><ele>260.0</ele><time>2026-05-02T08:43:23.995Z</time></trkpt><trkpt lat="44.38894" lon="10.8966233"><ele>260.0</ele><time>2026-05-02T08:43:24.997Z</time></trkpt><trkpt lat="44.3888267" lon="10.8965533"><ele>260.0</ele><time>2026-05-02T08:43:25.995Z</time></trkpt><trkpt lat="44.3887267" lon="10.8964833"><ele>258.8</ele><time>2026-05-02T08:43:26.995Z</time></trkpt><trkpt lat="44.3886417" lon="10.8964117"><ele>257.6</ele><time>2026-05-02T08:43:27.994Z</time></trkpt><trkpt lat="44.3885767" lon="10.89632"><ele>256.4</ele><time>2026-05-02T08:43:28.996Z</time></trkpt><trkpt lat="44.388535" lon="10.8962067"><ele>255.2</ele><time>2026-05-02T08:43:29.995Z</time></trkpt><trkpt lat="44.38854" lon="10.8960783"><ele>254.0</ele><time>2026-05-02T08:43:30.996Z</time></trkpt><trkpt lat="44.3885717" lon="10.8959283"><ele>254.6</ele><time>2026-05-02T08:43:31.995Z</time></trkpt><trkpt lat="44.3886217" lon="10.8957667"><ele>255.2</ele><time>2026-05-02T08:43:32.996Z</time></trkpt><trkpt lat="44.3886733" lon="10.8956233"><ele>255.79999999999998</ele><time>2026-05-02T08:43:33.993Z</time></trkpt><trkpt lat="44.388715" lon="10.8954967"><ele>256.4</ele><time>2026-05-02T08:43:34.994Z</time></trkpt><trkpt lat="44.3887383" lon="10.895375"><ele>257.0</ele><time>2026-05-02T08:43:35.994Z</time></trkpt><trkpt lat="44.3887467" lon="10.8952533"><ele>257.0</ele><time>2026-05-02T08:43:36.996Z</time></trkpt><trkpt lat="44.388715" lon="10.8951383"><ele>257.0</ele><time>2026-05-02T08:43:37.995Z</time></trkpt><trkpt lat="44.38867" lon="10.8950333"><ele>257.0</ele><time>2026-05-02T08:43:38.995Z</time></trkpt><trkpt lat="44.3886033" lon="10.8949333"><ele>257.0</ele><time>2026-05-02T08:43:39.997Z</time></trkpt><trkpt lat="44.3885183" lon="10.89485"><ele>257.0</ele><time>2026-05-02T08:43:40.994Z</time></trkpt><trkpt lat="44.3884333" lon="10.894785"><ele>257.8</ele><time>2026-05-02T08:43:41.994Z</time></trkpt><trkpt lat="44.388355" lon="10.8947033"><ele>258.6</ele><time>2026-05-02T08:43:42.996Z</time></trkpt><trkpt lat="44.38829" lon="10.8946"><ele>259.40000000000003</ele><time>2026-05-02T08:43:43.993Z</time></trkpt><trkpt lat="44.38825" lon="10.8944733"><ele>260.2</ele><time>2026-05-02T08:43:44.996Z</time></trkpt><trkpt lat="44.388225" lon="10.8943267"><ele>261.0</ele><time>2026-05-02T08:43:45.994Z</time></trkpt><trkpt lat="44.3882" lon="10.8941633"><ele>262.25</ele><time>2026-05-02T08:43:46.995Z</time></trkpt><trkpt lat="44.3881583" lon="10.8939917"><ele>263.5</ele><time>2026-05-02T08:43:47.996Z</time></trkpt><trkpt lat="44.388095" lon="10.8938133"><ele>264.75</ele><time>2026-05-02T08:43:48.995Z</time></trkpt><trkpt lat="44.388015" lon="10.89363"><ele>266.0</ele><time>2026-05-02T08:43:49.995Z</time></trkpt><trkpt lat="44.3879383" lon="10.89345"><ele>265.75</ele><time>2026-05-02T08:43:50.995Z</time></trkpt><trkpt lat="44.3878717" lon="10.89327"><ele>265.5</ele><time>2026-05-02T08:43:51.995Z</time></trkpt><trkpt lat="44.3878133" lon="10.8930983"><ele>265.25</ele><time>2026-05-02T08:43:52.995Z</time></trkpt><trkpt lat="44.38776" lon="10.892955"><ele>265.0</ele><time>2026-05-02T08:43:53.995Z</time></trkpt><trkpt lat="44.3877117" lon="10.892845"><ele>265.0</ele><time>2026-05-02T08:43:54.995Z</time></trkpt><trkpt lat="44.387665" lon="10.8927583"><ele>265.0</ele><time>2026-05-02T08:43:55.996Z</time></trkpt><trkpt lat="44.3876033" lon="10.89269"><ele>265.0</ele><time>2026-05-02T08:43:56.995Z</time></trkpt><trkpt lat="44.3875367" lon="10.8926067"><ele>265.0</ele><time>2026-05-02T08:43:57.996Z</time></trkpt><trkpt lat="44.3874783" lon="10.8925"><ele>265.0</ele><time>2026-05-02T08:43:58.997Z</time></trkpt><trkpt lat="44.3874333" lon="10.8923817"><ele>265.0</ele><time>2026-05-02T08:43:59.995Z</time></trkpt><trkpt lat="44.3874183" lon="10.8922567"><ele>265.6</ele><time>2026-05-02T08:44:00.996Z</time></trkpt><trkpt lat="44.38741" lon="10.8921267"><ele>266.2</ele><time>2026-05-02T08:44:01.993Z</time></trkpt><trkpt lat="44.3874017" lon="10.89201"><ele>266.8</ele><time>2026-05-02T08:44:02.997Z</time></trkpt><trkpt lat="44.3873717" lon="10.8918967"><ele>267.4</ele><time>2026-05-02T08:44:03.996Z</time></trkpt><trkpt lat="44.3873167" lon="10.8917883"><ele>268.0</ele><time>2026-05-02T08:44:04.994Z</time></trkpt><trkpt lat="44.3872367" lon="10.891695"><ele>268.2</ele><time>2026-05-02T08:44:05.993Z</time></trkpt><trkpt lat="44.3871533" lon="10.8915917"><ele>268.4</ele><time>2026-05-02T08:44:06.994Z</time></trkpt><trkpt lat="44.3870817" lon="10.8914817"><ele>268.59999999999997</ele><time>2026-05-02T08:44:07.993Z</time></trkpt><trkpt lat="44.3870267" lon="10.89136"><ele>268.8</ele><time>2026-05-02T08:44:08.996Z</time></trkpt><trkpt lat="44.3869867" lon="10.8912183"><ele>269.0</ele><time>2026-05-02T08:44:09.994Z</time></trkpt><trkpt lat="44.38695" lon="10.8910683"><ele>269.0</ele><time>2026-05-02T08:44:10.999Z</time></trkpt><trkpt lat="44.3869217" lon="10.8909317"><ele>269.0</ele><time>2026-05-02T08:44:11.995Z</time></trkpt><trkpt lat="44.3868917" lon="10.89081"><ele>269.0</ele><time>2026-05-02T08:44:12.994Z</time></trkpt><trkpt lat="44.386835" lon="10.89071"><ele>269.0</ele><time>2026-05-02T08:44:13.996Z</time></trkpt><trkpt lat="44.3867617" lon="10.890625"><ele>269.0</ele><time>2026-05-02T08:44:14.994Z</time></trkpt><trkpt lat="44.38668" lon="10.8905433"><ele>268.83333333333337</ele><time>2026-05-02T08:44:15.993Z</time></trkpt><trkpt lat="44.3865933" lon="10.8904667"><ele>268.6666666666667</ele><time>2026-05-02T08:44:16.994Z</time></trkpt><trkpt lat="44.3865133" lon="10.890395"><ele>268.5</ele><time>2026-05-02T08:44:17.994Z</time></trkpt><trkpt lat="44.3864483" lon="10.8903217"><ele>268.3333333333333</ele><time>2026-05-02T08:44:18.997Z</time></trkpt><trkpt lat="44.3864017" lon="10.890235"><ele>268.16666666666663</ele><time>2026-05-02T08:44:19.995Z</time></trkpt><trkpt lat="44.3863767" lon="10.8901317"><ele>268.0</ele><time>2026-05-02T08:44:20.996Z</time></trkpt><trkpt lat="44.386375" lon="10.89002"><ele>270.0</ele><time>2026-05-02T08:44:21.995Z</time></trkpt><trkpt lat="44.3863967" lon="10.889885"><ele>272.0</ele><time>2026-05-02T08:44:22.995Z</time></trkpt><trkpt lat="44.3864283" lon="10.889715"><ele>274.0</ele><time>2026-05-02T08:44:23.995Z</time></trkpt><trkpt lat="44.3864583" lon="10.8895217"><ele>276.0</ele><time>2026-05-02T08:44:24.995Z</time></trkpt><trkpt lat="44.3864833" lon="10.889315"><ele>277.25</ele><time>2026-05-02T08:44:25.996Z</time></trkpt><trkpt lat="44.3864983" lon="10.8891117"><ele>278.5</ele><time>2026-05-02T08:44:26.995Z</time></trkpt><trkpt lat="44.38651" lon="10.888935"><ele>279.75</ele><time>2026-05-02T08:44:27.997Z</time></trkpt><trkpt lat="44.3865133" lon="10.8887833"><ele>281.0</ele><time>2026-05-02T08:44:28.995Z</time></trkpt><trkpt lat="44.3865017" lon="10.8886483"><ele>281.0</ele><time>2026-05-02T08:44:29.994Z</time></trkpt><trkpt lat="44.3864667" lon="10.8885233"><ele>281.0</ele><time>2026-05-02T08:44:30.995Z</time></trkpt><trkpt lat="44.3864167" lon="10.8883983"><ele>281.0</ele><time>2026-05-02T08:44:31.996Z</time></trkpt><trkpt lat="44.3863567" lon="10.8882883"><ele>281.0</ele><time>2026-05-02T08:44:32.996Z</time></trkpt><trkpt lat="44.3862967" lon="10.8881883"><ele>281.0</ele><time>2026-05-02T08:44:33.995Z</time></trkpt><trkpt lat="44.38624" lon="10.888085"><ele>281.0</ele><time>2026-05-02T08:44:34.994Z</time></trkpt><trkpt lat="44.3861967" lon="10.887975"><ele>281.0</ele><time>2026-05-02T08:44:35.996Z</time></trkpt><trkpt lat="44.3861717" lon="10.8878533"><ele>281.0</ele><time>2026-05-02T08:44:36.994Z</time></trkpt><trkpt lat="44.3861733" lon="10.8877"><ele>281.0</ele><time>2026-05-02T08:44:37.995Z</time></trkpt><trkpt lat="44.3861767" lon="10.8875433"><ele>281.0</ele><time>2026-05-02T08:44:38.994Z</time></trkpt><trkpt lat="44.386175" lon="10.8874067"><ele>281.0</ele><time>2026-05-02T08:44:39.996Z</time></trkpt><trkpt lat="44.38615" lon="10.8872733"><ele>281.0</ele><time>2026-05-02T08:44:40.993Z</time></trkpt><trkpt lat="44.3861083" lon="10.8871433"><ele>281.0</ele><time>2026-05-02T08:44:41.995Z</time></trkpt><trkpt lat="44.38604" lon="10.8870217"><ele>281.0</ele><time>2026-05-02T08:44:42.994Z</time></trkpt><trkpt lat="44.385965" lon="10.8869083"><ele>281.0</ele><time>2026-05-02T08:44:43.995Z</time></trkpt><trkpt lat="44.3859083" lon="10.8868167"><ele>282.0</ele><time>2026-05-02T08:44:44.994Z</time></trkpt><trkpt lat="44.385865" lon="10.886715"><ele>283.0</ele><time>2026-05-02T08:44:45.994Z</time></trkpt><trkpt lat="44.3858333" lon="10.88659"><ele>284.0</ele><time>2026-05-02T08:44:46.994Z</time></trkpt><trkpt lat="44.3857983" lon="10.88644"><ele>285.0</ele><time>2026-05-02T08:44:47.996Z</time></trkpt><trkpt lat="44.38576" lon="10.886275"><ele>286.0</ele><time>2026-05-02T08:44:48.996Z</time></trkpt><trkpt lat="44.38572" lon="10.8861117"><ele>286.0</ele><time>2026-05-02T08:44:49.993Z</time></trkpt><trkpt lat="44.3856817" lon="10.8859783"><ele>286.0</ele><time>2026-05-02T08:44:50.995Z</time></trkpt><trkpt lat="44.385645" lon="10.885855"><ele>286.0</ele><time>2026-05-02T08:44:51.995Z</time></trkpt><trkpt lat="44.3856183" lon="10.8857267"><ele>286.0</ele><time>2026-05-02T08:44:52.996Z</time></trkpt><trkpt lat="44.3856133" lon="10.88559"><ele>286.0</ele><time>2026-05-02T08:44:53.994Z</time></trkpt><trkpt lat="44.3856167" lon="10.8854367"><ele>287.0</ele><time>2026-05-02T08:44:55.001Z</time></trkpt><trkpt lat="44.3856217" lon="10.8852833"><ele>288.0</ele><time>2026-05-02T08:44:55.994Z</time></trkpt><trkpt lat="44.3856217" lon="10.8851417"><ele>289.0</ele><time>2026-05-02T08:44:56.995Z</time></trkpt><trkpt lat="44.3856017" lon="10.8849983"><ele>290.0</ele><time>2026-05-02T08:44:57.995Z</time></trkpt><trkpt lat="44.3855683" lon="10.8848567"><ele>291.0</ele><time>2026-05-02T08:44:58.995Z</time></trkpt><trkpt lat="44.3855183" lon="10.8847117"><ele>291.0</ele><time>2026-05-02T08:44:59.995Z</time></trkpt><trkpt lat="44.38546" lon="10.8845633"><ele>291.0</ele><time>2026-05-02T08:45:00.994Z</time></trkpt><trkpt lat="44.385395" lon="10.8844117"><ele>291.0</ele><time>2026-05-02T08:45:01.995Z</time></trkpt><trkpt lat="44.3853283" lon="10.8842667"><ele>291.0</ele><time>2026-05-02T08:45:02.995Z</time></trkpt><trkpt lat="44.3852717" lon="10.8841383"><ele>291.0</ele><time>2026-05-02T08:45:03.995Z</time></trkpt><trkpt lat="44.38521" lon="10.8840183"><ele>291.0</ele><time>2026-05-02T08:45:04.994Z</time></trkpt><trkpt lat="44.3851517" lon="10.883905"><ele>291.0</ele><time>2026-05-02T08:45:05.996Z</time></trkpt><trkpt lat="44.3851" lon="10.883825"><ele>291.0</ele><time>2026-05-02T08:45:06.994Z</time></trkpt><trkpt lat="44.3850583" lon="10.883755"><ele>291.0</ele><time>2026-05-02T08:45:07.993Z</time></trkpt><trkpt lat="44.3849917" lon="10.88366"><ele>291.0</ele><time>2026-05-02T08:45:09.994Z</time></trkpt><trkpt lat="44.3849283" lon="10.8836"><ele>291.0</ele><time>2026-05-02T08:45:16.993Z</time></trkpt><trkpt lat="44.3848667" lon="10.8835567"><ele>291.0</ele><time>2026-05-02T08:45:39.993Z</time></trkpt><trkpt lat="44.3847883" lon="10.8834783"><ele>291.0</ele><time>2026-05-02T08:45:41.994Z</time></trkpt><trkpt lat="44.3847333" lon="10.8834083"><ele>291.0</ele><time>2026-05-02T08:45:43.994Z</time></trkpt><trkpt lat="44.3847167" lon="10.8833183"><ele>291.0</ele><time>2026-05-02T08:46:37.993Z</time></trkpt><trkpt lat="44.3846433" lon="10.8832883"><ele>291.0</ele><time>2026-05-02T08:46:40.994Z</time></trkpt><trkpt lat="44.3846867" lon="10.8833833"><ele>291.0</ele><time>2026-05-02T08:48:16.995Z</time></trkpt><trkpt lat="44.3847733" lon="10.883455"><ele>291.0</ele><time>2026-05-02T08:48:18.997Z</time></trkpt><trkpt lat="44.3848683" lon="10.8834967"><ele>291.0</ele><time>2026-05-02T08:48:20.993Z</time></trkpt><trkpt lat="44.3849883" lon="10.88351"><ele>291.0</ele><time>2026-05-02T08:48:22.993Z</time></trkpt><trkpt lat="44.3851067" lon="10.883505"><ele>291.0</ele><time>2026-05-02T08:48:24.996Z</time></trkpt><trkpt lat="44.3852083" lon="10.8834483"><ele>291.8</ele><time>2026-05-02T08:48:26.997Z</time></trkpt><trkpt lat="44.3852617" lon="10.8833983"><ele>292.6</ele><time>2026-05-02T08:48:27.995Z</time></trkpt><trkpt lat="44.3853467" lon="10.8833017"><ele>293.4</ele><time>2026-05-02T08:48:29.995Z</time></trkpt><trkpt lat="44.3853983" lon="10.8832433"><ele>294.2</ele><time>2026-05-02T08:48:30.996Z</time></trkpt><trkpt lat="44.3854783" lon="10.883145"><ele>295.0</ele><time>2026-05-02T08:48:32.993Z</time></trkpt><trkpt lat="44.38556" lon="10.883045"><ele>297.8</ele><time>2026-05-02T08:48:34.994Z</time></trkpt><trkpt lat="44.3856517" lon="10.88294"><ele>300.6</ele><time>2026-05-02T08:48:36.995Z</time></trkpt><trkpt lat="44.3857367" lon="10.8828467"><ele>303.4</ele><time>2026-05-02T08:48:38.993Z</time></trkpt><trkpt lat="44.38582" lon="10.8827717"><ele>306.2</ele><time>2026-05-02T08:48:40.996Z</time></trkpt><trkpt lat="44.3859033" lon="10.8827133"><ele>309.0</ele><time>2026-05-02T08:48:42.996Z</time></trkpt><trkpt lat="44.3859617" lon="10.8826467"><ele>310.6666666666667</ele><time>2026-05-02T08:48:44.995Z</time></trkpt><trkpt lat="44.3859967" lon="10.8825517"><ele>312.3333333333333</ele><time>2026-05-02T08:48:46.998Z</time></trkpt><trkpt lat="44.3860283" lon="10.8824483"><ele>314.0</ele><time>2026-05-02T08:48:48.995Z</time></trkpt><trkpt lat="44.3860483" lon="10.8823317"><ele>315.66666666666663</ele><time>2026-05-02T08:48:50.995Z</time></trkpt><trkpt lat="44.38607" lon="10.8822167"><ele>317.3333333333333</ele><time>2026-05-02T08:48:52.996Z</time></trkpt><trkpt lat="44.3860817" lon="10.8821283"><ele>319.0</ele><time>2026-05-02T08:48:54.999Z</time></trkpt><trkpt lat="44.3860783" lon="10.88203"><ele>319.0</ele><time>2026-05-02T08:48:56.996Z</time></trkpt><trkpt lat="44.3860933" lon="10.8819417"><ele>319.0</ele><time>2026-05-02T08:48:59.994Z</time></trkpt><trkpt lat="44.3860267" lon="10.88186"><ele>319.0</ele><time>2026-05-02T08:50:54.994Z</time></trkpt><trkpt lat="44.3860483" lon="10.881725"><ele>319.0</ele><time>2026-05-02T08:50:57.996Z</time></trkpt><trkpt lat="44.3860783" lon="10.88163"><ele>319.0</ele><time>2026-05-02T08:50:59.996Z</time></trkpt><trkpt lat="44.386105" lon="10.881545"><ele>319.0</ele><time>2026-05-02T08:51:01.995Z</time></trkpt><trkpt lat="44.38613" lon="10.8814317"><ele>320.5</ele><time>2026-05-02T08:51:04.995Z</time></trkpt><trkpt lat="44.386155" lon="10.8813333"><ele>322.0</ele><time>2026-05-02T08:51:06.993Z</time></trkpt><trkpt lat="44.38617" lon="10.8812117"><ele>323.5</ele><time>2026-05-02T08:51:08.995Z</time></trkpt><trkpt lat="44.3861917" lon="10.881115"><ele>325.0</ele><time>2026-05-02T08:51:10.994Z</time></trkpt><trkpt lat="44.3862183" lon="10.8809967"><ele>326.5</ele><time>2026-05-02T08:51:12.995Z</time></trkpt><trkpt lat="44.3862533" lon="10.8808783"><ele>328.0</ele><time>2026-05-02T08:51:14.995Z</time></trkpt><trkpt lat="44.3862883" lon="10.8807767"><ele>328.85714285714283</ele><time>2026-05-02T08:51:16.996Z</time></trkpt><trkpt lat="44.386325" lon="10.88068"><ele>329.7142857142857</ele><time>2026-05-02T08:51:18.995Z</time></trkpt><trkpt lat="44.38636" lon="10.8805967"><ele>330.57142857142856</ele><time>2026-05-02T08:51:20.996Z</time></trkpt><trkpt lat="44.3864067" lon="10.8805017"><ele>331.42857142857144</ele><time>2026-05-02T08:51:23.995Z</time></trkpt><trkpt lat="44.3864417" lon="10.8804167"><ele>332.2857142857143</ele><time>2026-05-02T08:51:25.995Z</time></trkpt><trkpt lat="44.3864783" lon="10.880335"><ele>333.1428571428571</ele><time>2026-05-02T08:51:27.998Z</time></trkpt><trkpt lat="44.3865183" lon="10.8802533"><ele>334.0</ele><time>2026-05-02T08:51:29.997Z</time></trkpt><trkpt lat="44.3865683" lon="10.8801483"><ele>337.3333333333333</ele><time>2026-05-02T08:51:32.996Z</time></trkpt><trkpt lat="44.3866033" lon="10.880075"><ele>340.66666666666663</ele><time>2026-05-02T08:55:00.993Z</time></trkpt><trkpt lat="44.3866583" lon="10.8800067"><ele>344.0</ele><time>2026-05-02T08:55:02.996Z</time></trkpt><trkpt lat="44.3867233" lon="10.8799483"><ele>347.3333333333333</ele><time>2026-05-02T08:55:04.996Z</time></trkpt><trkpt lat="44.3868" lon="10.8799"><ele>350.6666666666667</ele><time>2026-05-02T08:55:06.996Z</time></trkpt><trkpt lat="44.3868883" lon="10.879875"><ele>354.0</ele><time>2026-05-02T08:55:09Z</time></trkpt><trkpt lat="44.3869683" lon="10.8798867"><ele>354.0</ele><time>2026-05-02T08:55:10.995Z</time></trkpt><trkpt lat="44.3870467" lon="10.879915"><ele>354.0</ele><time>2026-05-02T08:55:14.996Z</time></trkpt><trkpt lat="44.387125" lon="10.8799133"><ele>354.0</ele><time>2026-05-02T08:55:17.996Z</time></trkpt><trkpt lat="44.38717" lon="10.8798317"><ele>354.0</ele><time>2026-05-02T08:55:19.996Z</time></trkpt><trkpt lat="44.3872083" lon="10.8797583"><ele>354.0</ele><time>2026-05-02T08:55:21.995Z</time></trkpt><trkpt lat="44.3872567" lon="10.8796817"><ele>354.0</ele><time>2026-05-02T08:55:24.997Z</time></trkpt><trkpt lat="44.3873067" lon="10.8796233"><ele>354.0</ele><time>2026-05-02T08:55:26.996Z</time></trkpt><trkpt lat="44.3873683" lon="10.8795867"><ele>357.8333333333333</ele><time>2026-05-02T08:55:28.995Z</time></trkpt><trkpt lat="44.3874417" lon="10.8795867"><ele>361.6666666666667</ele><time>2026-05-02T08:55:31.993Z</time></trkpt><trkpt lat="44.3875023" lon="10.8796354"><ele>365.5</ele><time>2026-05-02T08:55:34.994Z</time></trkpt><trkpt lat="44.3875594" lon="10.8796983"><ele>369.33333333333337</ele><time>2026-05-02T08:55:38.993Z</time></trkpt><trkpt lat="44.3876217" lon="10.87976"><ele>373.1666666666667</ele><time>2026-05-02T08:58:03.996Z</time></trkpt><trkpt lat="44.3877217" lon="10.879785"><ele>377.0</ele><time>2026-05-02T08:59:10.996Z</time></trkpt><trkpt lat="44.3878217" lon="10.8798"><ele>377.0</ele><time>2026-05-02T08:59:12.996Z</time></trkpt><trkpt lat="44.387915" lon="10.8798283"><ele>377.0</ele><time>2026-05-02T08:59:14.996Z</time></trkpt><trkpt lat="44.38798" lon="10.8799017"><ele>377.0</ele><time>2026-05-02T08:59:16.995Z</time></trkpt><trkpt lat="44.3880633" lon="10.879975"><ele>377.0</ele><time>2026-05-02T08:59:18.994Z</time></trkpt><trkpt lat="44.3881833" lon="10.8800483"><ele>377.0</ele><time>2026-05-02T08:59:20.993Z</time></trkpt><trkpt lat="44.3882583" lon="10.8800883"><ele>381.0</ele><time>2026-05-02T08:59:21.994Z</time></trkpt><trkpt lat="44.3883417" lon="10.88013"><ele>385.0</ele><time>2026-05-02T08:59:22.994Z</time></trkpt><trkpt lat="44.388435" lon="10.8801733"><ele>389.0</ele><time>2026-05-02T08:59:23.994Z</time></trkpt><trkpt lat="44.38854" lon="10.8802167"><ele>393.0</ele><time>2026-05-02T08:59:24.997Z</time></trkpt><trkpt lat="44.38864" lon="10.8802533"><ele>397.0</ele><time>2026-05-02T08:59:25.995Z</time></trkpt><trkpt lat="44.3887233" lon="10.8802783"><ele>397.00000000000006</ele><time>2026-05-02T08:59:26.996Z</time></trkpt><trkpt lat="44.3888033" lon="10.8802917"><ele>397.0</ele><time>2026-05-02T08:59:27.994Z</time></trkpt><trkpt lat="44.3888917" lon="10.8802367"><ele>397.0</ele><time>2026-05-02T08:59:29.997Z</time></trkpt><trkpt lat="44.3889317" lon="10.8801683"><ele>397.0</ele><time>2026-05-02T08:59:31.996Z</time></trkpt><trkpt lat="44.3889567" lon="10.880065"><ele>397.00000000000006</ele><time>2026-05-02T09:09:21.996Z</time></trkpt><trkpt lat="44.38902" lon="10.8799767"><ele>397.0</ele><time>2026-05-02T09:09:23.996Z</time></trkpt><trkpt lat="44.3890983" lon="10.8798617"><ele>401.20000000000005</ele><time>2026-05-02T09:09:25.996Z</time></trkpt><trkpt lat="44.3891767" lon="10.879755"><ele>405.4</ele><time>2026-05-02T09:09:27.996Z</time></trkpt><trkpt lat="44.3892483" lon="10.8796633"><ele>409.6</ele><time>2026-05-02T09:09:29.995Z</time></trkpt><trkpt lat="44.3893317" lon="10.8795667"><ele>413.79999999999995</ele><time>2026-05-02T09:09:31.995Z</time></trkpt><trkpt lat="44.3894233" lon="10.87948"><ele>418.0</ele><time>2026-05-02T09:09:33.994Z</time></trkpt><trkpt lat="44.3895267" lon="10.8794167"><ele>418.00000000000006</ele><time>2026-05-02T09:09:35.996Z</time></trkpt><trkpt lat="44.3896383" lon="10.8793817"><ele>418.0</ele><time>2026-05-02T09:09:37.996Z</time></trkpt><trkpt lat="44.3897067" lon="10.8793833"><ele>418.0</ele><time>2026-05-02T09:09:38.993Z</time></trkpt><trkpt lat="44.3897783" lon="10.87941"><ele>418.0</ele><time>2026-05-02T09:09:39.995Z</time></trkpt><trkpt lat="44.3898533" lon="10.8794383"><ele>418.00000000000006</ele><time>2026-05-02T09:09:40.995Z</time></trkpt><trkpt lat="44.38992" lon="10.8794683"><ele>418.0</ele><time>2026-05-02T09:09:41.996Z</time></trkpt><trkpt lat="44.3899833" lon="10.8795"><ele>419.1428571428571</ele><time>2026-05-02T09:09:42.996Z</time></trkpt><trkpt lat="44.3900467" lon="10.8795217"><ele>420.2857142857143</ele><time>2026-05-02T09:09:43.996Z</time></trkpt><trkpt lat="44.3901133" lon="10.879525"><ele>421.42857142857144</ele><time>2026-05-02T09:09:44.996Z</time></trkpt><trkpt lat="44.390175" lon="10.8795067"><ele>422.57142857142856</ele><time>2026-05-02T09:09:45.995Z</time></trkpt><trkpt lat="44.3902367" lon="10.87947"><ele>423.7142857142857</ele><time>2026-05-02T09:09:46.995Z</time></trkpt><trkpt lat="44.390305" lon="10.8794217"><ele>424.85714285714283</ele><time>2026-05-02T09:09:47.995Z</time></trkpt><trkpt lat="44.3903667" lon="10.8793667"><ele>426.0</ele><time>2026-05-02T09:09:48.996Z</time></trkpt><trkpt lat="44.39042" lon="10.87931"><ele>431.0</ele><time>2026-05-02T09:09:49.995Z</time></trkpt><trkpt lat="44.3905217" lon="10.879215"><ele>436.0</ele><time>2026-05-02T09:09:51.995Z</time></trkpt><trkpt lat="44.390625" lon="10.879115"><ele>441.0</ele><time>2026-05-02T09:09:53.996Z</time></trkpt><trkpt lat="44.39072" lon="10.87902"><ele>446.0</ele><time>2026-05-02T09:09:55.997Z</time></trkpt><trkpt lat="44.3908167" lon="10.8789283"><ele>446.0</ele><time>2026-05-02T09:09:57.996Z</time></trkpt><trkpt lat="44.3909083" lon="10.8788583"><ele>446.0</ele><time>2026-05-02T09:09:59.994Z</time></trkpt><trkpt lat="44.391005" lon="10.878795"><ele>446.0</ele><time>2026-05-02T09:10:01.996Z</time></trkpt><trkpt lat="44.3910783" lon="10.87875"><ele>446.0</ele><time>2026-05-02T09:10:03.997Z</time></trkpt><trkpt lat="44.3911517" lon="10.8788"><ele>446.0</ele><time>2026-05-02T09:10:07.996Z</time></trkpt><trkpt lat="44.3911983" lon="10.8788917"><ele>446.0</ele><time>2026-05-02T09:10:09.995Z</time></trkpt><trkpt lat="44.3912617" lon="10.8789833"><ele>446.0</ele><time>2026-05-02T09:10:11.997Z</time></trkpt><trkpt lat="44.39134" lon="10.879065"><ele>446.0</ele><time>2026-05-02T09:10:13.994Z</time></trkpt><trkpt lat="44.39143" lon="10.8791483"><ele>446.0</ele><time>2026-05-02T09:10:15.995Z</time></trkpt><trkpt lat="44.3915067" lon="10.87928"><ele>446.0</ele><time>2026-05-02T09:10:17.994Z</time></trkpt><trkpt lat="44.3915733" lon="10.8794217"><ele>447.8</ele><time>2026-05-02T09:10:19.995Z</time></trkpt><trkpt lat="44.39161" lon="10.8795617"><ele>449.6</ele><time>2026-05-02T09:10:21.995Z</time></trkpt><trkpt lat="44.3916483" lon="10.879695"><ele>451.4</ele><time>2026-05-02T09:10:23.996Z</time></trkpt><trkpt lat="44.3916767" lon="10.8798483"><ele>453.2</ele><time>2026-05-02T09:10:25.996Z</time></trkpt><trkpt lat="44.3917033" lon="10.88001"><ele>455.0</ele><time>2026-05-02T09:10:27.997Z</time></trkpt><trkpt lat="44.3917283" lon="10.8801433"><ele>455.0</ele><time>2026-05-02T09:10:29.996Z</time></trkpt><trkpt lat="44.3917767" lon="10.8802633"><ele>455.0</ele><time>2026-05-02T09:10:31.995Z</time></trkpt><trkpt lat="44.391845" lon="10.8803767"><ele>455.0</ele><time>2026-05-02T09:10:33.994Z</time></trkpt><trkpt lat="44.3919267" lon="10.8804933"><ele>455.0</ele><time>2026-05-02T09:10:35.995Z</time></trkpt><trkpt lat="44.3920083" lon="10.880605"><ele>455.0</ele><time>2026-05-02T09:10:37.995Z</time></trkpt><trkpt lat="44.3920867" lon="10.8807083"><ele>455.0</ele><time>2026-05-02T09:10:39.995Z</time></trkpt><trkpt lat="44.3921467" lon="10.8808133"><ele>455.0</ele><time>2026-05-02T09:10:41.994Z</time></trkpt><trkpt lat="44.3922017" lon="10.8809383"><ele>455.0</ele><time>2026-05-02T09:10:43.994Z</time></trkpt><trkpt lat="44.3922733" lon="10.881075"><ele>455.0</ele><time>2026-05-02T09:10:45.996Z</time></trkpt><trkpt lat="44.39236" lon="10.8811983"><ele>455.0</ele><time>2026-05-02T09:10:47.994Z</time></trkpt><trkpt lat="44.392415" lon="10.8812567"><ele>455.57142857142856</ele><time>2026-05-02T09:10:48.995Z</time></trkpt><trkpt lat="44.3924683" lon="10.881305"><ele>456.1428571428571</ele><time>2026-05-02T09:10:49.997Z</time></trkpt><trkpt lat="44.3925233" lon="10.8813517"><ele>456.7142857142857</ele><time>2026-05-02T09:10:50.994Z</time></trkpt><trkpt lat="44.3925817" lon="10.8813983"><ele>457.2857142857143</ele><time>2026-05-02T09:10:51.994Z</time></trkpt><trkpt lat="44.392645" lon="10.8814517"><ele>457.85714285714283</ele><time>2026-05-02T09:10:52.994Z</time></trkpt><trkpt lat="44.39271" lon="10.88151"><ele>458.42857142857144</ele><time>2026-05-02T09:10:53.994Z</time></trkpt><trkpt lat="44.3927717" lon="10.8815667"><ele>459.0</ele><time>2026-05-02T09:10:54.998Z</time></trkpt><trkpt lat="44.39283" lon="10.8816233"><ele>459.0</ele><time>2026-05-02T09:10:55.994Z</time></trkpt><trkpt lat="44.39289" lon="10.8816933"><ele>459.0</ele><time>2026-05-02T09:10:56.996Z</time></trkpt><trkpt lat="44.3929433" lon="10.8817633"><ele>459.0</ele><time>2026-05-02T09:10:57.995Z</time></trkpt><trkpt lat="44.3929917" lon="10.88184"><ele>459.0</ele><time>2026-05-02T09:10:58.997Z</time></trkpt><trkpt lat="44.39303" lon="10.881915"><ele>459.0</ele><time>2026-05-02T09:10:59.994Z</time></trkpt><trkpt lat="44.3930567" lon="10.882"><ele>459.0</ele><time>2026-05-02T09:11:00.996Z</time></trkpt><trkpt lat="44.3930783" lon="10.8820933"><ele>459.0</ele><time>2026-05-02T09:11:01.994Z</time></trkpt><trkpt lat="44.3930917" lon="10.8821817"><ele>460.8333333333333</ele><time>2026-05-02T09:11:02.995Z</time></trkpt><trkpt lat="44.3931083" lon="10.8822767"><ele>462.66666666666663</ele><time>2026-05-02T09:11:03.996Z</time></trkpt><trkpt lat="44.393125" lon="10.882385"><ele>464.5</ele><time>2026-05-02T09:11:04.994Z</time></trkpt><trkpt lat="44.3931383" lon="10.8824933"><ele>466.3333333333333</ele><time>2026-05-02T09:11:05.995Z</time></trkpt><trkpt lat="44.3931583" lon="10.8826067"><ele>468.16666666666663</ele><time>2026-05-02T09:11:06.994Z</time></trkpt><trkpt lat="44.393175" lon="10.8827117"><ele>470.0</ele><time>2026-05-02T09:11:07.994Z</time></trkpt><trkpt lat="44.3931917" lon="10.88281"><ele>470.0</ele><time>2026-05-02T09:11:08.996Z</time></trkpt><trkpt lat="44.393205" lon="10.8829117"><ele>469.99999999999994</ele><time>2026-05-02T09:11:09.995Z</time></trkpt><trkpt lat="44.3932217" lon="10.88301"><ele>470.0</ele><time>2026-05-02T09:11:10.999Z</time></trkpt><trkpt lat="44.3932383" lon="10.8831033"><ele>470.0</ele><time>2026-05-02T09:11:11.995Z</time></trkpt><trkpt lat="44.39326" lon="10.8831967"><ele>469.99999999999994</ele><time>2026-05-02T09:11:12.995Z</time></trkpt><trkpt lat="44.3932917" lon="10.8832967"><ele>470.0</ele><time>2026-05-02T09:11:13.997Z</time></trkpt><trkpt lat="44.393325" lon="10.8833917"><ele>470.0</ele><time>2026-05-02T09:11:14.996Z</time></trkpt><trkpt lat="44.3933633" lon="10.88348"><ele>469.2</ele><time>2026-05-02T09:11:15.995Z</time></trkpt><trkpt lat="44.393405" lon="10.8835667"><ele>468.4</ele><time>2026-05-02T09:11:16.996Z</time></trkpt><trkpt lat="44.3934483" lon="10.8836383"><ele>467.6</ele><time>2026-05-02T09:11:17.994Z</time></trkpt><trkpt lat="44.39355" lon="10.883755"><ele>466.8</ele><time>2026-05-02T09:11:19.994Z</time></trkpt><trkpt lat="44.393645" lon="10.8838383"><ele>466.0</ele><time>2026-05-02T09:11:21.994Z</time></trkpt><trkpt lat="44.393735" lon="10.883905"><ele>466.00000000000006</ele><time>2026-05-02T09:11:23.995Z</time></trkpt><trkpt lat="44.3937883" lon="10.8839533"><ele>466.0</ele><time>2026-05-02T09:11:25.001Z</time></trkpt><trkpt lat="44.39385" lon="10.884015"><ele>466.0</ele><time>2026-05-02T09:11:26Z</time></trkpt><trkpt lat="44.3939233" lon="10.8840833"><ele>466.0</ele><time>2026-05-02T09:11:26.997Z</time></trkpt><trkpt lat="44.394" lon="10.884165"><ele>466.00000000000006</ele><time>2026-05-02T09:11:27.997Z</time></trkpt><trkpt lat="44.3940767" lon="10.8842367"><ele>466.0</ele><time>2026-05-02T09:11:28.994Z</time></trkpt><trkpt lat="44.3941483" lon="10.8843067"><ele>466.28571428571433</ele><time>2026-05-02T09:11:29.996Z</time></trkpt><trkpt lat="44.39421" lon="10.884375"><ele>466.57142857142856</ele><time>2026-05-02T09:11:30.997Z</time></trkpt><trkpt lat="44.39427" lon="10.884435"><ele>466.8571428571429</ele><time>2026-05-02T09:11:31.996Z</time></trkpt><trkpt lat="44.3943367" lon="10.8844783"><ele>467.14285714285717</ele><time>2026-05-02T09:11:32.996Z</time></trkpt><trkpt lat="44.3944033" lon="10.8845017"><ele>467.42857142857144</ele><time>2026-05-02T09:11:33.997Z</time></trkpt><trkpt lat="44.3944767" lon="10.8845083"><ele>467.7142857142857</ele><time>2026-05-02T09:11:34.994Z</time></trkpt><trkpt lat="44.3945533" lon="10.8844983"><ele>468.0</ele><time>2026-05-02T09:11:35.997Z</time></trkpt><trkpt lat="44.3946383" lon="10.88447"><ele>470.0</ele><time>2026-05-02T09:11:37Z</time></trkpt><trkpt lat="44.3947233" lon="10.884435"><ele>471.99999999999994</ele><time>2026-05-02T09:11:37.995Z</time></trkpt><trkpt lat="44.39481" lon="10.8844"><ele>473.99999999999994</ele><time>2026-05-02T09:11:38.994Z</time></trkpt><trkpt lat="44.3949" lon="10.8843783"><ele>476.0</ele><time>2026-05-02T09:11:39.994Z</time></trkpt><trkpt lat="44.395" lon="10.8843683"><ele>478.0</ele><time>2026-05-02T09:11:40.997Z</time></trkpt><trkpt lat="44.395105" lon="10.8843617"><ele>478.0</ele><time>2026-05-02T09:11:41.997Z</time></trkpt><trkpt lat="44.3952133" lon="10.884355"><ele>477.99999999999994</ele><time>2026-05-02T09:11:42.997Z</time></trkpt><trkpt lat="44.39532" lon="10.884345"><ele>477.99999999999994</ele><time>2026-05-02T09:11:43.996Z</time></trkpt><trkpt lat="44.39543" lon="10.8843283"><ele>478.0</ele><time>2026-05-02T09:11:44.996Z</time></trkpt><trkpt lat="44.39555" lon="10.8843"><ele>478.0</ele><time>2026-05-02T09:11:45.996Z</time></trkpt><trkpt lat="44.3956767" lon="10.8842617"><ele>481.75</ele><time>2026-05-02T09:11:46.996Z</time></trkpt><trkpt lat="44.39581" lon="10.8842183"><ele>485.5</ele><time>2026-05-02T09:11:47.997Z</time></trkpt><trkpt lat="44.39594" lon="10.88417"><ele>489.25</ele><time>2026-05-02T09:11:48.997Z</time></trkpt><trkpt lat="44.3960667" lon="10.8841167"><ele>493.0</ele><time>2026-05-02T09:11:49.995Z</time></trkpt><trkpt lat="44.39619" lon="10.8840617"><ele>493.0</ele><time>2026-05-02T09:11:50.997Z</time></trkpt><trkpt lat="44.3963017" lon="10.8840217"><ele>492.99999999999994</ele><time>2026-05-02T09:11:51.995Z</time></trkpt><trkpt lat="44.3964033" lon="10.8839983"><ele>492.99999999999994</ele><time>2026-05-02T09:11:52.998Z</time></trkpt><trkpt lat="44.3964967" lon="10.88399"><ele>493.0</ele><time>2026-05-02T09:11:53.998Z</time></trkpt><trkpt lat="44.3965817" lon="10.88399"><ele>493.0</ele><time>2026-05-02T09:11:54.997Z</time></trkpt><trkpt lat="44.39665" lon="10.8839967"><ele>500.0</ele><time>2026-05-02T09:11:55.996Z</time></trkpt><trkpt lat="44.3967383" lon="10.884005"><ele>500.0</ele><time>2026-05-02T09:11:57.996Z</time></trkpt></trkseg></trk></gpx>